[[{"header":{"parameterUnit":"m.s-1","parameterCategory":1,"la1":31.0,"la2":29.5877,"lo1":-88.7671,"lo2":-86.6584,"dx":0.0162,"dy":0.0185,"nx":115,"ny":88,"refTime":"2023-01-19T06:00:00:Z","depth":0,"parameterNumber":2,"parameterNumberName":"U-component_of_WINDS"},"data":[0.0,0.0,0.0,0.0,0.0,0.0,0.0,0.0,0.0,0.0,0.0,0.0,0.0,0.0,0.0,0.0,0.0,0.0,0.0,0.0,0.0,0.0,0.0,0.0,0.0,0.0,0.0,0.0,0.0,0.0,0.0,0.0,0.0,0.0,0.0,0.0,0.0,0.0,0.0,0.0,0.0,0.0,0.0,0.0,0.0,0.0,0.0,0.0,0.0,0.0,0.0,0.0,0.0,0.0,0.0,0.0,0.0,0.0,0.0,0.0,0.0,0.0,0.0,0.0,0.0,0.0,0.0,0.0,0.0,0.0,0.0,0.0,0.0,0.0,0.0,0.0,0.0,0.0,0.0,0.0,0.0,0.0,0.0,0.0,0.0,0.0,0.0,0.0,0.0,0.0,0.0,0.0,0.0,0.0,0.0,0.0,0.0,0.0,0.0,0.0,0.0,0.0,0.0,0.0,0.0,0.0,0.0,0.0,0.0,0.0,0.0,0.0,0.0,0.0,0.0,0.0,0.0,0.0,0.0,0.0,0.0,0.0,0.0,0.0,0.0,0.0,0.0,0.0,0.0,0.0,0.0,0.0,0.0,0.0,0.0,0.0,0.0,0.0,0.0,0.0,0.0,0.0,0.0,0.0,0.0,0.0,0.0,0.0,0.0,0.0,0.0,0.0,0.0,0.0,0.0,0.0,0.0,0.0,0.0,0.0,0.0,0.0,0.0,0.0,0.0,0.0,0.0,0.0,0.0,0.0,0.0,0.0,0.0,0.0,0.0,0.0,0.0,0.0,0.0,0.0,0.0,0.0,0.0,0.0,0.0,0.0,0.0,0.0,0.0,0.0,0.0,0.0,0.0,0.0,0.0,0.0,0.0,0.0,0.0,0.0,0.0,0.0,0.0,0.0,0.0,0.0,0.0,0.0,0.0,0.0,0.0,0.0,0.0,0.0,0.0,0.0,0.0,0.0,0.0,0.0,0.0,0.0,0.0,0.0,0.0,0.0,0.0,0.0,0.0,0.0,0.0,0.0,0.0,0.0,0.0,0.0,0.0,0.0,0.0,0.0,0.0,0.0,0.0,0.0,0.0,0.0,0.0,0.0,0.0,0.0,0.0,0.0,0.0,0.0,0.0,0.0,0.0,0.0,0.0,0.0,0.0,0.0,0.0,0.0,0.0,0.0,0.0,0.0,0.0,0.0,0.0,0.0,0.0,0.0,0.0,0.0,0.0,0.0,0.0,0.0,0.0,0.0,0.0,0.0,0.0,0.0,0.0,0.0,0.0,0.0,0.0,0.0,0.0,0.0,0.0,0.0,0.0,0.0,0.0,0.0,0.0,0.0,0.0,0.0,0.0,0.0,0.0,0.0,0.0,0.0,0.0,0.0,0.0,0.0,0.0,0.0,0.0,0.0,0.0,0.0,0.0,0.0,0.0,0.0,0.0,0.0,0.0,0.0,0.0,0.0,0.0,0.0,0.0,0.0,0.0,0.0,0.0,0.0,0.0,0.0,0.0,0.0,0.0,0.0,0.0,0.0,0.0,0.0,0.0,0.0,0.0,0.0,0.0,0.0,0.0,0.0,0.0,0.0,0.0,0.0,0.0,0.0,0.0,0.0,0.0,0.0,0.0,0.0,0.0,0.0,0.0,0.0,0.0,0.0,0.0,0.0,0.0,0.0,0.0,0.0,0.0,0.0,0.0,0.0,0.0,0.0,0.0,0.0,0.0,0.0,0.0,0.0,0.0,0.0,0.0,0.0,0.0,0.0,0.0,0.0,0.0,0.0,0.0,0.0,0.0,0.0,0.0,0.0,0.0,0.0,0.0,0.0,0.0,0.0,0.0,0.0,0.0,0.0,0.0,0.0,0.0,0.0,0.0,0.0,0.0,0.0,0.0,0.0,0.0,0.0,0.0,0.0,0.0,0.0,0.0,0.0,0.0,0.0,0.0,0.0,0.0,0.0,0.0,0.0,0.0,0.0,0.0,0.0,0.0,0.0,0.0,0.0,0.0,0.0,0.0,0.0,0.0,0.0,0.0,0.0,0.0,0.0,0.0,0.0,0.0,0.0,0.0,0.0,0.0,0.0,0.0,0.0,0.0,0.0,0.0,0.0,0.0,0.0,0.0,0.0,0.0,0.0,0.0,0.0,0.0,0.0,0.0,0.0,0.0,0.0,0.0,0.0,0.0,0.0,0.0,0.0,0.0,0.0,0.0,0.0,0.0,0.0,0.0,0.0,0.0,0.0,0.0,0.0,0.0,0.0,0.0,0.0,0.0,0.0,0.0,0.0,0.0,0.0,0.0,0.0,0.0,0.0,0.0,0.0,0.0,0.0,0.0,0.0,0.0,0.0,0.0,0.0,0.0,0.0,0.0,0.0,0.0,0.0,0.0,0.0,0.0,0.0,0.0,0.0,0.0,0.0,0.0,0.0,0.0,0.0,0.0,0.0,0.0,0.0,0.0,0.0,0.0,0.0,0.0,0.0,0.0,0.0,0.0,0.0,0.0,0.0,0.0,0.0,0.0,0.0,0.0,0.0,0.0,0.0,0.0,0.0,0.0,0.0,0.0,0.0,0.0,0.0,0.0,0.0,0.0,0.0,0.0,0.0,0.0,0.0,0.0,0.0,0.0,0.0,0.0,0.0,0.0,0.0,0.0,0.0,0.0,0.0,0.0,0.0,0.0,0.0,0.0,0.0,0.0,0.0,0.0,0.0,0.0,0.0,0.0,0.0,0.0,0.0,0.0,0.0,0.0,0.0,0.0,0.0,0.0,0.0,0.0,0.0,0.0,0.0,0.0,0.0,0.0,0.0,0.0,0.0,0.0,0.0,0.0,0.0,0.0,0.0,0.0,0.0,0.0,0.0,0.0,0.0,0.0,0.0,0.0,0.0,0.0,0.0,0.0,0.0,0.0,0.0,0.0,0.0,0.0,0.0,0.0,0.0,0.0,0.0,0.0,0.0,0.0,0.0,0.0,0.0,0.0,0.0,0.0,0.0,0.0,0.0,0.0,0.0,0.0,0.0,0.0,0.0,0.0,0.0,0.0,0.0,0.0,0.0,0.0,0.0,0.0,0.0,0.0,0.0,0.0,0.0,0.0,0.0,0.0,0.0,0.0,0.0,0.0,0.0,0.0,0.0,0.0,0.0,0.0,0.0,0.0,0.0,0.0,0.0,0.0,0.0,0.0,0.0,0.0,0.0,0.0,0.0,0.0,0.0,0.0,0.0,0.0,0.0,0.0,0.0,0.0,0.0,0.0,0.0,0.0,0.0,0.0,0.0,0.0,0.0,0.0,0.0,0.0,0.0,0.0,0.0,0.0,0.0,0.0,0.0,0.0,0.0,0.0,0.0,0.0,0.0,0.0,0.0,0.0,0.0,0.0,0.0,0.0,0.0,0.0,0.0,0.0,0.0,0.0,0.0,0.0,0.0,0.0,0.0,0.0,0.0,0.0,0.0,0.0,0.0,0.0,0.0,0.0,0.0,0.0,0.0,0.0,0.0,0.0,0.0,0.0,0.0,0.0,0.0,0.0,0.0,0.0,0.0,0.0,0.0,0.0,0.0,0.0,0.0,0.0,0.0,0.0,0.0,0.0,0.0,0.0,0.0,0.0,0.0,0.0,0.0,0.0,0.0,0.0,0.0,0.0,0.0,0.0,0.0,0.0,0.0,0.0,0.0,0.0,0.0,0.0,0.0,0.0,0.0,0.0,0.0,0.0,0.0,0.0,0.0,0.0,0.0,0.0,0.0,0.0,0.0,0.0,0.0,0.0,0.0,0.0,0.0,0.0,0.0,0.0,0.0,0.0,0.0,0.0,0.0,0.0,0.0,0.0,0.0,0.0,0.0,0.0,0.0,0.0,0.0,0.0,0.0,0.0,0.0,0.0,0.0,0.0,0.0,0.0,0.0,0.0,0.0,0.0,0.0,0.0,0.0,0.0,0.0,0.0,0.0,0.0,0.0,0.0,0.0,0.0,0.0,0.0,0.0,0.0,0.0,0.0,0.0,0.0,0.0,0.0,0.0,0.0,0.0,0.0,0.0,0.0,0.0,0.0,0.0,0.0,0.0,0.0,0.0,0.0,0.0,0.0,0.0,0.0,0.0,0.0,0.0,0.0,0.0,0.0,0.0,0.0,0.0,0.0,0.0,0.0,0.0,0.0,0.0,0.0,0.0,0.0,0.0,0.0,0.0,0.0,0.0,0.0,0.0,0.0,0.0,0.0,0.0,0.0,0.0,0.0,0.0,0.0,0.0,0.0,0.0,0.0,0.0,0.0,0.0,0.5683,0.0,0.0,0.0,0.0,0.0,0.0,0.0,0.0,0.0,0.0,0.0,0.0,0.0,0.0,0.0,0.0,0.0,0.0,0.0,0.0,0.0,0.0,0.0,0.0,0.0,0.0,0.0,0.0,0.0,0.0,0.0,0.0,0.0,0.0,0.0,0.0,0.0,0.0,0.0,0.0,0.0,0.0,0.0,0.0,0.0,0.0,0.0,0.0,0.0,0.0,0.0,0.0,0.0,0.0,0.0,0.0,0.0,0.0,0.0,0.0,0.0,0.0,0.0,0.0,0.0,0.0,0.0,0.0,0.0,0.0,0.0,0.0,0.0,0.0,0.0,0.0,0.0,0.0,0.0,0.0,0.0,0.0,0.0,0.0,0.0,0.0,0.0,0.0,0.0,0.0,0.0,0.0,0.0,0.0,0.0,0.0,0.0,0.0,0.0,0.0,0.0,0.0,0.0,0.0,0.0,0.0,0.0,0.0,0.0,0.0,0.5475,0.5673,0.5739,0.5848,0.602,0.0,0.0,0.0,0.0,0.0,0.0,0.0,0.0,0.0,0.0,0.0,0.0,0.0,0.0,0.0,0.0,0.0,0.0,0.0,0.0,0.0,0.0,0.0,0.0,0.0,0.0,0.0,0.0,0.0,0.0,0.0,0.0,0.0,0.0,0.0,0.0,0.0,0.0,0.0,0.0,0.0,0.0,0.0,0.0,0.0,0.0,0.0,0.0,0.0,0.0,0.0,0.0,0.0,0.0,0.0,0.0,0.0,0.0,0.0,0.0,0.0,0.0,0.0,0.0,0.0,0.0,0.0,0.0,0.0,0.0,0.0,0.0,0.0,0.0,0.0,0.0,0.0,0.0,0.0,0.0,0.0,0.0,0.0,0.0,0.0,0.0,0.0,0.0,0.0,0.0,0.0,0.0,0.0,0.0,0.0,0.0,0.0,0.0,0.0,0.0,0.0,0.0,0.0,0.0,0.0,0.0,0.0,0.0,0.0,0.0,0.0,0.0,0.6312,0.6504,0.6789,0.0,0.0,0.0,0.0,0.0,0.0,0.0,0.0,0.0,0.0,0.0,0.0,0.0,0.0,0.0,0.0,0.0,0.0,0.0,0.0,0.0,0.0,0.0,0.0,0.0,0.0,0.0,0.0,0.0,0.0,0.0,0.0,0.0,0.0,0.0,0.0,0.0,0.0,0.0,0.0,0.0,0.0,0.0,0.0,0.0,0.0,0.0,0.0,0.0,0.0,0.0,0.0,0.0,0.0,0.0,0.0,0.0,0.0,0.0,0.0,0.0,0.0,0.0,0.0,0.0,0.0,0.0,0.0,0.0,0.0,0.0,0.0,0.0,0.0,0.0,0.0,0.0,0.0,0.0,0.0,0.0,0.0,0.0,0.0,0.0,0.0,0.0,0.0,0.0,0.0,0.0,0.0,0.0,0.0,0.0,0.0,0.0,0.0,0.0,0.0,0.0,0.0,0.0,0.0,0.0,0.0,0.0,0.0,0.0,0.0,0.6399,0.7143,0.7513,0.0,0.798,0.0,0.0,0.0,0.0,0.0,0.0,0.0,0.0,0.0,0.0,0.0,0.0,0.0,0.0,0.0,0.0,0.0,0.0,0.0,0.0,0.0,0.0,0.0,0.0,0.0,0.0,0.0,0.0,0.0,0.0,0.0,0.0,0.0,0.0,0.0,0.0,0.0,0.0,0.0,0.0,0.0,0.0,0.0,0.0,0.0,0.0,0.0,0.0,0.0,0.0,0.0,0.0,0.0,0.0,0.0,0.0,0.0,0.0,0.0,0.0,0.0,0.0,0.0,0.0,0.0,0.0,0.0,0.0,0.0,0.0,0.0,0.0,0.0,0.0,0.0,0.0,0.0,0.0,0.0,0.0,0.0,0.0,0.0,0.0,0.0,0.0,0.0,0.0,0.0,0.0,0.0,0.0,0.0,0.0,0.0,0.0,0.0,0.0,0.0,0.0,0.0,0.0,0.0,0.0,0.0,0.0,0.0,0.0,0.0,0.0,0.7256,0.8176,0.8581,0.8642,0.0,0.0,0.0,0.0,0.0,0.0,0.0,0.0,0.0,0.0,0.0,0.0,0.0,0.0,0.0,0.0,0.0,0.0,0.0,0.0,0.0,0.0,0.0,0.0,0.0,0.0,0.0,0.0,0.0,0.0,0.0,0.0,0.0,0.0,0.0,0.0,0.0,0.0,0.0,0.0,0.0,0.0,0.0,0.0,0.0,0.0,0.0,0.0,0.0,0.0,0.0,0.0,0.0,0.0,0.0,0.0,0.0,0.0,0.0,0.0,0.0,0.0,0.0,0.0,0.0,0.0,0.0,0.0,0.0,0.0,0.0,0.0,0.0,0.0,0.0,0.0,0.0,0.0,0.0,0.0,0.0,0.0,0.0,0.0,0.0,0.0,0.0,0.0,0.0,0.0,0.0,0.0,0.0,0.0,0.0,0.0,0.0,0.0,0.0,0.0,0.0,0.0,0.0,0.0,0.0,0.0,0.0,0.0,0.0,0.0,0.7708,0.8339,0.94,0.971,0.9626,0.9159,0.0,0.0,0.0,0.0,0.0,0.0,0.0,0.0,0.0,0.0,0.0,0.0,0.0,0.0,0.0,0.0,0.0,0.0,0.0,0.0,0.0,0.0,0.0,0.0,0.0,0.0,0.0,0.0,0.0,0.0,0.0,0.0,0.0,0.0,0.0,0.0,0.0,0.0,0.0,0.0,0.0,0.0,0.0,0.0,0.0,0.0,0.0,0.0,0.0,0.0,0.0,0.0,0.0,0.0,0.0,0.0,0.0,0.0,0.0,0.0,0.0,0.0,0.0,0.0,0.0,0.0,0.0,0.0,0.0,0.0,0.0,0.0,0.0,0.0,0.0,0.0,0.0,0.0,0.0,0.0,0.0,0.0,0.0,0.0,0.0,0.0,0.0,0.0,0.0,0.0,0.0,0.0,0.0,0.0,0.0,0.0,0.0,0.0,0.0,0.0,0.0,0.0,0.0,0.0,0.0,0.0,0.0,0.0,0.8647,0.9016,0.9788,1.092,1.1013,1.1007,0.0,0.0,0.0,0.0,0.0,0.0,0.0,0.0,0.0,0.0,0.0,0.0,0.0,0.0,0.0,0.0,0.0,0.0,0.0,0.0,0.0,0.0,0.0,0.0,0.0,0.0,0.0,0.0,0.0,0.0,0.0,0.0,0.0,0.0,0.0,0.0,0.0,0.0,0.0,0.0,0.0,0.0,0.0,0.0,0.0,0.0,0.0,0.0,0.0,0.0,0.0,0.0,0.0,0.0,0.0,0.0,0.0,0.0,0.0,0.0,0.0,0.0,0.0,0.0,0.0,0.0,0.0,0.0,0.0,0.0,0.0,0.0,0.0,0.0,0.0,0.0,0.0,0.0,0.0,0.0,0.0,0.0,0.0,0.0,0.0,0.0,0.0,0.0,0.0,0.0,0.0,0.0,0.0,0.0,0.0,0.0,0.0,0.0,0.0,0.0,0.0,0.0,0.0,0.0,0.0,0.0,0.0,0.0,0.0,0.9671,1.0563,1.1049,1.1105,1.1589,1.1385,0.0,0.0,0.0,0.0,0.0,0.0,0.0,0.0,0.0,0.0,0.0,0.0,0.0,0.0,0.0,0.0,0.0,0.0,0.0,0.0,0.0,0.0,0.0,0.0,0.0,0.0,0.0,0.0,0.0,0.0,0.0,0.0,0.0,0.0,0.0,0.0,0.0,0.0,0.0,0.0,0.0,0.0,0.0,0.0,0.0,0.0,0.0,0.0,0.0,0.0,0.0,0.0,0.0,0.0,0.0,0.0,0.0,0.0,0.0,0.0,0.0,0.0,0.0,0.0,0.0,0.0,0.0,0.0,0.0,0.0,0.0,0.0,0.0,0.0,0.0,0.0,0.0,0.0,0.0,0.0,0.0,0.0,0.0,0.0,0.0,0.0,0.0,0.0,0.0,0.0,0.0,0.0,0.0,0.0,0.0,0.0,0.0,0.0,0.0,0.0,0.0,0.0,0.0,0.0,0.0,0.0,0.0,0.0,0.0,1.0575,0.0,1.1416,1.1434,1.1904,1.1589,0.0,0.0,0.0,0.0,0.0,0.0,0.0,0.0,0.0,0.0,0.0,0.0,0.0,0.0,0.0,0.0,0.0,0.0,0.0,0.0,0.0,0.0,0.0,0.0,0.0,0.0,0.0,0.0,0.0,0.0,0.0,0.0,0.0,0.0,0.0,0.0,0.0,0.0,0.0,0.0,0.0,0.0,0.0,0.0,0.0,0.0,0.0,0.0,0.0,0.0,0.0,0.0,0.0,0.0,0.0,0.0,0.0,0.0,0.0,0.0,0.0,0.0,0.0,0.0,0.0,0.0,0.0,0.0,0.0,0.0,0.0,0.0,0.0,0.0,0.0,0.0,0.0,0.0,0.0,0.0,0.0,0.0,0.0,0.0,0.0,0.0,0.0,0.0,0.0,0.0,0.0,0.0,0.0,0.0,0.0,0.0,0.0,0.0,0.0,0.0,0.0,0.0,0.0,0.0,0.0,0.0,0.0,0.0,1.1155,1.136,1.065,1.0837,1.1935,1.1972,1.1713,0.0,0.0,0.0,0.0,0.0,0.0,0.0,0.0,0.0,0.0,0.0,0.0,0.0,0.0,0.0,0.0,0.0,0.0,0.0,0.0,0.0,0.0,0.0,0.0,0.0,0.0,0.0,0.0,0.0,0.0,0.0,0.0,0.0,0.0,0.0,0.0,0.0,0.0,0.0,0.0,0.0,0.0,0.0,0.0,0.0,0.0,0.0,0.0,0.0,0.0,0.0,0.0,0.0,0.0,0.0,0.0,0.0,0.0,0.0,0.0,0.0,0.0,0.0,0.0,0.0,0.0,0.0,0.0,0.0,0.0,0.0,0.0,0.0,0.0,0.0,0.0,0.0,0.0,0.0,0.0,0.0,0.0,0.0,0.0,0.0,0.0,0.0,0.0,0.0,0.0,0.0,0.0,0.0,0.0,0.0,0.0,0.0,0.0,0.0,0.0,0.0,0.0,0.0,0.0,0.0,0.0,0.0,0.0,0.0,1.1774,1.144,1.1211,1.1211,1.17,1.1403,0.0,0.0,0.0,0.0,0.0,0.0,0.0,0.0,0.0,0.0,0.0,0.0,0.0,0.0,0.0,0.0,0.0,0.0,0.0,0.0,0.0,0.0,0.0,0.0,0.0,0.0,0.0,0.0,0.0,0.0,0.0,0.0,0.0,0.0,0.0,0.0,0.0,0.0,0.0,0.0,0.0,0.0,0.0,0.0,0.0,0.0,0.0,0.0,0.0,0.0,0.0,0.0,0.0,0.0,0.0,0.0,0.0,0.0,0.0,0.0,0.0,0.0,0.0,0.0,0.0,0.0,0.0,0.0,0.0,0.0,0.0,0.0,0.0,0.0,0.0,0.0,0.0,0.0,0.0,0.0,0.0,0.0,0.0,0.0,0.0,0.0,0.0,0.0,0.0,0.0,0.0,0.0,0.0,0.0,0.0,0.0,0.0,0.0,0.0,0.0,0.0,0.0,0.0,0.0,0.0,0.0,0.0,0.0,0.0,1.1675,1.1464,1.133,1.1311,1.1885,1.1519,1.0132,0.0,0.0,0.0,0.0,0.0,0.0,0.0,0.0,0.0,0.0,0.0,0.0,0.0,0.0,0.0,0.0,0.0,0.0,0.0,0.0,0.0,0.0,0.0,0.0,0.0,0.0,0.0,0.0,0.0,0.0,0.0,0.0,0.0,0.0,0.0,0.0,0.0,0.0,0.0,0.0,0.0,0.0,0.0,0.0,0.0,0.0,0.0,0.0,0.0,0.0,0.0,0.0,0.0,0.0,0.0,0.0,0.0,0.0,0.0,0.0,0.0,0.0,0.0,0.0,0.0,0.0,0.0,0.0,0.0,0.0,0.0,0.0,0.0,0.0,0.0,0.0,0.0,0.0,0.0,0.0,0.0,0.0,0.0,0.0,0.0,0.0,0.0,0.0,0.0,0.0,0.0,0.0,0.0,0.0,0.0,0.0,0.0,0.0,0.0,0.0,0.0,0.0,0.0,0.0,0.0,0.0,0.0,0.0,1.1422,1.1091,1.1314,1.2103,1.2366,1.1959,0.0,0.0,0.0,0.0,0.0,0.0,0.0,0.0,0.0,0.0,0.0,0.0,0.0,0.0,0.0,0.0,0.0,0.0,0.0,0.0,0.0,0.0,0.0,0.0,0.0,0.0,0.0,0.0,0.0,0.0,0.0,0.0,0.0,0.0,0.0,0.0,0.0,0.0,0.0,0.0,0.0,0.0,0.0,0.0,0.0,0.0,0.0,0.0,0.0,0.0,0.0,0.0,0.0,0.0,0.0,0.0,0.0,0.0,0.0,0.0,0.0,0.0,0.0,0.0,0.0,0.0,0.0,0.0,0.0,0.0,0.0,0.0,0.0,0.0,0.0,0.0,0.0,0.0,0.0,0.0,0.0,0.0,0.0,0.0,0.0,0.0,0.0,0.0,0.0,0.0,0.0,0.0,0.0,0.0,0.0,0.0,0.0,0.0,0.0,0.0,0.0,0.0,0.0,0.0,0.0,0.0,0.0,0.0,0.0,1.2909,1.3222,1.2798,1.1684,1.218,1.1702,0.0,0.0,0.0,0.0,0.0,0.0,0.0,0.0,0.0,0.0,0.0,0.0,0.0,0.0,0.0,0.0,0.0,0.0,0.0,0.0,0.0,0.0,0.0,0.0,0.0,0.0,0.0,0.0,0.0,0.0,0.0,0.0,0.0,0.0,0.0,0.0,0.0,0.0,0.0,0.0,0.0,0.0,0.0,0.0,0.0,0.0,0.0,0.0,0.0,0.0,0.0,0.0,0.0,0.0,0.0,0.0,0.0,0.0,0.0,0.0,0.0,0.0,0.0,0.0,0.0,0.0,0.0,0.0,0.0,0.0,0.0,0.0,0.0,0.0,0.0,0.0,0.0,0.0,0.0,0.0,0.0,0.0,0.0,0.0,0.0,0.0,0.0,0.0,0.0,0.0,0.0,0.0,0.0,0.0,0.0,0.0,0.0,0.0,0.0,0.0,0.0,0.0,0.0,0.0,0.0,0.0,0.0,0.0,1.1903,1.2426,1.308,1.294,1.1965,1.2266,1.208,0.0,0.0,0.0,0.0,0.0,0.0,0.0,0.0,0.0,0.0,0.0,0.0,0.0,0.0,0.0,0.0,0.0,0.0,0.0,0.0,0.0,0.0,0.0,0.0,0.0,0.0,0.0,0.0,0.0,0.0,0.0,0.0,0.0,0.0,0.0,0.0,0.0,0.0,0.0,0.0,0.0,0.0,0.0,0.0,0.0,0.0,0.0,0.0,0.0,0.0,0.0,0.0,0.0,0.0,0.0,0.0,0.0,0.0,0.0,0.0,0.0,0.0,0.0,0.0,0.0,0.0,0.0,0.0,0.0,0.0,0.0,0.0,0.0,0.0,0.0,0.0,0.0,0.0,0.0,0.0,0.0,0.0,0.0,0.0,0.0,0.0,0.0,0.0,0.0,0.0,0.0,0.0,0.0,0.0,0.0,0.0,0.0,0.0,0.0,0.0,0.0,0.0,0.0,0.0,0.0,0.0,0.0,0.0,1.0734,1.1248,1.2129,1.2688,1.29,1.2734,1.2865,0.0,0.0,0.0,0.0,0.0,0.0,0.0,0.0,0.0,0.0,0.0,0.0,0.0,0.0,0.0,0.0,0.0,0.0,0.0,0.0,0.0,0.0,0.0,0.0,0.0,0.0,0.0,0.0,0.0,0.0,0.0,0.0,0.0,0.0,0.0,0.0,0.0,0.0,0.0,0.0,0.0,0.0,0.0,0.0,0.0,0.0,0.0,0.0,0.0,0.0,0.0,0.0,0.0,0.0,0.0,0.0,0.0,0.0,0.0,0.0,0.0,0.0,0.0,0.0,0.0,0.0,0.0,0.0,0.0,0.0,0.0,0.0,0.0,0.0,0.0,0.0,0.0,0.0,0.0,0.0,0.0,0.0,0.0,0.0,0.0,0.0,0.0,0.0,0.0,0.0,0.0,0.0,0.0,0.0,0.0,0.0,0.0,0.0,0.0,0.0,0.0,0.0,0.0,0.0,0.0,0.0,0.0,0.0,1.2502,1.2896,1.4342,1.4817,1.4194,1.4148,1.3795,0.0,0.0,0.0,0.0,0.0,0.0,0.0,0.0,0.0,0.0,0.0,0.0,0.0,0.0,0.0,0.0,0.0,0.0,0.0,0.0,0.0,0.0,0.0,0.0,0.0,0.0,0.0,0.0,0.0,0.0,0.0,0.0,0.0,0.0,0.0,0.0,0.0,0.0,0.0,0.0,0.0,0.0,0.0,0.0,0.0,0.0,0.0,0.0,1.7371,0.0,0.0,0.0,0.0,0.0,0.0,0.0,0.0,0.0,0.0,0.0,0.0,0.0,0.0,0.0,0.0,0.0,0.0,0.0,0.0,0.0,0.0,0.0,0.0,0.0,0.0,0.0,0.0,0.0,0.0,0.0,0.0,0.0,0.0,0.0,0.0,0.0,0.0,0.0,0.0,0.0,0.0,0.0,0.0,0.0,0.0,0.0,0.0,0.0,0.0,0.0,0.0,0.0,0.0,0.0,0.0,0.0,0.0,0.0,1.3221,1.3769,1.4887,1.5324,1.5011,1.5245,1.4738,0.0,0.0,0.0,0.0,0.0,0.0,0.0,0.0,0.0,0.0,0.0,0.0,0.0,0.0,0.0,0.0,0.0,0.0,0.0,0.0,0.0,0.0,0.0,0.0,0.0,0.0,0.0,0.0,0.0,0.0,0.0,0.0,0.0,0.0,0.0,0.0,0.0,0.0,0.0,0.0,0.0,0.0,0.0,0.0,0.0,0.0,0.0,0.0,0.0,0.0,0.0,0.0,0.0,0.0,0.0,0.0,0.0,0.0,0.0,0.0,0.0,0.0,0.0,0.0,0.0,0.0,0.0,0.0,0.0,0.0,0.0,0.0,0.0,0.0,0.0,0.0,0.0,0.0,0.0,0.0,0.0,0.0,0.0,0.0,0.0,0.0,0.0,0.0,0.0,0.0,0.0,0.0,0.0,0.0,0.0,0.0,0.0,0.0,0.0,0.0,0.0,0.0,0.0,0.0,0.0,0.0,0.0,1.3317,1.3489,1.429,1.4933,1.5286,1.5328,1.5753,1.5258,1.3763,0.0,0.0,0.0,0.0,0.0,0.0,0.0,0.0,0.0,0.0,0.0,0.0,0.0,0.0,0.0,0.0,0.0,0.0,0.0,0.0,0.0,0.0,0.0,0.0,0.0,0.0,0.0,0.0,0.0,0.0,0.0,0.0,0.0,0.0,0.0,0.0,0.0,0.0,1.6862,1.7047,0.0,0.0,0.0,0.0,0.0,0.0,0.0,0.0,1.7969,0.0,0.0,0.0,0.0,0.0,0.0,0.0,0.0,0.0,0.0,0.0,0.0,0.0,0.0,0.0,0.0,0.0,0.0,0.0,0.0,0.0,0.0,0.0,0.0,0.0,0.0,0.0,0.0,0.0,0.0,0.0,0.0,0.0,0.0,0.0,0.0,0.0,0.0,0.0,0.0,0.0,0.0,0.0,0.0,0.0,0.0,0.0,0.0,0.0,0.0,0.0,0.0,0.0,0.0,0.0,0.0,1.3124,1.3441,1.4006,1.487,1.5878,1.598,1.5102,1.4708,1.4275,1.3763,0.0,0.0,0.0,0.0,0.0,0.0,0.0,0.0,0.0,0.0,0.0,0.0,0.0,0.0,0.0,0.0,0.0,0.0,0.0,0.0,0.0,0.0,0.0,0.0,0.0,0.0,0.0,0.0,0.0,0.0,0.0,0.0,0.0,0.0,0.0,0.0,0.0,0.0,0.0,1.7408,1.724,0.0,0.0,0.0,0.0,0.0,0.0,0.0,0.0,1.8023,0.0,0.0,0.0,0.0,0.0,0.0,0.0,0.0,0.0,0.0,0.0,0.0,0.0,0.0,0.0,0.0,0.0,0.0,0.0,0.0,0.0,0.0,0.0,0.0,0.0,0.0,0.0,0.0,0.0,0.0,0.0,0.0,0.0,0.0,0.0,0.0,0.0,0.0,0.0,0.0,0.0,0.0,0.0,0.0,0.0,0.0,0.0,0.0,0.0,0.0,0.0,0.0,0.0,0.0,0.0,1.4691,1.5281,1.5915,1.6587,1.7141,1.7169,1.6611,1.6041,1.5539,0.0,0.0,0.0,0.0,0.0,0.0,0.0,0.0,0.0,0.0,0.0,0.0,0.0,0.0,0.0,0.0,0.0,0.0,0.0,0.0,0.0,0.0,0.0,0.0,0.0,0.0,0.0,0.0,0.0,0.0,0.0,0.0,0.0,0.0,0.0,0.0,0.0,0.0,0.0,0.0,1.7765,1.7643,1.7574,0.0,0.0,0.0,0.0,0.0,0.0,1.8397,1.8436,0.0,0.0,0.0,0.0,0.0,0.0,0.0,0.0,0.0,0.0,0.0,0.0,0.0,0.0,0.0,0.0,0.0,0.0,0.0,0.0,0.0,0.0,0.0,0.0,0.0,0.0,0.0,0.0,0.0,0.0,0.0,0.0,0.0,0.0,0.0,0.0,0.0,0.0,0.0,0.0,0.0,0.0,0.0,0.0,0.0,0.0,0.0,0.0,0.0,0.0,0.0,0.0,0.0,0.0,0.0,1.6312,1.7016,1.7621,1.8146,1.8172,1.8172,1.8076,1.7422,1.6807,0.0,0.0,0.0,0.0,0.0,0.0,0.0,0.0,0.0,0.0,0.0,0.0,0.0,0.0,0.0,0.0,0.0,0.0,0.0,0.0,0.0,0.0,0.0,0.0,0.0,0.0,0.0,0.0,0.0,0.0,0.0,0.0,0.0,0.0,0.0,0.0,0.0,0.0,0.0,0.0,0.0,1.8052,1.811,1.7523,0.0,0.0,0.0,0.0,1.8309,1.8945,0.0,0.0,0.0,0.0,0.0,0.0,0.0,0.0,0.0,0.0,0.0,0.0,0.0,0.0,0.0,0.0,0.0,0.0,0.0,0.0,0.0,0.0,0.0,0.0,0.0,0.0,0.0,0.0,0.0,0.0,0.0,0.0,0.0,0.0,0.0,0.0,0.0,0.0,0.0,0.0,0.0,0.0,0.0,0.0,0.0,0.0,0.0,0.0,0.0,0.0,0.0,0.0,0.0,0.0,0.0,0.0,1.64,1.7158,1.7862,1.8423,1.8435,1.8352,1.8104,1.7056,1.6428,0.0,0.0,0.0,0.0,0.0,0.0,0.0,0.0,0.0,0.0,0.0,0.0,0.0,0.0,0.0,0.0,0.0,0.0,0.0,0.0,0.0,0.0,0.0,0.0,0.0,0.0,0.0,0.0,0.0,0.0,0.0,0.0,0.0,0.0,0.0,0.0,0.0,0.0,0.0,0.0,0.0,1.8183,1.8177,1.7756,1.7644,0.0,0.0,1.943,1.9622,2.0245,0.0,0.0,0.0,0.0,0.0,0.0,0.0,0.0,0.0,0.0,0.0,0.0,0.0,0.0,0.0,0.0,0.0,0.0,0.0,0.0,0.0,0.0,0.0,0.0,0.0,0.0,0.0,0.0,0.0,0.0,0.0,0.0,0.0,0.0,0.0,0.0,0.0,0.0,0.0,0.0,0.0,0.0,0.0,0.0,0.0,0.0,0.0,0.0,0.0,0.0,0.0,0.0,0.0,0.0,0.0,1.5581,1.6016,1.7014,1.734,1.6915,1.8259,1.8601,1.7789,1.7328,1.7079,0.0,0.0,0.0,0.0,0.0,0.0,0.0,0.0,0.0,0.0,0.0,0.0,0.0,0.0,0.0,0.0,0.0,0.0,0.0,0.0,0.0,0.0,0.0,0.0,0.0,0.0,0.0,0.0,0.0,0.0,0.0,0.0,0.0,0.0,0.0,0.0,0.0,0.0,0.0,0.0,0.0,0.0,1.7986,1.8,0.0,0.0,0.0,1.9304,1.9138,0.0,0.0,0.0,0.0,0.0,0.0,0.0,0.0,0.0,0.0,0.0,0.0,0.0,0.0,0.0,0.0,0.0,0.0,0.0,0.0,0.0,0.0,0.0,0.0,0.0,0.0,0.0,0.0,0.0,0.0,0.0,0.0,0.0,0.0,0.0,0.0,0.0,0.0,0.0,0.0,0.0,0.0,0.0,0.0,0.0,0.0,0.0,0.0,0.0,0.0,0.0,0.0,0.0,0.0,0.0,0.0,0.0,1.6289,1.7163,1.7286,1.6736,1.8487,1.9018,1.801,1.7903,0.0,0.0,0.0,0.0,0.0,0.0,0.0,0.0,0.0,0.0,0.0,0.0,0.0,0.0,0.0,0.0,0.0,0.0,0.0,0.0,0.0,0.0,0.0,0.0,0.0,0.0,0.0,2.0846,0.0,0.0,0.0,0.0,0.0,0.0,0.0,0.0,0.0,0.0,0.0,0.0,0.0,0.0,1.8301,1.8082,1.8398,1.8748,0.0,0.0,1.9509,1.9385,2.0527,2.1016,0.0,0.0,0.0,0.0,0.0,0.0,0.0,0.0,0.0,0.0,0.0,0.0,0.0,0.0,0.0,0.0,0.0,0.0,0.0,0.0,0.0,0.0,0.0,0.0,0.0,0.0,0.0,0.0,0.0,0.0,0.0,0.0,0.0,0.0,0.0,0.0,0.0,0.0,0.0,0.0,0.0,0.0,0.0,0.0,0.0,0.0,0.0,0.0,0.0,0.0,0.0,0.0,0.0,0.0,0.0,1.7793,1.7877,1.8367,1.9434,1.9671,1.961,1.9272,1.873,1.817,0.0,0.0,0.0,0.0,0.0,0.0,0.0,0.0,0.0,0.0,0.0,0.0,0.0,0.0,0.0,0.0,0.0,0.0,0.0,0.0,0.0,0.0,0.0,0.0,0.0,0.0,0.0,0.0,0.0,0.0,0.0,0.0,0.0,0.0,0.0,0.0,0.0,0.0,0.0,0.0,0.0,1.9656,1.8842,1.8932,1.9386,0.0,0.0,2.0374,2.1561,2.237,2.2656,2.2045,0.0,0.0,0.0,0.0,0.0,0.0,0.0,0.0,0.0,0.0,0.0,0.0,0.0,0.0,0.0,0.0,0.0,0.0,0.0,0.0,0.0,0.0,0.0,0.0,0.0,0.0,0.0,0.0,0.0,0.0,0.0,0.0,0.0,0.0,0.0,0.0,0.0,0.0,0.0,0.0,0.0,0.0,0.0,0.0,0.0,0.0,0.0,0.0,0.0,0.0,0.0,0.0,0.0,1.6338,1.6073,1.7793,1.8038,1.6759,1.9024,1.9824,1.8761,1.8913,1.8664,0.0,0.0,0.0,0.0,0.0,0.0,0.0,0.0,0.0,0.0,0.0,0.0,0.0,0.0,0.0,0.0,0.0,0.0,0.0,0.0,0.0,0.0,0.0,0.0,0.0,0.0,0.0,0.0,2.1983,2.1608,2.0183,0.0,0.0,0.0,0.0,0.0,0.0,0.0,0.0,0.0,0.0,1.9343,1.9408,1.9761,0.0,0.0,2.097,2.1197,2.1144,2.2021,2.2264,2.0995,2.0534,0.0,0.0,0.0,0.0,0.0,0.0,0.0,0.0,0.0,0.0,0.0,0.0,0.0,0.0,0.0,0.0,0.0,0.0,0.0,0.0,0.0,0.0,0.0,0.0,0.0,0.0,0.0,0.0,0.0,0.0,0.0,0.0,0.0,0.0,0.0,0.0,0.0,0.0,0.0,0.0,0.0,0.0,0.0,0.0,0.0,0.0,0.0,0.0,0.0,0.0,0.0,0.0,1.6056,1.5496,1.7173,1.7389,1.6059,1.8816,1.9932,1.9205,1.9628,1.9519,0.0,0.0,0.0,0.0,0.0,0.0,0.0,0.0,0.0,0.0,0.0,0.0,0.0,0.0,0.0,0.0,0.0,0.0,0.0,0.0,0.0,0.0,0.0,0.0,0.0,0.0,0.0,0.0,2.1803,2.1378,1.9738,0.0,0.0,0.0,0.0,0.0,0.0,0.0,0.0,0.0,0.0,1.9605,1.9793,2.0106,2.0352,2.0376,2.0782,2.1028,2.0753,2.1406,2.1585,2.056,0.0,0.0,0.0,0.0,0.0,0.0,0.0,0.0,0.0,0.0,0.0,0.0,0.0,0.0,0.0,0.0,0.0,0.0,0.0,0.0,0.0,0.0,0.0,0.0,0.0,0.0,0.0,1.428,0.0,0.0,1.5035,0.0,0.0,0.0,0.0,0.0,0.0,0.0,0.0,0.0,0.0,0.0,0.0,0.0,0.0,0.0,0.0,0.0,0.0,0.0,0.0,0.0,0.0,1.5606,1.6985,1.6031,1.6598,1.901,1.9304,1.9928,2.0969,2.1082,2.0757,2.0144,0.0,0.0,0.0,0.0,0.0,0.0,0.0,0.0,0.0,0.0,0.0,0.0,0.0,0.0,0.0,0.0,0.0,0.0,0.0,0.0,0.0,0.0,0.0,0.0,0.0,0.0,1.7802,1.8061,1.8454,0.0,0.0,0.0,0.0,0.0,0.0,0.0,0.0,0.0,0.0,2.0135,2.0794,1.9913,1.9796,1.9844,1.9717,1.9441,1.9612,2.0814,2.0821,2.0818,0.0,0.0,0.0,0.0,0.0,0.0,0.0,0.0,0.0,0.0,0.0,0.0,0.0,0.0,0.0,0.0,0.0,0.0,0.0,0.0,0.0,0.0,0.0,0.0,0.0,0.0,0.0,1.345,1.345,0.0,0.0,0.0,0.0,0.0,0.0,0.0,0.0,0.0,0.0,0.0,1.431,1.3845,0.0,0.0,0.0,0.0,0.0,0.0,0.0,0.0,0.0,0.0,0.0,0.0,1.6714,1.6342,1.795,1.8676,1.8406,2.0334,2.145,2.171,2.1683,2.1323,2.0548,0.0,0.0,0.0,0.0,0.0,0.0,0.0,0.0,0.0,0.0,0.0,0.0,0.0,0.0,0.0,0.0,0.0,0.0,0.0,0.0,0.0,0.0,0.0,0.0,0.0,2.0463,0.0,0.0,0.0,0.0,0.0,0.0,0.0,0.0,0.0,0.0,0.0,1.8975,1.94,1.9345,1.9389,1.9737,1.9945,2.0367,0.0,0.0,0.0,0.0,0.0,0.0,0.0,0.0,0.0,0.0,0.0,0.0,0.0,0.0,2.0971,2.0166,2.0972,2.183,2.2041,0.0,0.0,0.0,0.0,0.0,0.0,0.0,0.0,0.0,0.0,0.0,0.0,0.0,0.0,1.3267,0.0,1.3492,0.0,0.0,0.0,0.0,0.0,0.0,0.0,0.0,1.3214,1.3235,1.3962,1.3489,1.3584,0.0,1.4336,1.4479,0.0,0.0,0.0,0.0,0.0,0.0,0.0,0.0,1.6536,1.5337,1.7198,1.7931,1.7403,1.9701,2.1175,2.1515,2.2051,2.205,2.1489,2.0494,1.9706,0.0,0.0,0.0,0.0,0.0,0.0,0.0,0.0,0.0,0.0,0.0,0.0,0.0,0.0,0.0,0.0,0.0,0.0,0.0,0.0,0.0,0.0,0.0,2.0755,0.0,0.0,0.0,0.0,0.0,0.0,0.0,0.0,0.0,1.921,1.9444,1.9784,2.0208,2.0003,1.9798,1.9796,0.0,0.0,0.0,0.0,0.0,0.0,0.0,2.0325,2.0011,2.0174,2.0638,2.1548,2.2015,2.2384,2.2639,0.0,0.0,2.1657,2.2112,2.2724,2.2965,2.2831,2.2736,2.2946,2.2831,2.2736,0.0,0.0,0.0,0.0,0.0,0.0,0.0,0.0,1.3388,1.3742,0.0,1.378,0.0,0.0,0.0,0.0,1.4705,1.404,0.0,0.0,1.3561,1.3181,1.2865,1.2856,1.2856,1.2807,1.2556,1.2954,1.4031,1.5087,0.0,0.0,0.0,0.0,0.0,0.0,1.5131,1.4122,1.4113,1.475,1.6221,1.7749,1.9217,2.0686,2.2125,2.288,2.284,2.175,2.1149,2.1082,1.9225,0.0,0.0,0.0,0.0,0.0,0.0,0.0,0.0,0.0,0.0,0.0,0.0,0.0,0.0,0.0,0.0,0.0,0.0,0.0,0.0,1.9825,0.0,0.0,0.0,0.0,0.0,0.0,0.0,0.0,0.0,0.0,1.994,2.0574,2.1159,2.113,0.0,0.0,0.0,0.0,2.0613,1.9108,1.8855,1.8975,1.9294,1.9806,2.0503,2.1454,0.0,0.0,2.2988,2.2393,2.2041,2.224,2.3428,2.4024,2.3263,2.3175,2.3219,2.3203,2.3295,2.3152,2.3152,2.339,2.334,0.9768,0.0,0.0,0.0,0.0,1.1263,1.1908,1.2235,1.2884,1.308,1.2966,1.3097,0.0,0.0,0.0,0.0,0.0,0.0,1.2961,1.3359,1.3243,1.3254,1.3382,1.334,1.3374,1.3374,1.3277,1.3456,1.3915,1.4259,1.4595,1.4906,0.0,0.0,0.0,0.0,1.4506,1.4599,1.5158,1.6221,1.7714,1.9193,2.0698,2.2194,2.2654,2.2893,2.2893,2.2572,2.2104,2.1475,2.0886,0.0,0.0,0.0,0.0,0.0,0.0,0.0,0.0,0.0,0.0,0.0,0.0,0.0,0.0,0.0,0.0,0.0,0.0,0.0,1.9823,2.0411,2.0311,0.0,0.0,0.0,0.0,0.0,0.0,0.0,0.0,0.0,2.151,2.0734,2.0206,0.0,0.0,1.9433,1.9137,1.9901,2.0647,2.1126,2.1185,0.0,2.2186,2.1921,2.17,2.198,2.2941,2.3702,2.3765,2.4363,2.4889,2.4938,2.5273,2.5493,2.5301,2.5466,2.5595,2.5642,2.5849,2.5897,2.5706,2.5802,2.5977,1.0633,1.0439,1.0356,1.0464,1.0868,1.1611,1.2202,1.2726,1.306,1.3107,1.2954,1.3131,1.2905,1.2304,1.2304,0.0,0.0,0.0,1.2905,1.3409,1.3417,1.353,1.3698,1.3742,1.3706,1.3714,1.3714,1.3798,1.3896,1.3685,1.3788,1.4171,0.0,0.0,1.3891,1.4157,1.4252,1.4156,1.4832,1.569,1.6599,1.867,2.0768,2.2791,2.2893,2.2893,2.2893,2.2893,2.2653,2.2131,2.19,2.1384,0.0,0.0,0.0,0.0,0.0,0.0,0.0,0.0,0.0,0.0,0.0,1.9901,0.0,0.0,0.0,0.0,2.0776,2.0748,2.0748,2.0896,0.0,0.0,0.0,0.0,0.0,0.0,0.0,1.993,2.1218,2.2184,2.2169,2.1364,2.0895,2.1261,2.0764,2.034,2.015,0.0,2.1686,2.2125,2.2184,2.2374,2.2945,2.2871,2.2871,2.3298,2.3939,2.4485,2.4515,2.5285,2.588,2.5895,2.6011,2.6145,2.6313,2.6532,2.6633,2.6499,2.6633,2.6666,2.6499,2.6767,2.7,1.1511,1.1406,1.0412,1.0465,1.1294,1.1858,1.2493,1.3177,1.3689,1.362,1.3206,1.3677,1.336,1.2442,1.2434,0.0,1.3157,1.3157,1.3425,1.3896,1.3904,1.3904,1.3904,1.3896,1.3904,1.3896,1.3904,1.3904,1.388,1.3409,1.3133,1.3126,1.4147,1.3866,1.2488,1.3846,1.4103,1.3134,1.3614,1.3926,1.411,1.7022,1.9889,2.2619,2.2825,2.2893,2.2893,2.2893,2.2893,2.2867,2.2448,2.2166,2.2121,0.0,0.0,0.0,0.0,0.0,0.0,0.0,0.0,0.0,0.0,0.0,0.0,0.0,0.0,0.0,2.2228,0.0,2.2331,2.1481,0.0,0.0,0.0,2.1189,2.2111,2.2287,2.2302,2.2198,0.0,0.0,2.2331,2.2301,2.2652,2.3588,2.3588,2.3195,2.2301,2.2945,2.3325,2.2551,2.2477,2.2507,2.2784,2.3281,2.4001,2.4763,2.51,2.5042,2.5061,2.5292,2.5524,2.5558,2.5809,2.6112,2.6499,2.6499,2.6465,2.613,2.6164,2.6231,2.6231,2.6532,2.68,1.142,1.1646,1.136,1.1789,1.2678,1.3188,1.3549,1.3697,1.3844,1.3823,1.3717,1.3847,1.3758,1.3522,1.3522,1.3595,1.3709,1.3709,1.3782,1.3896,1.3904,1.3904,1.3904,1.3904,1.3904,1.3904,1.3904,1.3904,1.3896,1.3774,1.3498,1.3142,1.3361,1.3087,1.2328,1.2713,1.2979,1.3092,1.3222,1.4035,1.5611,1.853,2.0421,2.1113,2.2297,2.2893,2.2893,2.2893,2.2893,2.2893,2.3032,2.2863,2.2433,2.1702,0.0,0.0,0.0,0.0,0.0,0.0,0.0,0.0,0.0,2.0413,1.9708,0.0,2.0795,0.0,2.2403,2.3267,2.3252,2.3047,0.0,0.0,2.1979,2.192,2.2199,2.2828,2.2988,2.2257,2.2813,2.3267,2.3267,2.3252,2.365,2.4573,2.3474,2.2432,2.2228,2.3239,2.3896,2.3749,2.4232,2.4696,2.4638,2.4686,2.4807,2.5056,2.51,2.51,2.51,2.5153,2.5221,2.5221,2.5255,2.539,2.5506,2.5491,2.5607,2.5727,2.6365,2.6867,2.6633,2.6833,2.7067,1.2384,1.2568,1.2813,1.3182,1.3698,1.3563,1.3689,1.3896,1.3904,1.3904,1.3904,1.3904,1.3904,1.3904,1.3904,1.3904,1.3904,1.3904,1.3904,1.3904,1.3904,1.3945,1.4026,1.4026,1.4066,1.414,1.4103,1.414,1.414,1.414,1.3949,1.3693,1.3685,1.3425,1.2872,1.2507,1.245,1.2735,1.3635,1.5075,1.7097,1.9402,2.0747,2.1045,2.187,2.2117,2.171,2.1683,2.1762,2.1911,2.2235,2.2336,2.2103,2.1545,2.1061,0.0,0.0,0.0,0.0,0.0,0.0,0.0,0.0,0.0,0.0,0.0,2.1379,2.1379,2.2725,2.3427,2.3003,2.2959,2.2915,2.2828,2.2844,2.302,2.3444,2.3957,2.4075,2.3562,2.3957,2.4247,2.428,2.4379,2.4642,2.5198,2.4481,2.3896,2.3925,2.4408,2.4818,2.514,2.5491,2.5705,2.5705,2.5593,2.5476,2.5491,2.5491,2.5476,2.5491,2.5525,2.5491,2.5491,2.5511,2.556,2.5731,2.5766,2.5869,2.6231,2.6743,2.6873,2.6326,2.6365,2.6499,1.3584,1.3673,1.4146,1.4358,1.4354,1.3579,1.3547,1.3969,1.3969,1.3969,1.3969,1.3969,1.3969,1.3969,1.3969,1.3969,1.3969,1.3969,1.3969,1.3969,1.3993,1.4091,1.4245,1.4306,1.4359,1.446,1.446,1.446,1.446,1.446,1.4427,1.4363,1.4338,1.4063,1.3528,1.2775,1.2361,1.2345,1.4253,1.6161,1.7959,1.9496,2.0538,2.1127,2.1312,2.106,2.0237,2.021,2.0348,2.0621,2.0983,2.131,2.1681,2.1177,2.0913,0.0,2.0179,0.0,0.0,0.0,0.0,0.0,0.0,0.0,0.0,2.2184,2.2258,2.2345,2.3106,2.331,2.2653,2.258,2.2932,2.3735,2.3837,2.4203,2.5086,2.5217,2.5217,2.5217,2.5217,2.5217,2.5217,2.5432,2.5559,2.5608,2.569,2.5827,2.6047,2.5778,2.5813,2.6442,2.6231,2.6061,2.5968,2.5988,2.5939,2.5988,2.5974,2.6018,2.5974,2.5988,2.6003,2.5988,2.5974,2.6093,2.6488,2.6508,2.6599,2.6867,2.6937,2.6701,2.6194,2.6092,2.5896,1.3541,1.3866,1.3934,1.4136,1.4387,1.4216,1.4229,1.4326,1.429,1.429,1.4298,1.4298,1.4335,1.4298,1.4298,1.4298,1.4298,1.4298,1.4298,1.4298,1.4489,1.457,1.4619,1.4749,1.4868,1.4862,1.4862,1.4901,1.4901,1.4901,1.4643,1.4229,1.4075,1.3734,1.3206,0.0,0.0,0.0,1.4261,1.5323,1.5748,1.7541,1.8563,1.8716,1.9853,0.0,2.021,2.021,2.0227,2.0288,2.0651,0.0,0.0,0.0,0.0,0.0,0.0,0.0,0.0,0.0,0.0,0.0,2.2008,2.2023,2.2154,2.2184,2.2506,2.3252,2.3486,2.3852,2.4485,2.4543,2.4719,2.5062,2.512,2.5344,2.5783,2.5827,2.5827,2.5827,2.5827,2.5827,2.5813,2.5851,2.588,2.5895,2.5974,2.6237,2.672,2.6486,2.6369,2.6486,2.6457,2.631,2.6026,2.6047,2.6076,2.6018,2.6018,2.6032,2.6012,2.6047,2.6032,2.6047,2.6018,2.6032,2.6117,2.6123,2.6272,2.6628,2.6453,2.6429,2.7158,2.73,2.7354,1.4507,1.4699,1.4699,1.4814,0.0,1.4832,1.4792,1.4776,1.4508,1.4395,1.4395,1.4395,1.4395,1.4395,1.4395,1.4395,1.4395,1.4492,1.4533,1.4578,1.4757,1.4887,1.4938,1.5057,1.5147,1.5236,1.5236,1.5236,1.5236,1.5244,1.5106,1.4838,1.4749,1.4562,1.4294,1.4205,1.3779,1.31,1.4676,1.563,1.5971,1.8325,1.943,1.9047,2.0496,0.0,0.0,0.0,0.0,0.0,0.0,0.0,0.0,2.2223,0.0,2.2857,2.2447,2.2419,2.2842,2.2886,2.3091,2.3591,2.3749,2.3632,2.3164,2.3559,2.4101,2.4715,2.4788,2.4993,2.5461,2.5535,2.5593,2.5719,2.5734,2.5807,2.5988,2.6018,2.6018,2.6018,2.6018,2.6018,2.6018,2.6164,2.6252,2.6266,2.6398,2.6617,2.6881,2.6705,2.6544,2.6705,2.6749,2.6691,2.6544,2.65,2.6486,2.65,2.65,2.65,2.65,2.65,2.65,2.65,2.65,2.65,2.65,2.65,2.6572,2.6715,2.6643,2.6715,2.7433,2.7241,2.6928,1.5512,1.5512,1.5512,1.5512,1.5504,1.531,1.5245,1.5213,1.4703,0.0,0.0,1.4529,1.4492,1.4529,1.4525,1.4533,1.4549,1.4765,1.4846,1.4862,1.5063,1.5187,1.5333,1.5327,1.5416,1.5561,1.561,1.557,1.561,1.561,1.557,1.5601,1.5577,1.5545,1.552,1.5512,1.497,1.4054,1.5274,1.6183,1.6672,1.9399,2.0553,1.9828,2.1337,2.1811,2.1136,2.1109,2.1204,2.1443,2.179,2.2139,2.235,2.2694,2.2883,2.2871,2.2857,2.3208,2.3969,2.4027,2.4364,2.5203,2.5461,2.5223,2.4393,2.5125,2.569,2.5988,2.6018,2.6003,2.6018,2.6018,2.6012,2.6055,2.607,2.612,2.6143,2.6158,2.6222,2.6193,2.6222,2.6193,2.6222,2.6442,2.6617,2.6691,2.6896,2.7115,2.71,2.6866,2.6691,2.691,2.6954,2.6969,2.6983,2.6954,2.6998,2.6939,2.6954,2.6998,2.6998,2.6998,2.6998,2.6939,2.6983,2.6969,2.6983,2.6954,2.6998,2.6998,2.6998,2.7093,2.7339,2.681,2.6343,1.552,1.5512,1.5512,1.5512,1.5512,1.5488,1.544,1.5408,1.5065,1.4933,1.4895,1.4933,1.4925,1.4941,1.5019,1.5083,1.51,1.5278,1.5398,1.5375,1.5577,1.5715,1.5707,1.5821,1.5902,1.5934,1.5926,1.5934,1.5934,1.5926,1.5934,1.591,1.5821,1.5666,1.5528,1.5512,1.5391,1.5244,1.5854,1.6205,1.6315,1.8282,1.9291,1.9194,2.0566,2.1243,2.1091,2.1117,2.1109,2.1172,2.152,2.2244,2.3328,2.3761,2.4423,2.5369,2.5442,2.5535,2.5652,2.5646,2.574,2.5871,2.593,2.5769,2.5354,2.5676,2.5924,2.6018,2.6047,2.6018,2.6018,2.6047,2.6164,2.6413,2.6442,2.6544,2.6808,2.6852,2.6852,2.6852,2.6852,2.6852,2.6866,2.691,2.7042,2.7261,2.7401,2.7495,2.7575,2.7305,2.6969,2.6983,2.6998,2.6998,2.7056,2.6998,2.7042,2.6998,2.7027,2.7071,2.7071,2.7071,2.7071,2.7013,2.7056,2.7042,2.7042,2.6998,2.7042,2.7042,2.7027,2.7049,2.7144,2.6939,2.6989,1.5764,1.5764,1.5764,1.5764,1.5764,1.5764,1.5764,1.5748,1.5626,1.5439,1.5268,1.526,1.5357,1.5446,1.5488,1.5585,1.5642,1.5821,1.5943,1.5959,1.6129,1.6252,1.6219,1.63,1.6332,1.6332,1.6332,1.6332,1.6332,1.6341,1.6341,1.6324,1.6154,1.6024,1.5943,1.5804,1.5764,1.5748,1.5786,1.5816,1.5885,1.8416,1.9818,1.9854,2.2147,2.3029,2.212,2.2994,2.3029,2.212,2.3346,2.4292,2.4668,2.5087,2.5556,2.6157,2.6048,2.6053,2.6281,2.6105,2.6055,2.6266,2.6442,2.6559,2.6588,2.6362,2.6354,2.653,2.6544,2.6544,2.6544,2.6544,2.6676,2.6998,2.7027,2.7159,2.74,2.7473,2.7473,2.7473,2.7473,2.7473,2.751,2.751,2.7554,2.7715,2.773,2.7765,2.7897,2.7678,2.7473,2.7473,2.751,2.751,2.7458,2.7473,2.7473,2.751,2.7473,2.751,2.7473,2.7473,2.7458,2.751,2.7473,2.751,2.7495,2.751,2.7437,2.7276,2.7247,2.724,2.7056,2.6998,2.7144,1.6153,1.6185,1.6185,1.6185,1.6185,1.6137,1.6128,1.612,1.612,1.5966,1.5764,1.5675,1.5707,1.5829,1.5869,1.5975,1.6072,1.6284,1.6365,1.6381,1.6511,1.6584,1.6584,1.6584,1.6584,1.6584,1.6584,1.6584,1.6584,1.6584,1.6584,1.6568,1.6438,1.6365,1.6365,1.6193,1.612,1.6146,1.6293,1.6311,1.6307,1.9085,2.0743,2.1318,2.3957,2.4879,2.3663,2.4802,2.4917,2.3817,2.53,2.6171,2.6026,2.6388,2.6611,2.6688,2.6495,2.6496,2.6786,2.6567,2.6559,2.6808,2.7056,2.732,2.751,2.713,2.6888,2.7159,2.7203,2.7203,2.7203,2.7203,2.7305,2.7554,2.7583,2.7656,2.7853,2.7911,2.7911,2.7911,2.7911,2.7897,2.7911,2.7911,2.7926,2.7999,2.8072,2.8131,2.8131,2.8131,2.8116,2.8087,2.8014,2.7882,2.7911,2.7882,2.7868,2.7911,2.7882,2.7853,2.7853,2.7882,2.7897,2.7853,2.7882,2.7853,2.7882,2.7882,2.778,2.7627,2.7583,2.751,2.732,2.7261,2.7144,1.6582,1.672,1.672,1.6736,1.6712,1.6609,1.6544,1.6544,1.6535,1.6519,1.6454,1.6104,1.5983,1.5999,1.6186,1.6267,1.6308,1.6479,1.656,1.6602,1.6619,1.6584,1.66,1.6592,1.6584,1.6592,1.6643,1.6617,1.6617,1.66,1.6592,1.6584,1.656,1.6552,1.6552,1.6535,1.6519,1.657,1.8115,1.8749,1.8426,1.9904,2.1507,2.3122,2.4662,2.5428,2.5123,2.5441,2.5594,2.581,2.6281,2.6837,2.7164,2.7528,2.774,2.7748,2.7719,2.7742,2.7765,2.7751,2.7707,2.778,2.778,2.7824,2.7882,2.7824,2.778,2.7824,2.7824,2.778,2.7824,2.7794,2.7794,2.7853,2.7868,2.7882,2.7941,2.7911,2.7911,2.7911,2.7984,2.7911,2.7984,2.7984,2.8072,2.8321,2.8511,2.8695,2.8695,2.8695,2.871,2.8651,2.8321,2.7999,2.797,2.7926,2.7999,2.797,2.7941,2.7984,2.8014,2.7999,2.7926,2.8087,2.7984,2.7999,2.7984,2.7911,2.7941,2.7897,2.7853,2.7824,2.7809,2.7765,2.7575,1.6801,1.6963,1.6963,1.7071,1.7145,1.7088,1.712,1.7201,1.721,1.721,1.7149,1.7011,1.6777,1.6493,1.6558,1.6639,1.6779,1.686,1.6893,1.6893,1.6893,1.6893,1.6893,1.6893,1.6893,1.6893,1.6893,1.6893,1.6893,1.6893,1.6893,1.6877,1.6795,1.6738,1.6687,1.6633,1.6584,1.6627,1.7332,1.8091,1.9129,2.1486,2.3072,2.3738,2.5178,2.5635,2.5062,2.5817,2.6142,2.5648,2.6582,2.7294,2.7502,2.7642,2.785,2.812,2.8191,2.8116,2.7926,2.7911,2.7999,2.8174,2.8204,2.8277,2.8491,2.8505,2.8505,2.8423,2.8131,2.7911,2.7911,2.7911,2.7947,2.8145,2.8204,2.8262,2.8491,2.8505,2.8505,2.8505,2.8505,2.8505,2.8505,2.8505,2.8564,2.8695,2.8827,2.8886,2.8886,2.8886,2.8886,2.8895,2.8651,2.8534,2.8491,2.8467,2.8491,2.8467,2.8467,2.8467,2.8476,2.8467,2.8467,2.8491,2.8461,2.8423,2.8534,2.8491,2.8476,2.8277,2.7999,2.7911,2.7911,2.7911,2.7765,1.7125,1.7315,1.7331,1.7413,1.7526,1.7478,1.7526,1.7587,1.7595,1.7595,1.7595,1.7595,1.7392,1.706,1.7028,1.7101,1.7242,1.7258,1.7226,1.7193,1.7185,1.7161,1.712,1.7112,1.7112,1.7112,1.7104,1.7104,1.7112,1.7112,1.7112,1.7088,1.6939,1.6882,1.6866,1.6779,1.673,1.6816,1.7194,1.81,1.9504,2.2148,2.3756,2.4057,2.52,2.5615,2.5113,2.6255,2.6546,2.5714,2.6794,2.7569,2.779,2.779,2.8001,2.8417,2.8502,2.8423,2.8189,2.8174,2.8277,2.8481,2.8525,2.8651,2.8842,2.8886,2.8886,2.8842,2.8476,2.8189,2.8174,2.8174,2.8277,2.8496,2.8525,2.8651,2.8842,2.8886,2.8871,2.8886,2.8827,2.8886,2.8886,2.8871,2.8856,2.8871,2.8886,2.8886,2.8886,2.8886,2.8886,2.8886,2.8886,2.8871,2.8886,2.8842,2.8886,2.8886,2.8842,2.8827,2.8886,2.8886,2.8886,2.871,2.8842,2.8871,2.8769,2.8798,2.8827,2.8608,2.8335,2.816,2.8286,2.8189,2.8145,1.7668,1.7867,1.7884,1.7867,1.7875,1.7668,1.7595,1.7635,1.7619,1.7611,1.7619,1.7619,1.7587,1.7554,1.7546,1.7562,1.7562,1.7546,1.7465,1.7388,1.7372,1.7283,1.712,1.7112,1.712,1.7161,1.7161,1.7153,1.7136,1.7128,1.7112,1.712,1.712,1.7068,1.7112,1.7104,1.708,1.7203,1.8531,1.9491,1.9528,2.1227,2.283,2.404,2.4499,2.5115,2.6264,2.668,2.672,2.6848,2.6861,2.7321,2.8108,2.8279,2.8475,2.8705,2.8847,2.8817,2.8735,2.8774,2.8842,2.8871,2.89,2.89,2.8973,2.8988,2.8988,2.8915,2.8915,2.8856,2.8842,2.8769,2.8783,2.8827,2.8856,2.8871,2.8886,2.8886,2.8886,2.8886,2.8886,2.8886,2.8886,2.8886,2.8886,2.8886,2.8886,2.8886,2.8886,2.8886,2.8886,2.8886,2.8886,2.8886,2.8886,2.8886,2.8886,2.8886,2.8886,2.8886,2.8886,2.8886,2.8886,2.8886,2.8886,2.8886,2.8886,2.8886,2.8886,2.8798,2.8783,2.871,2.8608,2.8769,2.871,1.7924,1.8079,1.8087,1.8079,1.8079,1.8014,1.7981,1.7981,1.7981,1.7981,1.7981,1.7981,1.7981,1.7981,1.7981,1.7851,1.7611,1.7595,1.7562,1.7506,1.7551,1.751,1.7461,1.7408,1.7408,1.7408,1.7408,1.7408,1.7408,1.7408,1.7408,1.7408,1.7408,1.7408,1.74,1.7453,1.7404,1.7343,1.8027,1.8154,1.8026,1.86,1.9765,2.1468,2.2335,2.3124,2.3951,2.4279,2.4559,2.4881,2.5166,2.6018,2.7431,2.8702,2.8722,2.7822,2.8601,2.8633,2.7597,2.8486,2.9193,2.9262,2.9437,2.9525,2.9555,2.9555,2.9555,2.954,2.95,2.9555,2.9427,2.9149,2.8886,2.8886,2.89,2.8915,2.8886,2.8886,2.8886,2.8886,2.8886,2.8886,2.893,2.89,2.8886,2.8886,2.89,2.89,2.89,2.89,2.8886,2.8886,2.8886,2.8886,2.8886,2.8886,2.8886,2.8886,2.8886,2.8886,2.8886,2.8886,2.8886,2.8886,2.8886,2.8886,2.8886,2.8886,2.8886,2.8886,2.8886,2.8886,2.8886,2.8886,2.8842,1.807,1.8168,1.8176,1.8176,1.8176,1.8176,1.8176,1.8176,1.8176,1.8176,1.8176,1.8176,1.8176,1.8176,1.8176,1.8054,1.7781,1.7765,1.7741,1.7729,1.7684,1.7651,1.7603,1.7595,1.7595,1.7595,1.7595,1.7595,1.7595,1.7595,1.7595,1.7595,1.7595,1.7595,1.7595,1.7595,1.753,1.7486,1.7469,1.7404,1.7291,1.7238,1.8196,1.9806,2.0335,2.1049,2.2208,2.2657,2.2863,2.3098,2.3377,2.4234,2.577,2.7255,2.75,2.6422,2.7686,2.8097,2.7093,2.8443,2.9569,2.9584,2.976,2.9906,2.9906,2.9906,2.9906,2.9906,2.9906,2.9906,2.9818,2.9496,2.9247,2.9247,2.9247,2.9208,2.9208,2.9208,2.9222,2.9276,2.9291,2.9222,2.9193,2.9262,2.9262,2.9247,2.9134,2.9047,2.9047,2.8944,2.8886,2.8886,2.8886,2.8886,2.8886,2.8886,2.8886,2.8886,2.8886,2.8886,2.8886,2.8886,2.8886,2.8886,2.8886,2.8886,2.8886,2.8886,2.8886,2.8886,2.8886,2.8886,2.8886,2.8886,2.8856,1.8168,1.8176,1.8176,1.8176,1.8176,1.8176,1.8176,1.8176,1.8176,1.8176,1.8176,1.8176,1.8176,1.8176,1.8176,1.816,1.8127,1.8119,1.8046,1.7924,1.7916,1.7835,1.7651,1.766,1.766,1.7651,1.7619,1.7619,1.7643,1.7651,1.7651,1.7627,1.7651,1.7668,1.7619,1.7651,1.7627,1.7603,1.7603,1.7587,1.764,1.7735,1.8701,2.0127,1.9071,1.9584,2.2161,2.2076,2.1895,2.1882,2.1766,2.2194,2.3268,2.4566,2.4724,2.5042,2.6303,2.7174,2.731,2.8839,2.9906,2.9921,2.9936,3.0009,3.0038,3.0009,3.0009,3.0024,3.0009,2.9965,2.9994,2.9936,2.9877,2.9877,2.9789,2.9789,2.9818,2.9862,2.9877,2.9833,2.9789,2.9877,2.9877,2.9789,2.976,2.9731,2.9584,2.9423,2.9408,2.9193,2.8973,2.8915,2.8959,2.9003,2.8944,2.8886,2.8886,2.8886,2.8886,2.8886,2.8886,2.8886,2.8886,2.8886,2.8886,2.8886,2.8886,2.8886,2.8886,2.8886,2.8886,2.8886,2.8886,2.8886,2.8886,1.8176,1.8176,1.8176,1.8176,1.8176,1.8176,1.8176,1.8176,1.8176,1.8176,1.8176,1.8176,1.8176,1.8176,1.8176,1.8176,1.8176,1.8176,1.8144,1.8095,1.8087,1.8062,1.8014,1.8005,1.8005,1.8005,1.8005,1.8005,1.8005,1.7997,1.8005,1.8014,1.8005,1.8014,1.7989,1.8005,1.7957,1.7797,1.7781,1.7732,1.7792,1.8942,1.9968,2.0577,2.118,2.2169,2.2911,2.0593,1.9986,2.1316,2.021,2.033,2.2364,2.5246,2.6209,2.5367,2.7769,2.8631,2.7649,2.908,3.0229,3.0273,3.0393,3.051,3.0525,3.051,3.0495,3.051,3.0525,3.0525,3.0525,3.0525,3.0334,2.995,2.9906,2.9936,2.9965,2.9936,2.9906,2.9906,2.9906,2.9906,2.9906,2.9921,2.9965,2.995,2.9833,2.976,2.9731,2.9628,2.9456,2.9295,2.9251,2.9164,2.9105,2.9076,2.9047,2.8988,2.893,2.89,2.8886,2.8886,2.8886,2.8886,2.8886,2.8886,2.8886,2.8886,2.8886,2.8886,2.8886,2.8886,2.8886,2.8886,2.8886,1.8176,1.8176,1.8176,1.8176,1.8176,1.8176,1.8176,1.8176,1.8176,1.8176,1.8176,1.8176,1.8176,1.8176,1.8176,1.8176,1.8176,1.8176,1.8176,1.8176,1.8176,1.8176,1.8176,1.8176,1.8176,1.8176,1.8176,1.8176,1.8176,1.8176,1.8176,1.8176,1.8176,1.8168,1.8176,1.8176,1.8111,1.8022,1.8014,1.7957,1.8088,1.906,2.0052,2.0715,2.119,2.213,2.3038,1.981,1.877,2.0452,2.0053,2.0477,2.2198,2.5111,2.6529,2.6138,2.7607,2.8883,2.7974,2.9461,3.0566,3.0568,3.0715,3.0761,3.0776,3.0776,3.0776,3.0776,3.0761,3.0776,3.0776,3.0776,3.0627,3.029,3.0246,3.0217,3.0217,3.0217,3.0232,3.0302,3.0246,3.0217,3.0217,3.0217,3.0217,3.0217,3.0155,3.0082,3.0053,2.9965,2.9789,2.9657,2.9613,2.9496,2.9325,2.9266,2.9222,2.9105,2.8988,2.893,2.8886,2.8886,2.8886,2.8886,2.8886,2.8886,2.8886,2.8886,2.8886,2.8886,2.8886,2.8886,2.8886,2.8886,2.8886,1.8176,1.8176,1.8176,1.8176,1.8176,1.8176,1.8176,1.8176,1.8176,1.8176,1.8176,1.8176,1.8176,1.8176,1.8176,1.8176,1.8176,1.8176,1.8176,1.8176,1.8176,1.8176,1.8176,1.8176,1.8176,1.8176,1.8176,1.8176,1.8176,1.8176,1.8176,1.8176,1.8176,1.8176,1.8176,1.8176,1.8168,1.8152,1.8206,1.8152,1.8228,1.8562,1.9343,2.0935,1.9923,2.06,2.2649,2.0187,1.886,2.0469,2.1387,2.222,2.2835,2.4479,2.5982,2.6013,2.7389,2.8472,2.8753,2.9971,3.092,3.0934,3.0964,3.0876,3.0964,3.1007,3.1007,3.0993,3.0936,3.0878,3.0863,3.0849,3.0846,3.0776,3.07,3.0673,3.0746,3.0773,3.07,3.0744,3.0761,3.0761,3.0729,3.0729,3.0744,3.07,3.051,3.0448,3.0375,3.0217,3.0024,2.995,2.9921,2.9804,2.9657,2.9584,2.9555,2.9467,2.9291,2.912,2.8944,2.89,2.8886,2.8886,2.8886,2.8886,2.8886,2.8886,2.8886,2.8886,2.8886,2.8886,2.8886,2.8886,2.8886,1.8176,1.8176,1.8176,1.8176,1.8176,1.8176,1.8176,1.8176,1.8176,1.8176,1.8176,1.8176,1.8176,1.8176,1.8176,1.8176,1.8176,1.8176,1.8176,1.8176,1.8176,1.8176,1.8176,1.8176,1.8176,1.8176,1.8176,1.8176,1.8176,1.8176,1.8176,1.8176,1.8176,1.8176,1.8176,1.8176,1.8176,1.8176,1.8176,1.8176,1.8409,1.9555,2.052,2.1019,2.1699,2.2541,2.3638,2.1539,2.0381,2.1214,2.3721,2.491,2.481,2.6704,2.7952,2.8353,2.964,3.0781,3.0823,3.1207,3.1477,3.1534,3.1476,3.1534,3.1534,3.1534,3.1534,3.1534,3.1534,3.1432,3.1242,3.1183,3.1095,3.0819,3.0849,3.0819,3.0776,3.0776,3.0776,3.0776,3.0776,3.0776,3.0776,3.0776,3.0776,3.0761,3.0703,3.0656,3.0598,3.0583,3.0393,3.0302,3.0229,3.0097,2.998,2.9906,2.9848,2.9789,2.9643,2.9437,2.9164,2.893,2.8915,2.8886,2.8886,2.8886,2.8886,2.8886,2.8886,2.8886,2.8886,2.8886,2.8886,2.8886,2.8886,1.8176,1.8176,1.8176,1.8176,1.8176,1.8176,1.8176,1.8176,1.8176,1.8176,1.8176,1.8176,1.8176,1.8176,1.8176,1.8176,1.8176,1.8176,1.8176,1.8176,1.8176,1.8176,1.8176,1.8176,1.8176,1.8176,1.8176,1.8176,1.8176,1.8176,1.8176,1.8176,1.8176,1.8176,1.8176,1.8176,1.8176,1.8176,1.8176,1.8176,1.8316,1.9276,1.9694,2.001,2.1075,2.1573,2.1435,2.1342,2.1529,2.2142,2.3592,2.4953,2.6082,2.7872,2.9339,3.0118,3.1267,3.1755,3.1798,3.1798,3.1798,3.1798,3.1798,3.1798,3.1783,3.1798,3.1798,3.1768,3.1798,3.171,3.1578,3.152,3.1432,3.13,3.1242,3.1068,3.0876,3.0776,3.0776,3.0776,3.0776,3.0776,3.0776,3.0776,3.0776,3.0776,3.0776,3.0746,3.0746,3.0776,3.0788,3.0598,3.051,3.0407,3.0349,3.0305,3.0199,3.0141,2.998,2.9774,2.9467,2.9159,2.9071,2.9017,2.8944,2.8915,2.8973,2.8959,2.8886,2.8886,2.8886,2.8886,2.8886,2.8886,2.8886,1.8176,1.8176,1.8176,1.8176,1.8176,1.8176,1.8176,1.8176,1.8176,1.8176,1.8176,1.8176,1.8176,1.8176,1.8176,1.8176,1.8176,1.8176,1.8176,1.8176,1.8176,1.8176,1.8176,1.8176,1.8176,1.8176,1.8176,1.8176,1.8176,1.8176,1.8176,1.8176,1.8176,1.8176,1.8176,1.8176,1.8176,1.8176,1.8176,1.8176,1.8176,1.8447,1.8541,1.8634,1.868,1.882,1.9184,2.0094,2.1452,2.2192,2.2348,2.4091,2.63,2.7863,2.9112,3.0488,3.0935,3.1455,3.1627,3.1685,3.1944,3.1988,3.1959,3.19,3.1988,3.2017,3.2017,3.2017,3.19,3.1929,3.1856,3.1827,3.1739,3.1681,3.1739,3.149,3.1095,3.0905,3.0876,3.0861,3.0819,3.0776,3.0776,3.0776,3.0776,3.0776,3.0776,3.0776,3.0776,3.0776,3.0776,3.0773,3.0744,3.0746,3.0717,3.0717,3.0583,3.0437,3.0302,3.0082,2.9804,2.9525,2.9335,2.9247,2.932,2.9291,2.9178,2.912,2.9017,2.8944,2.8988,2.8944,2.8886,2.8886,2.8886,1.8176,1.8176,1.8176,1.8176,1.8176,1.8176,1.8176,1.8176,1.8176,1.8176,1.8176,1.8176,1.8176,1.8176,1.8176,1.8176,1.8176,1.8176,1.8176,1.8176,1.8176,1.8176,1.8176,1.8176,1.8176,1.8176,1.8176,1.8176,1.8176,1.8176,1.8176,1.8176,1.8176,1.8176,1.8176,1.8176,1.8176,1.8176,1.8176,1.8176,1.8176,1.8176,1.8176,1.8176,1.8176,1.8176,1.8223,1.868,1.9425,2.0751,2.2856,2.4515,2.5592,2.6402,2.7161,2.801,2.9473,3.0267,3.0502,3.1416,3.25,3.2134,3.1974,3.2602,3.2602,3.2427,3.2485,3.2559,3.2602,3.2441,3.2207,3.1944,3.1885,3.1885,3.1856,3.1798,3.1593,3.1359,3.1212,3.1168,3.0966,3.079,3.079,3.0819,3.0805,3.079,3.0776,3.0776,3.0776,3.0776,3.0776,3.0776,3.0776,3.0776,3.0776,3.0776,3.0744,3.0642,3.051,3.0407,3.0155,2.995,2.9749,2.9731,2.9745,2.9657,2.9481,2.9408,2.9335,2.9232,2.9144,2.9047,2.9017,2.8973,2.89,1.8176,1.8176,1.8176,1.8176,1.8176,1.8176,1.8176,1.8176,1.8176,1.8176,1.8176,1.8176,1.8176,1.8176,1.8176,1.8176,1.8176,1.8176,1.8176,1.8176,1.8176,1.8176,1.8176,1.8176,1.8176,1.8176,1.8176,1.8176,1.8176,1.8176,1.8176,1.8176,1.8176,1.8176,1.8176,1.8176,1.8176,1.8176,1.8176,1.8176,1.8176,1.8176,1.8176,1.8176,1.8176,1.8176,1.8223,1.8456,1.8837,1.9759,2.1536,2.3539,2.4626,2.5127,2.5582,2.6728,2.7587,2.8501,2.8905,2.9412,2.9936,3.0186,3.0097,3.0678,3.1137,3.1449,3.1996,3.2542,3.2793,3.2734,3.2573,3.2456,3.2266,3.2251,3.2237,3.2237,3.2178,3.1841,3.1534,3.152,3.1375,3.1227,3.1139,3.1024,3.0878,3.0878,3.0846,3.0846,3.0776,3.0776,3.0776,3.0776,3.0776,3.0776,3.0776,3.0776,3.0776,3.0773,3.0715,3.0656,3.0525,3.0364,3.0217,3.01,2.9994,2.9892,2.9745,2.9672,2.9643,2.9599,2.9511,2.9335,2.9232,2.9247,2.91,1.8176,1.8176,1.8176,1.8176,1.8176,1.8176,1.8176,1.8176,1.8176,1.8176,1.8176,1.8176,1.8176,1.8176,1.8176,1.8176,1.8176,1.8176,1.8176,1.8176,1.8176,1.8176,1.8176,1.8176,1.8176,1.8176,1.8176,1.8176,1.8176,1.8176,1.8176,1.8176,1.8176,1.8176,1.8176,1.8176,1.8176,1.8176,1.8176,1.8176,1.8176,1.8176,1.8176,1.8176,1.8176,1.8176,1.8269,1.8511,1.8837,1.893,1.9395,2.1047,2.2744,2.3652,2.4156,2.5787,2.6105,2.6513,2.6695,2.7057,2.7386,2.7024,2.716,2.7825,2.9085,2.9994,3.0811,3.176,3.2395,3.2808,3.2808,3.2734,3.2749,3.2764,3.2793,3.2808,3.272,3.2309,3.2017,3.1856,3.171,3.1534,3.1446,3.1373,3.1168,3.0993,3.0934,3.0861,3.0846,3.0776,3.0776,3.0776,3.0776,3.0776,3.0776,3.0776,3.0776,3.0776,3.0776,3.0761,3.0788,3.0656,3.0466,3.0261,3.017,3.0111,3.0082,3.0038,3.0009,2.9994,2.9848,2.9628,2.954,2.9496,2.935,1.8176,1.8176,1.8176,1.8176,1.8176,1.8176,1.8176,1.8176,1.8176,1.8176,1.8176,1.8176,1.8176,1.8176,1.8176,1.8176,1.8176,1.8176,1.8176,1.8176,1.8176,1.8176,1.8176,1.8176,1.8176,1.8176,1.8176,1.8176,1.8176,1.8176,1.8176,1.8176,1.8176,1.8176,1.8176,1.8176,1.8176,1.8176,1.8176,1.8176,1.8176,1.8176,1.8176,1.8176,1.8176,1.8223,1.8223,1.8316,1.8502,1.8883,1.9395,2.0223,2.1094,2.1325,2.1602,2.233,2.3744,2.4567,2.4704,2.5923,2.6752,2.7024,2.6616,2.6797,2.769,2.8726,2.9444,3.0544,3.1818,3.2763,3.2808,3.2454,3.2675,3.2719,3.2409,3.2586,3.2646,3.2441,3.2149,3.183,3.1743,3.1812,3.1754,3.1681,3.152,3.1315,3.1168,3.1037,3.0934,3.0876,3.0776,3.0776,3.0776,3.0776,3.0776,3.0776,3.0776,3.0776,3.0776,3.0776,3.0761,3.0776,3.0685,3.0495,3.0481,3.0539,3.0495,3.0419,3.0361,3.0317,3.0126,2.9921,2.9862,2.9818,2.9774,1.8176,1.8176,1.8176,1.8176,1.8176,1.8176,1.8176,1.8176,1.8176,1.8176,1.8176,1.8176,1.8176,1.8176,1.8176,1.8176,1.8176,1.8176,1.8176,1.8176,1.8176,1.8176,1.8176,1.8176,1.8176,1.8176,1.8176,1.8176,1.8176,1.8176,1.8176,1.8176,1.8176,1.8176,1.8176,1.8176,1.8176,1.8176,1.8176,1.8176,1.8176,1.8176,1.8176,1.8176,1.8223,1.8316,1.8596,1.8875,1.9201,1.9712,2.0185,2.0556,2.0742,2.0788,2.0835,2.1066,2.1971,2.2662,2.2616,2.3571,2.3846,2.3892,2.4075,2.4567,2.5332,2.6332,2.7464,2.8816,3.1182,3.1907,2.9949,3.0767,3.1212,3.1079,3.0588,3.0959,3.1907,3.1715,3.1425,3.1312,3.1667,3.1859,3.2076,3.1973,3.1856,3.1666,3.1446,3.1271,3.1095,3.0964,3.0849,3.0776,3.0776,3.0776,3.0776,3.0776,3.0776,3.0776,3.0776,3.0776,3.0776,3.0776,3.0776,3.0703,3.0761,3.0776,3.0732,3.0612,3.0598,3.0583,3.0466,3.032,3.0229,3.0141,3.0097,1.8176,1.8176,1.8176,1.8176,1.8176,1.8176,1.8176,1.8176,1.8176,1.8176,1.8176,1.8176,1.8176,1.8176,1.8176,1.8176,1.8176,1.8176,1.8176,1.8176,1.8176,1.8176,1.8176,1.8176,1.8176,1.8176,1.8176,1.8176,1.8176,1.8176,1.8176,1.8176,1.8176,1.8176,1.8176,1.8176,1.8176,1.8176,1.8176,1.8176,1.8176,1.8176,1.8176,1.8223,1.8269,1.8557,1.8837,1.9302,1.9712,2.013,2.0603,2.0983,2.1029,2.1122,2.1214,2.1214,2.1214,2.1214,2.1307,2.14,2.1852,2.1898,2.14,2.2165,2.3204,2.4293,2.5195,2.7102,2.9233,3.0365,2.8243,2.8501,2.9175,2.9085,2.8276,2.796,2.977,3.032,2.9905,3.0222,3.1226,3.1425,3.1229,3.1479,3.1205,3.1974,3.1798,3.1622,3.1432,3.1124,3.0951,3.0819,3.0776,3.0776,3.0776,3.0776,3.0776,3.0776,3.0776,3.0776,3.0776,3.0776,3.0776,3.0776,3.0776,3.0776,3.0776,3.0776,3.0744,3.0729,3.0746,3.0729,3.0525,3.0437,3.0407,1.8176,1.8176,1.8176,1.8176,1.8176,1.8176,1.8176,1.8176,1.8176,1.8176,1.8176,1.8176,1.8176,1.8176,1.8176,1.8176,1.8176,1.8176,1.8176,1.8176,1.8176,1.8176,1.8176,1.8176,1.8176,1.8176,1.8176,1.8176,1.8176,1.8176,1.8176,1.8176,1.8176,1.8176,1.8176,1.8176,1.8176,1.8176,1.8176,1.8176,1.8176,1.8176,1.8176,1.8269,1.8502,1.8744,1.893,1.9395,1.9759,1.9898,2.0315,2.0501,2.0547,2.0983,2.1168,2.1214,2.1214,2.1214,2.1214,2.1214,2.1214,2.1214,2.1214,2.1353,2.2073,2.3387,2.483,2.6797,2.7792,2.7476,2.6707,2.7193,2.7374,2.7374,2.7148,2.7193,2.8231,2.8186,2.7915,2.8366,2.9098,2.9546,2.9664,3.0096,3.0557,3.1522,3.2192,3.1973,3.1754,3.1446,3.1097,3.0966,3.0892,3.0878,3.0776,3.0776,3.0776,3.0776,3.0776,3.0776,3.0776,3.0776,3.0776,3.0776,3.0776,3.0776,3.0776,3.0776,3.0776,3.0776,3.0776,3.0776,3.0746,3.0744,3.0671,1.8176,1.8176,1.8176,1.8176,1.8176,1.8176,1.8176,1.8176,1.8176,1.8176,1.8176,1.8176,1.8176,1.8176,1.8176,1.8176,1.8176,1.8176,1.8176,1.8176,1.8176,1.8176,1.8176,1.8176,1.8176,1.8176,1.8176,1.8176,1.8176,1.8176,1.8176,1.8176,1.8176,1.8176,1.8176,1.8176,1.8176,1.8176,1.8176,1.8176,1.8176,1.8176,1.8176,1.8176,1.8409,1.865,1.8977,1.9395,1.9851,2.0083,2.0594,2.0835,2.0881,2.1075,2.1214,2.1214,2.1214,2.1214,2.1214,2.1214,2.1214,2.1214,2.1214,2.1261,2.1575,2.2846,2.3663,2.3617,2.5844,2.5935,2.4933,2.5844,2.6707,2.6797,2.5969,2.778,2.778,2.5878,2.5696,2.6332,2.7102,2.8051,2.8816,2.9328,3.0386,3.1942,3.2368,3.2193,3.2002,3.1783,3.1476,3.1168,3.111,3.1066,3.0878,3.0776,3.0832,3.0832,3.0776,3.0776,3.0776,3.0776,3.0776,3.0776,3.0776,3.0776,3.0776,3.0776,3.0776,3.0776,3.0776,3.0776,3.0776,3.0776,3.0759,1.8314,1.8306,1.8263,1.8176,1.8176,1.8176,1.8176,1.8176,1.8176,1.8176,1.8176,1.8176,1.8176,1.8176,1.8176,1.8176,1.8176,1.8176,1.8176,1.8176,1.8176,1.8176,1.8176,1.8176,1.8176,1.8176,1.8176,1.8176,1.8176,1.8176,1.8176,1.8176,1.8176,1.8176,1.8176,1.8176,1.8176,1.8176,1.8176,1.8176,1.8176,1.8176,1.8176,1.8223,1.8363,1.8604,1.907,1.9628,2.0083,2.0603,2.0927,2.1122,2.1168,2.1168,2.1214,2.1214,2.1214,2.1214,2.1214,2.1214,2.1214,2.1214,2.1214,2.1214,2.1353,2.2616,2.302,2.176,2.3444,2.3444,2.2672,2.4029,2.4533,2.475,2.4704,2.7328,2.9085,2.6966,2.615,2.7419,2.8051,2.7825,2.8456,2.8816,3.0115,3.2144,3.2588,3.2354,3.2222,3.2061,3.1798,3.149,3.1417,3.1329,3.111,3.0964,3.0934,3.0861,3.0805,3.0776,3.0776,3.0776,3.0776,3.0776,3.0776,3.0776,3.0776,3.0776,3.0776,3.0776,3.0776,3.0776,3.0776,3.0776,3.0776,1.8688,1.8663,1.8322,1.8192,1.82,1.8176,1.8184,1.8225,1.82,1.8247,1.82,1.8176,1.8176,1.8176,1.8176,1.8176,1.8176,1.8176,1.8176,1.8176,1.8176,1.8176,1.8176,1.8176,1.8176,1.8176,1.8176,1.8176,1.8176,1.8176,1.8176,1.8176,1.8176,1.8176,1.8176,1.8176,1.8176,1.8176,1.8176,1.8176,1.8223,1.8223,1.8269,1.8363,1.865,1.907,1.9628,2.0037,2.0408,2.0927,2.1122,2.1214,2.1214,2.1214,2.1214,2.1214,2.1214,2.1214,2.1214,2.1214,2.1214,2.1214,2.1214,2.1214,2.1261,2.1261,2.1261,2.1261,2.235,2.2083,2.1446,2.1667,2.349,2.4121,2.515,2.6876,2.8276,2.7645,2.7193,2.8636,2.886,2.8276,2.8681,2.913,2.9591,3.1479,3.1967,3.1737,3.2354,3.228,3.209,3.1871,3.1783,3.1637,3.1373,3.1256,3.1198,3.1066,3.0922,3.0849,3.079,3.079,3.0776,3.0776,3.0776,3.0776,3.0776,3.0776,3.0776,3.0776,3.0776,3.0776,3.0776,3.0776,3.0776,1.8728,1.8712,1.8566,1.8517,1.8517,1.8517,1.8509,1.8509,1.8509,1.8444,1.8385,1.8233,1.8176,1.8176,1.8176,1.8176,1.8176,1.8176,1.8176,1.8176,1.8176,1.8176,1.8176,1.8176,1.8176,1.8176,1.8176,1.8176,1.8176,1.8176,1.8176,1.8176,1.8176,1.8176,1.8176,1.8176,1.8176,1.8176,1.8176,1.8176,1.8269,1.8502,1.865,1.865,1.9108,1.9442,1.9767,2.0176,2.0455,2.0742,2.102,2.1168,2.1214,2.1214,2.1214,2.1214,2.1214,2.1214,2.1214,2.1214,2.1214,2.1214,2.1214,2.1214,2.1214,2.1214,2.1214,2.1214,2.1214,2.1214,2.1307,2.326,2.5389,2.5389,2.6105,2.7464,2.8005,2.7915,2.8321,2.9815,2.8995,2.8005,2.8771,2.9623,3.0039,3.0664,3.0931,3.1362,3.2059,3.2515,3.2339,3.2207,3.212,3.1944,3.1681,3.1563,3.149,3.13,3.1068,3.098,3.0892,3.079,3.0776,3.0776,3.0776,3.0776,3.0776,3.0776,3.0776,3.0776,3.0776,3.0776,3.0776,3.0776,3.0776,1.8883,1.8883,1.8883,1.8818,1.8688,1.8728,1.8728,1.8728,1.872,1.8663,1.8525,1.8387,1.8306,1.8273,1.8257,1.8217,1.8192,1.8176,1.8176,1.8176,1.8176,1.8176,1.8176,1.8176,1.8176,1.8176,1.8176,1.8176,1.8176,1.8176,1.8176,1.8176,1.8176,1.8176,1.8176,1.8176,1.8176,1.8176,1.8176,1.8316,1.8456,1.8697,1.9023,1.9116,1.9488,1.9767,1.9953,2.0269,2.0501,2.0788,2.1029,2.1168,2.1214,2.1214,2.1214,2.1214,2.1214,2.1214,2.1214,2.1214,2.1214,2.1214,2.1214,2.1214,2.1214,2.1214,2.1214,2.1214,2.1214,2.1214,2.14,2.3571,2.507,2.5024,2.769,2.9175,2.9726,2.986,3.0218,3.0856,2.9994,2.9681,2.9636,3.0588,3.0722,3.1168,3.1715,3.2026,3.2351,3.269,3.2617,3.2515,3.2441,3.2222,3.2002,3.1929,3.1827,3.1534,3.1344,3.1141,3.1039,3.0907,3.0805,3.0776,3.0776,3.0776,3.0776,3.0776,3.0776,3.0776,3.0776,3.0776,3.0776,3.0776,3.0776,1.9281,1.9297,1.9281,1.9037,1.8777,1.8728,1.8744,1.8785,1.8753,1.8736,1.872,1.868,1.8582,1.8476,1.8444,1.8379,1.8273,1.8225,1.8208,1.8263,1.8184,1.8184,1.8176,1.8176,1.8176,1.8176,1.8176,1.8176,1.8176,1.8176,1.8176,1.8176,1.8176,1.8176,1.8176,1.8176,1.8176,1.8176,1.8176,1.8511,1.8744,1.8977,1.9349,1.9628,1.986,2.0139,2.0371,2.0455,2.0742,2.102,2.1122,2.1214,2.1214,2.1214,2.1214,2.1214,2.1214,2.1214,2.1214,2.1214,2.1214,2.1214,2.1214,2.1214,2.1214,2.1214,2.1214,2.1214,2.1214,2.1214,2.1898,2.3112,2.4339,2.5923,2.8591,3.0575,3.1079,3.136,3.1626,3.1715,3.2262,3.2498,3.1863,3.1582,3.1537,3.1907,3.2498,3.2778,3.2763,3.2793,3.2764,3.2734,3.2661,3.2515,3.2324,3.2295,3.2149,3.1841,3.1607,3.1476,3.1214,3.1024,3.0922,3.0819,3.0776,3.0776,3.0776,3.0776,3.0776,3.0776,3.0776,3.0776,3.0776,3.0776,3.0776,1.9314,1.9314,1.9314,1.9191,1.9086,1.9077,1.9077,1.9102,1.8956,1.8891,1.8866,1.8785,1.8704,1.8647,1.8631,1.859,1.8525,1.8426,1.8402,1.8394,1.8257,1.8184,1.8184,1.8208,1.8192,1.8176,1.8176,1.8176,1.8176,1.8176,1.8176,1.8176,1.8176,1.8176,1.8176,1.8176,1.8176,1.8269,1.8456,1.879,1.8977,1.948,1.9944,2.0176,2.0464,2.0696,2.0835,2.0835,2.0983,2.1168,2.1214,2.1214,2.1214,2.1214,2.1214,2.1214,2.1214,2.1214,2.1214,2.1214,2.1214,2.1214,2.1214,2.1214,2.1214,2.1214,2.1214,2.1214,2.1214,2.1214,2.1529,2.443,2.6105,2.7057,2.9233,3.1315,3.2262,3.2409,3.2542,3.2498,3.2763,3.2808,3.2454,3.2173,3.2129,3.1804,3.2218,3.2542,3.2586,3.2719,3.2793,3.2793,3.2764,3.2734,3.2676,3.2544,3.2427,3.2178,3.1973,3.1812,3.1578,3.13,3.1024,3.0922,3.0849,3.0776,3.0776,3.0776,3.0776,3.0776,3.0776,3.0776,3.0776,3.0776,3.0776,1.9314,1.9314,1.9314,1.9314,1.9314,1.9314,1.9314,1.9289,1.9183,1.9077,1.9053,1.8956,1.8866,1.8834,1.8818,1.8753,1.872,1.8606,1.8589,1.8533,1.8436,1.8403,1.8379,1.8345,1.8345,1.8257,1.82,1.8176,1.8176,1.8176,1.8176,1.8176,1.8176,1.8176,1.8176,1.8176,1.8176,1.8316,1.8549,1.8977,1.9349,1.9851,2.0408,2.0696,2.0927,2.1168,2.1214,2.1214,2.1214,2.1214,2.1214,2.1214,2.1214,2.1214,2.1214,2.1214,2.1214,2.1214,2.1214,2.1214,2.1214,2.1214,2.1214,2.1214,2.1214,2.1214,2.1214,2.1214,2.1214,2.1214,2.176,2.4978,2.6831,2.7735,2.9726,3.1818,3.2719,3.2808,3.2808,3.2808,3.2808,3.2808,3.2808,3.2763,3.2631,3.2218,3.1848,3.2173,3.2498,3.2675,3.2808,3.2808,3.2808,3.2778,3.2778,3.2764,3.2646,3.2471,3.2295,3.2148,3.1915,3.1651,3.1359,3.1053,3.1039,3.098,3.0819,3.0776,3.0805,3.079,3.0776,3.0776,3.0776,3.0776,3.0776,1.9314,1.9314,1.9314,1.9314,1.9314,1.9314,1.9314,1.9314,1.9306,1.9297,1.9297,1.9273,1.9175,1.9004,1.8988,1.8923,1.8801,1.8753,1.8728,1.8712,1.8655,1.8663,1.8615,1.8525,1.8476,1.8442,1.8369,1.8296,1.82,1.8176,1.8176,1.8176,1.8176,1.8176,1.8176,1.8176,1.8176,1.8316,1.8642,1.9116,1.9581,2.0083,2.0594,2.0927,2.1168,2.1214,2.1214,2.1214,2.1214,2.1214,2.1214,2.1214,2.1214,2.1214,2.1214,2.1214,2.1214,2.1214,2.1214,2.1214,2.1214,2.1214,2.1214,2.1214,2.1214,2.1214,2.1214,2.1214,2.1214,2.1214,2.1714,2.4212,2.6604,2.8333,3.032,3.1685,3.2542,3.2808,3.2808,3.2808,3.2808,3.2808,3.2808,3.2808,3.2808,3.2631,3.2306,3.2409,3.2675,3.2675,3.2808,3.2808,3.2808,3.2808,3.2808,3.2808,3.2778,3.2646,3.2529,3.2353,3.2149,3.1973,3.1695,3.1461,3.1359,3.1242,3.1024,3.0949,3.0876,3.0861,3.079,3.0776,3.0776,3.0776,3.0776,1.9314,1.9314,1.9314,1.9314,1.9314,1.9314,1.9314,1.9314,1.9314,1.9314,1.9314,1.9314,1.9265,1.9232,1.9232,1.9134,1.9069,1.898,1.8923,1.8883,1.8826,1.8761,1.8712,1.8688,1.8647,1.8582,1.8532,1.8418,1.8385,1.8273,1.8184,1.8176,1.8176,1.8176,1.8176,1.8176,1.8176,1.8316,1.8697,1.9209,1.9721,2.0176,2.0696,2.1075,2.1214,2.1214,2.1214,2.1214,2.1214,2.1214,2.1214,2.1214,2.1214,2.1214,2.1214,2.1214,2.1214,2.1214,2.1214,2.1214,2.1214,2.1214,2.1214,2.1214,2.1214,2.1214,2.1214,2.1214,2.1214,2.1214,2.1667,2.3617,2.5798,2.778,2.977,3.1271,3.2129,3.2808,3.2808,3.2808,3.2808,3.2808,3.2808,3.2808,3.2808,3.2808,3.2808,3.2808,3.2808,3.2808,3.2808,3.2808,3.2808,3.2808,3.2808,3.2808,3.2808,3.2778,3.2661,3.2544,3.2383,3.2149,3.1973,3.1798,3.1637,3.1446,3.1242,3.1168,3.1139,3.0905,3.0805,3.079,3.0776,3.0776,3.0776,1.9314,1.9314,1.9314,1.9314,1.9314,1.9314,1.9314,1.9314,1.9314,1.9314,1.9314,1.9314,1.9314,1.9306,1.9297,1.9289,1.9281,1.92,1.9143,1.9061,1.8972,1.8972,1.8931,1.8858,1.8826,1.8761,1.8671,1.8558,1.8509,1.8379,1.832,1.8176,1.8176,1.8176,1.8176,1.8176,1.8176,1.8456,1.8837,1.9349,1.9814,2.0315,2.0835,2.1122,2.1214,2.1214,2.1214,2.1214,2.1214,2.1214,2.1214,2.1214,2.1214,2.1214,2.1214,2.1214,2.1214,2.1214,2.1214,2.1214,2.1214,2.1214,2.1214,2.1214,2.1214,2.1214,2.1214,2.1214,2.1214,2.1353,2.2037,2.2984,2.4933,2.6876,2.8771,3.0722,3.1715,3.2631,3.2808,3.2808,3.2808,3.2808,3.2808,3.2808,3.2808,3.2808,3.2808,3.2808,3.2808,3.2808,3.2808,3.2808,3.2808,3.2808,3.2808,3.2808,3.2808,3.2808,3.2778,3.2661,3.2529,3.2456,3.2295,3.209,3.1871,3.1695,3.1534,3.149,3.1432,3.1198,3.0978,3.0964,3.092,3.0776,3.0776,1.9314,1.9314,1.9314,1.9314,1.9314,1.9314,1.9314,1.9314,1.9314,1.9314,1.9314,1.9314,1.9314,1.9314,1.9314,1.9314,1.9306,1.9273,1.9257,1.9297,1.9199,1.9175,1.9134,1.9094,1.9021,1.8948,1.8842,1.872,1.8663,1.8517,1.8377,1.82,1.8176,1.8176,1.8176,1.8176,1.8269,1.8549,1.907,1.9674,1.9907,2.051,2.1168,2.1214,2.1214,2.1214,2.1214,2.1214,2.1214,2.1214,2.1214,2.1214,2.1214,2.1214,2.1214,2.1214,2.1214,2.1214,2.1214,2.1214,2.1214,2.1214,2.1214,2.1214,2.1214,2.1214,2.1214,2.1214,2.1214,2.1214,2.1714,2.235,2.3846,2.5787,2.769,2.9623,3.1123,3.2129,3.2808,3.2808,3.2808,3.2808,3.2808,3.2808,3.2808,3.2808,3.2808,3.2808,3.2808,3.2808,3.2808,3.2808,3.2808,3.2808,3.2808,3.2808,3.2808,3.2808,3.2808,3.2793,3.269,3.2676,3.269,3.2427,3.2222,3.2017,3.1871,3.1841,3.1724,3.1476,3.1285,3.1168,3.1066,3.0949,3.0805,1.9314,1.9314,1.9314,1.9314,1.9314,1.9314,1.9314,1.9314,1.9314,1.9314,1.9314,1.9314,1.9314,1.9314,1.9314,1.9314,1.9314,1.9314,1.9314,1.9306,1.9314,1.9314,1.9314,1.9249,1.9224,1.9183,1.9021,1.8858,1.8736,1.8574,1.8491,1.8426,1.8337,1.8255,1.82,1.82,1.8363,1.8642,1.9247,1.9721,1.9898,2.0223,2.0696,2.1029,2.1214,2.1214,2.1214,2.1214,2.1214,2.1214,2.1214,2.1214,2.1214,2.1214,2.1214,2.1214,2.1214,2.1214,2.1214,2.1214,2.1214,2.1214,2.1214,2.1214,2.1214,2.1214,2.1214,2.1214,2.1214,2.1214,2.1353,2.1981,2.2846,2.4796,2.674,2.8636,3.0575,3.1715,3.2719,3.2808,3.2808,3.2808,3.2808,3.2808,3.2808,3.2808,3.2808,3.2808,3.2808,3.2808,3.2808,3.2808,3.2808,3.2808,3.2808,3.2808,3.2808,3.2808,3.2808,3.2808,3.2808,3.2778,3.2749,3.2749,3.2573,3.2368,3.2207,3.2178,3.2032,3.1783,3.1637,3.1534,3.1359,3.1227,3.1037,1.9314,1.9314,1.9314,1.9314,1.9314,1.9314,1.9314,1.9314,1.9314,1.9314,1.9314,1.9314,1.9314,1.9314,1.9314,1.9314,1.9314,1.9314,1.9314,1.9314,1.9314,1.9314,1.9314,1.9314,1.9297,1.9265,1.9208,1.9021,1.8842,1.8769,1.8727,1.8566,1.8403,1.8345,1.829,1.8288,1.8472,1.8883,1.9451,1.9823,2.0,2.051,2.0835,2.1168,2.1214,2.1214,2.1214,2.1214,2.1214,2.1214,2.1214,2.1214,2.1214,2.1214,2.1214,2.1214,2.1214,2.1214,2.1214,2.1214,2.1214,2.1214,2.1214,2.1214,2.1214,2.1214,2.1214,2.1214,2.1214,2.1214,2.1214,2.1667,2.2708,2.4293,2.6377,2.8411,3.0544,3.2306,3.2763,3.2808,3.2808,3.2808,3.2808,3.2808,3.2808,3.2778,3.2778,3.2808,3.2808,3.2808,3.2808,3.2808,3.2808,3.2808,3.2808,3.2808,3.2808,3.2808,3.2808,3.2808,3.2808,3.2808,3.2808,3.2793,3.2778,3.272,3.2588,3.2515,3.2324,3.209,3.1988,3.1915,3.171,3.1505,3.1344,1.9314,1.9314,1.9314,1.9314,1.9314,1.9314,1.9314,1.9314,1.9314,1.9314,1.9314,1.9314,1.9314,1.9314,1.9314,1.9314,1.9314,1.9314,1.9314,1.9314,1.9314,1.9314,1.9314,1.9314,1.9314,1.9314,1.9281,1.9192,1.9069,1.8988,1.8834,1.8736,1.8615,1.8532,1.8483,1.8551,1.872,1.9244,1.9751,2.0155,2.0547,2.0937,2.1122,2.1168,2.1214,2.1214,2.1214,2.1214,2.1214,2.1214,2.1214,2.1214,2.1214,2.1214,2.1214,2.1214,2.1214,2.1214,2.1214,2.1214,2.1214,2.1214,2.1214,2.1214,2.1214,2.1214,2.1214,2.1214,2.1214,2.1214,2.1214,2.1446,2.2478,2.3515,2.5696,2.8005,3.0231,3.1996,3.1951,3.204,3.2085,3.204,3.1996,3.204,3.2409,3.2454,3.2719,3.2763,3.2808,3.2808,3.2808,3.2808,3.2808,3.2808,3.2808,3.2808,3.2808,3.2808,3.2808,3.2808,3.2808,3.2808,3.2808,3.2808,3.2793,3.2778,3.2778,3.272,3.2558,3.2354,3.2383,3.2251,3.2002,3.1812,3.1681,1.9314,1.9314,1.9314,1.9314,1.9314,1.9314,1.9314,1.9314,1.9314,1.9314,1.9314,1.9314,1.9314,1.9314,1.9314,1.9314,1.9314,1.9314,1.9314,1.9314,1.9314,1.9314,1.9314,1.9314,1.9314,1.9314,1.9314,1.9281,1.9192,1.9045,1.898,1.8923,1.8761,1.8727,1.8759,1.8924,1.931,1.9798,2.0238,2.0654,2.103,2.1254,2.1178,2.1214,2.1214,2.1214,2.1214,2.1214,2.1214,2.1214,2.1214,2.1214,2.1214,2.1214,2.1214,2.1214,2.1214,2.1214,2.1214,2.1214,2.1214,2.1214,2.1214,2.1214,2.1214,2.1214,2.1214,2.1214,2.1214,2.1214,2.1214,2.1214,2.1945,2.2616,2.4156,2.6831,2.9264,2.9322,2.9098,2.9233,2.9367,2.9143,2.8828,2.9412,3.0588,3.099,3.204,3.2173,3.2763,3.2808,3.2763,3.2763,3.2763,3.2808,3.2808,3.2808,3.2808,3.2808,3.2808,3.2808,3.2808,3.2808,3.2808,3.2808,3.2808,3.2793,3.2808,3.2808,3.269,3.2514,3.2661,3.2632,3.2339,3.2149,3.2017]},{"header":{"parameterUnit":"m.s-1","parameterCategory":1,"la1":31.0,"la2":29.5877,"lo1":-88.7671,"lo2":-86.6584,"dx":0.0162,"dy":0.0185,"nx":115,"ny":88,"refTime":"2023-01-19T06:00:00:Z","depth":0,"parameterNumber":3,"parameterNumberName":"V-component_of_WINDS"},"data":[0.0,0.0,0.0,0.0,0.0,0.0,0.0,0.0,0.0,0.0,0.0,0.0,0.0,0.0,0.0,0.0,0.0,0.0,0.0,0.0,0.0,0.0,0.0,0.0,0.0,0.0,0.0,0.0,0.0,0.0,0.0,0.0,0.0,0.0,0.0,0.0,0.0,0.0,0.0,0.0,0.0,0.0,0.0,0.0,0.0,0.0,0.0,0.0,0.0,0.0,0.0,0.0,0.0,0.0,0.0,0.0,0.0,0.0,0.0,0.0,0.0,0.0,0.0,0.0,0.0,0.0,0.0,0.0,0.0,0.0,0.0,0.0,0.0,0.0,0.0,0.0,0.0,0.0,0.0,0.0,0.0,0.0,0.0,0.0,0.0,0.0,0.0,0.0,0.0,0.0,0.0,0.0,0.0,0.0,0.0,0.0,0.0,0.0,0.0,0.0,0.0,0.0,0.0,0.0,0.0,0.0,0.0,0.0,0.0,0.0,0.0,0.0,0.0,0.0,0.0,0.0,0.0,0.0,0.0,0.0,0.0,0.0,0.0,0.0,0.0,0.0,0.0,0.0,0.0,0.0,0.0,0.0,0.0,0.0,0.0,0.0,0.0,0.0,0.0,0.0,0.0,0.0,0.0,0.0,0.0,0.0,0.0,0.0,0.0,0.0,0.0,0.0,0.0,0.0,0.0,0.0,0.0,0.0,0.0,0.0,0.0,0.0,0.0,0.0,0.0,0.0,0.0,0.0,0.0,0.0,0.0,0.0,0.0,0.0,0.0,0.0,0.0,0.0,0.0,0.0,0.0,0.0,0.0,0.0,0.0,0.0,0.0,0.0,0.0,0.0,0.0,0.0,0.0,0.0,0.0,0.0,0.0,0.0,0.0,0.0,0.0,0.0,0.0,0.0,0.0,0.0,0.0,0.0,0.0,0.0,0.0,0.0,0.0,0.0,0.0,0.0,0.0,0.0,0.0,0.0,0.0,0.0,0.0,0.0,0.0,0.0,0.0,0.0,0.0,0.0,0.0,0.0,0.0,0.0,0.0,0.0,0.0,0.0,0.0,0.0,0.0,0.0,0.0,0.0,0.0,0.0,0.0,0.0,0.0,0.0,0.0,0.0,0.0,0.0,0.0,0.0,0.0,0.0,0.0,0.0,0.0,0.0,0.0,0.0,0.0,0.0,0.0,0.0,0.0,0.0,0.0,0.0,0.0,0.0,0.0,0.0,0.0,0.0,0.0,0.0,0.0,0.0,0.0,0.0,0.0,0.0,0.0,0.0,0.0,0.0,0.0,0.0,0.0,0.0,0.0,0.0,0.0,0.0,0.0,0.0,0.0,0.0,0.0,0.0,0.0,0.0,0.0,0.0,0.0,0.0,0.0,0.0,0.0,0.0,0.0,0.0,0.0,0.0,0.0,0.0,0.0,0.0,0.0,0.0,0.0,0.0,0.0,0.0,0.0,0.0,0.0,0.0,0.0,0.0,0.0,0.0,0.0,0.0,0.0,0.0,0.0,0.0,0.0,0.0,0.0,0.0,0.0,0.0,0.0,0.0,0.0,0.0,0.0,0.0,0.0,0.0,0.0,0.0,0.0,0.0,0.0,0.0,0.0,0.0,0.0,0.0,0.0,0.0,0.0,0.0,0.0,0.0,0.0,0.0,0.0,0.0,0.0,0.0,0.0,0.0,0.0,0.0,0.0,0.0,0.0,0.0,0.0,0.0,0.0,0.0,0.0,0.0,0.0,0.0,0.0,0.0,0.0,0.0,0.0,0.0,0.0,0.0,0.0,0.0,0.0,0.0,0.0,0.0,0.0,0.0,0.0,0.0,0.0,0.0,0.0,0.0,0.0,0.0,0.0,0.0,0.0,0.0,0.0,0.0,0.0,0.0,0.0,0.0,0.0,0.0,0.0,0.0,0.0,0.0,0.0,0.0,0.0,0.0,0.0,0.0,0.0,0.0,0.0,0.0,0.0,0.0,0.0,0.0,0.0,0.0,0.0,0.0,0.0,0.0,0.0,0.0,0.0,0.0,0.0,0.0,0.0,0.0,0.0,0.0,0.0,0.0,0.0,0.0,0.0,0.0,0.0,0.0,0.0,0.0,0.0,0.0,0.0,0.0,0.0,0.0,0.0,0.0,0.0,0.0,0.0,0.0,0.0,0.0,0.0,0.0,0.0,0.0,0.0,0.0,0.0,0.0,0.0,0.0,0.0,0.0,0.0,0.0,0.0,0.0,0.0,0.0,0.0,0.0,0.0,0.0,0.0,0.0,0.0,0.0,0.0,0.0,0.0,0.0,0.0,0.0,0.0,0.0,0.0,0.0,0.0,0.0,0.0,0.0,0.0,0.0,0.0,0.0,0.0,0.0,0.0,0.0,0.0,0.0,0.0,0.0,0.0,0.0,0.0,0.0,0.0,0.0,0.0,0.0,0.0,0.0,0.0,0.0,0.0,0.0,0.0,0.0,0.0,0.0,0.0,0.0,0.0,0.0,0.0,0.0,0.0,0.0,0.0,0.0,0.0,0.0,0.0,0.0,0.0,0.0,0.0,0.0,0.0,0.0,0.0,0.0,0.0,0.0,0.0,0.0,0.0,0.0,0.0,0.0,0.0,0.0,0.0,0.0,0.0,0.0,0.0,0.0,0.0,0.0,0.0,0.0,0.0,0.0,0.0,0.0,0.0,0.0,0.0,0.0,0.0,0.0,0.0,0.0,0.0,0.0,0.0,0.0,0.0,0.0,0.0,0.0,0.0,0.0,0.0,0.0,0.0,0.0,0.0,0.0,0.0,0.0,0.0,0.0,0.0,0.0,0.0,0.0,0.0,0.0,0.0,0.0,0.0,0.0,0.0,0.0,0.0,0.0,0.0,0.0,0.0,0.0,0.0,0.0,0.0,0.0,0.0,0.0,0.0,0.0,0.0,0.0,0.0,0.0,0.0,0.0,0.0,0.0,0.0,0.0,0.0,0.0,0.0,0.0,0.0,0.0,0.0,0.0,0.0,0.0,0.0,0.0,0.0,0.0,0.0,0.0,0.0,0.0,0.0,0.0,0.0,0.0,0.0,0.0,0.0,0.0,0.0,0.0,0.0,0.0,0.0,0.0,0.0,0.0,0.0,0.0,0.0,0.0,0.0,0.0,0.0,0.0,0.0,0.0,0.0,0.0,0.0,0.0,0.0,0.0,0.0,0.0,0.0,0.0,0.0,0.0,0.0,0.0,0.0,0.0,0.0,0.0,0.0,0.0,0.0,0.0,0.0,0.0,0.0,0.0,0.0,0.0,0.0,0.0,0.0,0.0,0.0,0.0,0.0,0.0,0.0,0.0,0.0,0.0,0.0,0.0,0.0,0.0,0.0,0.0,0.0,0.0,0.0,0.0,0.0,0.0,0.0,0.0,0.0,0.0,0.0,0.0,0.0,0.0,0.0,0.0,0.0,0.0,0.0,0.0,0.0,0.0,0.0,0.0,0.0,0.0,0.0,0.0,0.0,0.0,0.0,0.0,0.0,0.0,0.0,0.0,0.0,0.0,0.0,0.0,0.0,0.0,0.0,0.0,0.0,0.0,0.0,0.0,0.0,0.0,0.0,0.0,0.0,0.0,0.0,0.0,0.0,0.0,0.0,0.0,0.0,0.0,0.0,0.0,0.0,0.0,0.0,0.0,0.0,0.0,0.0,0.0,0.0,0.0,0.0,0.0,0.0,0.0,0.0,0.0,0.0,0.0,0.0,0.0,0.0,0.0,0.0,0.0,0.0,0.0,0.0,0.0,0.0,0.0,0.0,0.0,0.0,0.0,0.0,0.0,0.0,0.0,0.0,0.0,0.0,0.0,0.0,0.0,0.0,0.0,0.0,0.0,0.0,0.0,0.0,0.0,0.0,0.0,0.0,0.0,0.0,0.0,0.0,0.0,0.0,0.0,0.0,0.0,0.0,0.0,0.0,0.0,0.0,0.0,0.0,0.0,0.0,0.0,0.0,0.0,0.0,0.0,0.0,0.0,0.0,0.0,0.0,0.0,0.0,0.0,0.0,0.0,0.0,0.0,0.0,0.0,0.0,0.0,0.0,0.0,0.0,0.0,0.0,0.0,0.0,0.0,0.0,0.0,0.0,0.0,0.0,0.0,0.0,0.0,0.0,0.0,0.0,0.0,0.0,0.0,0.0,0.0,0.0,0.0,0.0,0.0,0.0,0.0,0.0,0.0,0.0,0.0,0.0,0.0,0.0,0.0,0.0,0.0,0.0,0.0,0.0,0.0,0.0,0.0,0.0,0.0,0.0,0.0,3.0292,0.0,0.0,0.0,0.0,0.0,0.0,0.0,0.0,0.0,0.0,0.0,0.0,0.0,0.0,0.0,0.0,0.0,0.0,0.0,0.0,0.0,0.0,0.0,0.0,0.0,0.0,0.0,0.0,0.0,0.0,0.0,0.0,0.0,0.0,0.0,0.0,0.0,0.0,0.0,0.0,0.0,0.0,0.0,0.0,0.0,0.0,0.0,0.0,0.0,0.0,0.0,0.0,0.0,0.0,0.0,0.0,0.0,0.0,0.0,0.0,0.0,0.0,0.0,0.0,0.0,0.0,0.0,0.0,0.0,0.0,0.0,0.0,0.0,0.0,0.0,0.0,0.0,0.0,0.0,0.0,0.0,0.0,0.0,0.0,0.0,0.0,0.0,0.0,0.0,0.0,0.0,0.0,0.0,0.0,0.0,0.0,0.0,0.0,0.0,0.0,0.0,0.0,0.0,0.0,0.0,0.0,0.0,0.0,0.0,0.0,3.037,3.0333,3.0321,3.026,3.0266,0.0,0.0,0.0,0.0,0.0,0.0,0.0,0.0,0.0,0.0,0.0,0.0,0.0,0.0,0.0,0.0,0.0,0.0,0.0,0.0,0.0,0.0,0.0,0.0,0.0,0.0,0.0,0.0,0.0,0.0,0.0,0.0,0.0,0.0,0.0,0.0,0.0,0.0,0.0,0.0,0.0,0.0,0.0,0.0,0.0,0.0,0.0,0.0,0.0,0.0,0.0,0.0,0.0,0.0,0.0,0.0,0.0,0.0,0.0,0.0,0.0,0.0,0.0,0.0,0.0,0.0,0.0,0.0,0.0,0.0,0.0,0.0,0.0,0.0,0.0,0.0,0.0,0.0,0.0,0.0,0.0,0.0,0.0,0.0,0.0,0.0,0.0,0.0,0.0,0.0,0.0,0.0,0.0,0.0,0.0,0.0,0.0,0.0,0.0,0.0,0.0,0.0,0.0,0.0,0.0,0.0,0.0,0.0,0.0,0.0,0.0,0.0,3.0765,3.0765,3.0704,0.0,0.0,0.0,0.0,0.0,0.0,0.0,0.0,0.0,0.0,0.0,0.0,0.0,0.0,0.0,0.0,0.0,0.0,0.0,0.0,0.0,0.0,0.0,0.0,0.0,0.0,0.0,0.0,0.0,0.0,0.0,0.0,0.0,0.0,0.0,0.0,0.0,0.0,0.0,0.0,0.0,0.0,0.0,0.0,0.0,0.0,0.0,0.0,0.0,0.0,0.0,0.0,0.0,0.0,0.0,0.0,0.0,0.0,0.0,0.0,0.0,0.0,0.0,0.0,0.0,0.0,0.0,0.0,0.0,0.0,0.0,0.0,0.0,0.0,0.0,0.0,0.0,0.0,0.0,0.0,0.0,0.0,0.0,0.0,0.0,0.0,0.0,0.0,0.0,0.0,0.0,0.0,0.0,0.0,0.0,0.0,0.0,0.0,0.0,0.0,0.0,0.0,0.0,0.0,0.0,0.0,0.0,0.0,0.0,0.0,3.2541,3.2305,3.2222,0.0,3.223,0.0,0.0,0.0,0.0,0.0,0.0,0.0,0.0,0.0,0.0,0.0,0.0,0.0,0.0,0.0,0.0,0.0,0.0,0.0,0.0,0.0,0.0,0.0,0.0,0.0,0.0,0.0,0.0,0.0,0.0,0.0,0.0,0.0,0.0,0.0,0.0,0.0,0.0,0.0,0.0,0.0,0.0,0.0,0.0,0.0,0.0,0.0,0.0,0.0,0.0,0.0,0.0,0.0,0.0,0.0,0.0,0.0,0.0,0.0,0.0,0.0,0.0,0.0,0.0,0.0,0.0,0.0,0.0,0.0,0.0,0.0,0.0,0.0,0.0,0.0,0.0,0.0,0.0,0.0,0.0,0.0,0.0,0.0,0.0,0.0,0.0,0.0,0.0,0.0,0.0,0.0,0.0,0.0,0.0,0.0,0.0,0.0,0.0,0.0,0.0,0.0,0.0,0.0,0.0,0.0,0.0,0.0,0.0,0.0,0.0,3.2561,3.2342,3.2237,3.2463,0.0,0.0,0.0,0.0,0.0,0.0,0.0,0.0,0.0,0.0,0.0,0.0,0.0,0.0,0.0,0.0,0.0,0.0,0.0,0.0,0.0,0.0,0.0,0.0,0.0,0.0,0.0,0.0,0.0,0.0,0.0,0.0,0.0,0.0,0.0,0.0,0.0,0.0,0.0,0.0,0.0,0.0,0.0,0.0,0.0,0.0,0.0,0.0,0.0,0.0,0.0,0.0,0.0,0.0,0.0,0.0,0.0,0.0,0.0,0.0,0.0,0.0,0.0,0.0,0.0,0.0,0.0,0.0,0.0,0.0,0.0,0.0,0.0,0.0,0.0,0.0,0.0,0.0,0.0,0.0,0.0,0.0,0.0,0.0,0.0,0.0,0.0,0.0,0.0,0.0,0.0,0.0,0.0,0.0,0.0,0.0,0.0,0.0,0.0,0.0,0.0,0.0,0.0,0.0,0.0,0.0,0.0,0.0,0.0,0.0,3.3139,3.2986,3.278,3.2649,3.2959,3.374,0.0,0.0,0.0,0.0,0.0,0.0,0.0,0.0,0.0,0.0,0.0,0.0,0.0,0.0,0.0,0.0,0.0,0.0,0.0,0.0,0.0,0.0,0.0,0.0,0.0,0.0,0.0,0.0,0.0,0.0,0.0,0.0,0.0,0.0,0.0,0.0,0.0,0.0,0.0,0.0,0.0,0.0,0.0,0.0,0.0,0.0,0.0,0.0,0.0,0.0,0.0,0.0,0.0,0.0,0.0,0.0,0.0,0.0,0.0,0.0,0.0,0.0,0.0,0.0,0.0,0.0,0.0,0.0,0.0,0.0,0.0,0.0,0.0,0.0,0.0,0.0,0.0,0.0,0.0,0.0,0.0,0.0,0.0,0.0,0.0,0.0,0.0,0.0,0.0,0.0,0.0,0.0,0.0,0.0,0.0,0.0,0.0,0.0,0.0,0.0,0.0,0.0,0.0,0.0,0.0,0.0,0.0,0.0,3.4761,3.4627,3.4417,3.4115,3.4085,3.4128,0.0,0.0,0.0,0.0,0.0,0.0,0.0,0.0,0.0,0.0,0.0,0.0,0.0,0.0,0.0,0.0,0.0,0.0,0.0,0.0,0.0,0.0,0.0,0.0,0.0,0.0,0.0,0.0,0.0,0.0,0.0,0.0,0.0,0.0,0.0,0.0,0.0,0.0,0.0,0.0,0.0,0.0,0.0,0.0,0.0,0.0,0.0,0.0,0.0,0.0,0.0,0.0,0.0,0.0,0.0,0.0,0.0,0.0,0.0,0.0,0.0,0.0,0.0,0.0,0.0,0.0,0.0,0.0,0.0,0.0,0.0,0.0,0.0,0.0,0.0,0.0,0.0,0.0,0.0,0.0,0.0,0.0,0.0,0.0,0.0,0.0,0.0,0.0,0.0,0.0,0.0,0.0,0.0,0.0,0.0,0.0,0.0,0.0,0.0,0.0,0.0,0.0,0.0,0.0,0.0,0.0,0.0,0.0,0.0,3.4652,3.435,3.4197,3.4179,3.4018,3.4087,0.0,0.0,0.0,0.0,0.0,0.0,0.0,0.0,0.0,0.0,0.0,0.0,0.0,0.0,0.0,0.0,0.0,0.0,0.0,0.0,0.0,0.0,0.0,0.0,0.0,0.0,0.0,0.0,0.0,0.0,0.0,0.0,0.0,0.0,0.0,0.0,0.0,0.0,0.0,0.0,0.0,0.0,0.0,0.0,0.0,0.0,0.0,0.0,0.0,0.0,0.0,0.0,0.0,0.0,0.0,0.0,0.0,0.0,0.0,0.0,0.0,0.0,0.0,0.0,0.0,0.0,0.0,0.0,0.0,0.0,0.0,0.0,0.0,0.0,0.0,0.0,0.0,0.0,0.0,0.0,0.0,0.0,0.0,0.0,0.0,0.0,0.0,0.0,0.0,0.0,0.0,0.0,0.0,0.0,0.0,0.0,0.0,0.0,0.0,0.0,0.0,0.0,0.0,0.0,0.0,0.0,0.0,0.0,0.0,3.4387,0.0,3.4117,3.4111,3.3909,3.4018,0.0,0.0,0.0,0.0,0.0,0.0,0.0,0.0,0.0,0.0,0.0,0.0,0.0,0.0,0.0,0.0,0.0,0.0,0.0,0.0,0.0,0.0,0.0,0.0,0.0,0.0,0.0,0.0,0.0,0.0,0.0,0.0,0.0,0.0,0.0,0.0,0.0,0.0,0.0,0.0,0.0,0.0,0.0,0.0,0.0,0.0,0.0,0.0,0.0,0.0,0.0,0.0,0.0,0.0,0.0,0.0,0.0,0.0,0.0,0.0,0.0,0.0,0.0,0.0,0.0,0.0,0.0,0.0,0.0,0.0,0.0,0.0,0.0,0.0,0.0,0.0,0.0,0.0,0.0,0.0,0.0,0.0,0.0,0.0,0.0,0.0,0.0,0.0,0.0,0.0,0.0,0.0,0.0,0.0,0.0,0.0,0.0,0.0,0.0,0.0,0.0,0.0,0.0,0.0,0.0,0.0,0.0,0.0,3.4204,3.4136,3.4364,3.4305,3.3939,3.3926,3.4016,0.0,0.0,0.0,0.0,0.0,0.0,0.0,0.0,0.0,0.0,0.0,0.0,0.0,0.0,0.0,0.0,0.0,0.0,0.0,0.0,0.0,0.0,0.0,0.0,0.0,0.0,0.0,0.0,0.0,0.0,0.0,0.0,0.0,0.0,0.0,0.0,0.0,0.0,0.0,0.0,0.0,0.0,0.0,0.0,0.0,0.0,0.0,0.0,0.0,0.0,0.0,0.0,0.0,0.0,0.0,0.0,0.0,0.0,0.0,0.0,0.0,0.0,0.0,0.0,0.0,0.0,0.0,0.0,0.0,0.0,0.0,0.0,0.0,0.0,0.0,0.0,0.0,0.0,0.0,0.0,0.0,0.0,0.0,0.0,0.0,0.0,0.0,0.0,0.0,0.0,0.0,0.0,0.0,0.0,0.0,0.0,0.0,0.0,0.0,0.0,0.0,0.0,0.0,0.0,0.0,0.0,0.0,0.0,0.0,3.3954,3.4068,3.4185,3.4185,3.3979,3.408,0.0,0.0,0.0,0.0,0.0,0.0,0.0,0.0,0.0,0.0,0.0,0.0,0.0,0.0,0.0,0.0,0.0,0.0,0.0,0.0,0.0,0.0,0.0,0.0,0.0,0.0,0.0,0.0,0.0,0.0,0.0,0.0,0.0,0.0,0.0,0.0,0.0,0.0,0.0,0.0,0.0,0.0,0.0,0.0,0.0,0.0,0.0,0.0,0.0,0.0,0.0,0.0,0.0,0.0,0.0,0.0,0.0,0.0,0.0,0.0,0.0,0.0,0.0,0.0,0.0,0.0,0.0,0.0,0.0,0.0,0.0,0.0,0.0,0.0,0.0,0.0,0.0,0.0,0.0,0.0,0.0,0.0,0.0,0.0,0.0,0.0,0.0,0.0,0.0,0.0,0.0,0.0,0.0,0.0,0.0,0.0,0.0,0.0,0.0,0.0,0.0,0.0,0.0,0.0,0.0,0.0,0.0,0.0,0.0,3.5019,3.5089,3.5132,3.5138,3.4948,3.4742,3.448,0.0,0.0,0.0,0.0,0.0,0.0,0.0,0.0,0.0,0.0,0.0,0.0,0.0,0.0,0.0,0.0,0.0,0.0,0.0,0.0,0.0,0.0,0.0,0.0,0.0,0.0,0.0,0.0,0.0,0.0,0.0,0.0,0.0,0.0,0.0,0.0,0.0,0.0,0.0,0.0,0.0,0.0,0.0,0.0,0.0,0.0,0.0,0.0,0.0,0.0,0.0,0.0,0.0,0.0,0.0,0.0,0.0,0.0,0.0,0.0,0.0,0.0,0.0,0.0,0.0,0.0,0.0,0.0,0.0,0.0,0.0,0.0,0.0,0.0,0.0,0.0,0.0,0.0,0.0,0.0,0.0,0.0,0.0,0.0,0.0,0.0,0.0,0.0,0.0,0.0,0.0,0.0,0.0,0.0,0.0,0.0,0.0,0.0,0.0,0.0,0.0,0.0,0.0,0.0,0.0,0.0,0.0,0.0,3.7069,3.7292,3.7225,3.677,3.6559,3.5871,0.0,0.0,0.0,0.0,0.0,0.0,0.0,0.0,0.0,0.0,0.0,0.0,0.0,0.0,0.0,0.0,0.0,0.0,0.0,0.0,0.0,0.0,0.0,0.0,0.0,0.0,0.0,0.0,0.0,0.0,0.0,0.0,0.0,0.0,0.0,0.0,0.0,0.0,0.0,0.0,0.0,0.0,0.0,0.0,0.0,0.0,0.0,0.0,0.0,0.0,0.0,0.0,0.0,0.0,0.0,0.0,0.0,0.0,0.0,0.0,0.0,0.0,0.0,0.0,0.0,0.0,0.0,0.0,0.0,0.0,0.0,0.0,0.0,0.0,0.0,0.0,0.0,0.0,0.0,0.0,0.0,0.0,0.0,0.0,0.0,0.0,0.0,0.0,0.0,0.0,0.0,0.0,0.0,0.0,0.0,0.0,0.0,0.0,0.0,0.0,0.0,0.0,0.0,0.0,0.0,0.0,0.0,0.0,0.0,4.0328,4.154,4.1059,3.8745,3.7279,3.649,0.0,0.0,0.0,0.0,0.0,0.0,0.0,0.0,0.0,0.0,0.0,0.0,0.0,0.0,0.0,0.0,0.0,0.0,0.0,0.0,0.0,0.0,0.0,0.0,0.0,0.0,0.0,0.0,0.0,0.0,0.0,0.0,0.0,0.0,0.0,0.0,0.0,0.0,0.0,0.0,0.0,0.0,0.0,0.0,0.0,0.0,0.0,0.0,0.0,0.0,0.0,0.0,0.0,0.0,0.0,0.0,0.0,0.0,0.0,0.0,0.0,0.0,0.0,0.0,0.0,0.0,0.0,0.0,0.0,0.0,0.0,0.0,0.0,0.0,0.0,0.0,0.0,0.0,0.0,0.0,0.0,0.0,0.0,0.0,0.0,0.0,0.0,0.0,0.0,0.0,0.0,0.0,0.0,0.0,0.0,0.0,0.0,0.0,0.0,0.0,0.0,0.0,0.0,0.0,0.0,0.0,0.0,0.0,4.0921,4.1867,4.4158,4.4484,4.2691,4.012,3.846,0.0,0.0,0.0,0.0,0.0,0.0,0.0,0.0,0.0,0.0,0.0,0.0,0.0,0.0,0.0,0.0,0.0,0.0,0.0,0.0,0.0,0.0,0.0,0.0,0.0,0.0,0.0,0.0,0.0,0.0,0.0,0.0,0.0,0.0,0.0,0.0,0.0,0.0,0.0,0.0,0.0,0.0,0.0,0.0,0.0,0.0,0.0,0.0,0.0,0.0,0.0,0.0,0.0,0.0,0.0,0.0,0.0,0.0,0.0,0.0,0.0,0.0,0.0,0.0,0.0,0.0,0.0,0.0,0.0,0.0,0.0,0.0,0.0,0.0,0.0,0.0,0.0,0.0,0.0,0.0,0.0,0.0,0.0,0.0,0.0,0.0,0.0,0.0,0.0,0.0,0.0,0.0,0.0,0.0,0.0,0.0,0.0,0.0,0.0,0.0,0.0,0.0,0.0,0.0,0.0,0.0,0.0,0.0,4.2654,4.2724,4.5764,4.7353,4.7215,4.369,4.0957,0.0,0.0,0.0,0.0,0.0,0.0,0.0,0.0,0.0,0.0,0.0,0.0,0.0,0.0,0.0,0.0,0.0,0.0,0.0,0.0,0.0,0.0,0.0,0.0,0.0,0.0,0.0,0.0,0.0,0.0,0.0,0.0,0.0,0.0,0.0,0.0,0.0,0.0,0.0,0.0,0.0,0.0,0.0,0.0,0.0,0.0,0.0,0.0,0.0,0.0,0.0,0.0,0.0,0.0,0.0,0.0,0.0,0.0,0.0,0.0,0.0,0.0,0.0,0.0,0.0,0.0,0.0,0.0,0.0,0.0,0.0,0.0,0.0,0.0,0.0,0.0,0.0,0.0,0.0,0.0,0.0,0.0,0.0,0.0,0.0,0.0,0.0,0.0,0.0,0.0,0.0,0.0,0.0,0.0,0.0,0.0,0.0,0.0,0.0,0.0,0.0,0.0,0.0,0.0,0.0,0.0,0.0,0.0,4.4609,4.5919,4.7654,4.8653,4.8798,4.3951,4.123,0.0,0.0,0.0,0.0,0.0,0.0,0.0,0.0,0.0,0.0,0.0,0.0,0.0,0.0,0.0,0.0,0.0,0.0,0.0,0.0,0.0,0.0,0.0,0.0,0.0,0.0,0.0,0.0,0.0,0.0,0.0,0.0,0.0,0.0,0.0,0.0,0.0,0.0,0.0,0.0,0.0,0.0,0.0,0.0,0.0,0.0,0.0,0.0,3.8959,0.0,0.0,0.0,0.0,0.0,0.0,0.0,0.0,0.0,0.0,0.0,0.0,0.0,0.0,0.0,0.0,0.0,0.0,0.0,0.0,0.0,0.0,0.0,0.0,0.0,0.0,0.0,0.0,0.0,0.0,0.0,0.0,0.0,0.0,0.0,0.0,0.0,0.0,0.0,0.0,0.0,0.0,0.0,0.0,0.0,0.0,0.0,0.0,0.0,0.0,0.0,0.0,0.0,0.0,0.0,0.0,0.0,0.0,0.0,4.5175,4.6765,4.8223,4.9069,4.9002,4.5481,4.3262,0.0,0.0,0.0,0.0,0.0,0.0,0.0,0.0,0.0,0.0,0.0,0.0,0.0,0.0,0.0,0.0,0.0,0.0,0.0,0.0,0.0,0.0,0.0,0.0,0.0,0.0,0.0,0.0,0.0,0.0,0.0,0.0,0.0,0.0,0.0,0.0,0.0,0.0,0.0,0.0,0.0,0.0,0.0,0.0,0.0,0.0,0.0,0.0,0.0,0.0,0.0,0.0,0.0,0.0,0.0,0.0,0.0,0.0,0.0,0.0,0.0,0.0,0.0,0.0,0.0,0.0,0.0,0.0,0.0,0.0,0.0,0.0,0.0,0.0,0.0,0.0,0.0,0.0,0.0,0.0,0.0,0.0,0.0,0.0,0.0,0.0,0.0,0.0,0.0,0.0,0.0,0.0,0.0,0.0,0.0,0.0,0.0,0.0,0.0,0.0,0.0,0.0,0.0,0.0,0.0,0.0,0.0,4.3475,4.5177,4.7017,4.8372,4.904,4.8986,4.7165,4.5519,4.4155,0.0,0.0,0.0,0.0,0.0,0.0,0.0,0.0,0.0,0.0,0.0,0.0,0.0,0.0,0.0,0.0,0.0,0.0,0.0,0.0,0.0,0.0,0.0,0.0,0.0,0.0,0.0,0.0,0.0,0.0,0.0,0.0,0.0,0.0,0.0,0.0,0.0,0.0,3.5452,3.584,0.0,0.0,0.0,0.0,0.0,0.0,0.0,0.0,3.8644,0.0,0.0,0.0,0.0,0.0,0.0,0.0,0.0,0.0,0.0,0.0,0.0,0.0,0.0,0.0,0.0,0.0,0.0,0.0,0.0,0.0,0.0,0.0,0.0,0.0,0.0,0.0,0.0,0.0,0.0,0.0,0.0,0.0,0.0,0.0,0.0,0.0,0.0,0.0,0.0,0.0,0.0,0.0,0.0,0.0,0.0,0.0,0.0,0.0,0.0,0.0,0.0,0.0,0.0,0.0,0.0,4.3778,4.405,4.5633,4.8637,4.8687,4.8818,4.9015,4.746,4.5795,4.4155,0.0,0.0,0.0,0.0,0.0,0.0,0.0,0.0,0.0,0.0,0.0,0.0,0.0,0.0,0.0,0.0,0.0,0.0,0.0,0.0,0.0,0.0,0.0,0.0,0.0,0.0,0.0,0.0,0.0,0.0,0.0,0.0,0.0,0.0,0.0,0.0,0.0,0.0,0.0,3.787,3.7775,0.0,0.0,0.0,0.0,0.0,0.0,0.0,0.0,3.9951,0.0,0.0,0.0,0.0,0.0,0.0,0.0,0.0,0.0,0.0,0.0,0.0,0.0,0.0,0.0,0.0,0.0,0.0,0.0,0.0,0.0,0.0,0.0,0.0,0.0,0.0,0.0,0.0,0.0,0.0,0.0,0.0,0.0,0.0,0.0,0.0,0.0,0.0,0.0,0.0,0.0,0.0,0.0,0.0,0.0,0.0,0.0,0.0,0.0,0.0,0.0,0.0,0.0,0.0,0.0,4.513,4.6005,4.7564,4.9934,4.9871,4.9861,5.0008,4.8469,4.6866,0.0,0.0,0.0,0.0,0.0,0.0,0.0,0.0,0.0,0.0,0.0,0.0,0.0,0.0,0.0,0.0,0.0,0.0,0.0,0.0,0.0,0.0,0.0,0.0,0.0,0.0,0.0,0.0,0.0,0.0,0.0,0.0,0.0,0.0,0.0,0.0,0.0,0.0,0.0,0.0,3.9038,3.9222,4.1214,0.0,0.0,0.0,0.0,0.0,0.0,4.0253,3.9934,0.0,0.0,0.0,0.0,0.0,0.0,0.0,0.0,0.0,0.0,0.0,0.0,0.0,0.0,0.0,0.0,0.0,0.0,0.0,0.0,0.0,0.0,0.0,0.0,0.0,0.0,0.0,0.0,0.0,0.0,0.0,0.0,0.0,0.0,0.0,0.0,0.0,0.0,0.0,0.0,0.0,0.0,0.0,0.0,0.0,0.0,0.0,0.0,0.0,0.0,0.0,0.0,0.0,0.0,0.0,4.6064,4.7638,4.9247,5.0802,5.0875,5.0875,5.0868,4.9028,4.7381,0.0,0.0,0.0,0.0,0.0,0.0,0.0,0.0,0.0,0.0,0.0,0.0,0.0,0.0,0.0,0.0,0.0,0.0,0.0,0.0,0.0,0.0,0.0,0.0,0.0,0.0,0.0,0.0,0.0,0.0,0.0,0.0,0.0,0.0,0.0,0.0,0.0,0.0,0.0,0.0,0.0,4.0665,4.2599,4.1533,0.0,0.0,0.0,0.0,4.0764,4.0861,0.0,0.0,0.0,0.0,0.0,0.0,0.0,0.0,0.0,0.0,0.0,0.0,0.0,0.0,0.0,0.0,0.0,0.0,0.0,0.0,0.0,0.0,0.0,0.0,0.0,0.0,0.0,0.0,0.0,0.0,0.0,0.0,0.0,0.0,0.0,0.0,0.0,0.0,0.0,0.0,0.0,0.0,0.0,0.0,0.0,0.0,0.0,0.0,0.0,0.0,0.0,0.0,0.0,0.0,0.0,0.0,4.5992,4.7545,4.916,5.0702,5.0822,5.0852,5.0858,4.7914,4.623,0.0,0.0,0.0,0.0,0.0,0.0,0.0,0.0,0.0,0.0,0.0,0.0,0.0,0.0,0.0,0.0,0.0,0.0,0.0,0.0,0.0,0.0,0.0,0.0,0.0,0.0,0.0,0.0,0.0,0.0,0.0,0.0,0.0,0.0,0.0,0.0,0.0,0.0,0.0,0.0,0.0,4.1632,4.3546,4.2409,4.1566,0.0,0.0,4.3259,4.3943,4.5205,0.0,0.0,0.0,0.0,0.0,0.0,0.0,0.0,0.0,0.0,0.0,0.0,0.0,0.0,0.0,0.0,0.0,0.0,0.0,0.0,0.0,0.0,0.0,0.0,0.0,0.0,0.0,0.0,0.0,0.0,0.0,0.0,0.0,0.0,0.0,0.0,0.0,0.0,0.0,0.0,0.0,0.0,0.0,0.0,0.0,0.0,0.0,0.0,0.0,0.0,0.0,0.0,0.0,0.0,0.0,4.6481,4.7695,5.0121,5.1824,5.2744,5.2377,5.2257,5.2498,4.9102,4.7325,0.0,0.0,0.0,0.0,0.0,0.0,0.0,0.0,0.0,0.0,0.0,0.0,0.0,0.0,0.0,0.0,0.0,0.0,0.0,0.0,0.0,0.0,0.0,0.0,0.0,0.0,0.0,0.0,0.0,0.0,0.0,0.0,0.0,0.0,0.0,0.0,0.0,0.0,0.0,0.0,0.0,0.0,4.3963,4.3323,0.0,0.0,0.0,4.3486,4.3431,0.0,0.0,0.0,0.0,0.0,0.0,0.0,0.0,0.0,0.0,0.0,0.0,0.0,0.0,0.0,0.0,0.0,0.0,0.0,0.0,0.0,0.0,0.0,0.0,0.0,0.0,0.0,0.0,0.0,0.0,0.0,0.0,0.0,0.0,0.0,0.0,0.0,0.0,0.0,0.0,0.0,0.0,0.0,0.0,0.0,0.0,0.0,0.0,0.0,0.0,0.0,0.0,0.0,0.0,0.0,0.0,0.0,4.9128,5.2336,5.4102,5.4316,5.3786,5.3518,5.3536,5.0556,0.0,0.0,0.0,0.0,0.0,0.0,0.0,0.0,0.0,0.0,0.0,0.0,0.0,0.0,0.0,0.0,0.0,0.0,0.0,0.0,0.0,0.0,0.0,0.0,0.0,0.0,0.0,3.7081,0.0,0.0,0.0,0.0,0.0,0.0,0.0,0.0,0.0,0.0,0.0,0.0,0.0,0.0,4.4594,4.4683,4.4554,4.4916,0.0,0.0,4.4207,4.4517,4.6789,4.7342,0.0,0.0,0.0,0.0,0.0,0.0,0.0,0.0,0.0,0.0,0.0,0.0,0.0,0.0,0.0,0.0,0.0,0.0,0.0,0.0,0.0,0.0,0.0,0.0,0.0,0.0,0.0,0.0,0.0,0.0,0.0,0.0,0.0,0.0,0.0,0.0,0.0,0.0,0.0,0.0,0.0,0.0,0.0,0.0,0.0,0.0,0.0,0.0,0.0,0.0,0.0,0.0,0.0,0.0,0.0,4.9642,5.3045,5.4694,5.4407,5.4321,5.3969,5.322,5.1546,4.9921,0.0,0.0,0.0,0.0,0.0,0.0,0.0,0.0,0.0,0.0,0.0,0.0,0.0,0.0,0.0,0.0,0.0,0.0,0.0,0.0,0.0,0.0,0.0,0.0,0.0,0.0,0.0,0.0,0.0,0.0,0.0,0.0,0.0,0.0,0.0,0.0,0.0,0.0,0.0,0.0,0.0,4.5889,4.6272,4.6277,4.702,0.0,0.0,4.6856,4.9662,5.1525,5.1187,4.6742,0.0,0.0,0.0,0.0,0.0,0.0,0.0,0.0,0.0,0.0,0.0,0.0,0.0,0.0,0.0,0.0,0.0,0.0,0.0,0.0,0.0,0.0,0.0,0.0,0.0,0.0,0.0,0.0,0.0,0.0,0.0,0.0,0.0,0.0,0.0,0.0,0.0,0.0,0.0,0.0,0.0,0.0,0.0,0.0,0.0,0.0,0.0,0.0,0.0,0.0,0.0,0.0,0.0,5.133,5.1863,5.5376,5.7101,5.692,5.6245,5.5595,5.4973,5.3224,5.1279,0.0,0.0,0.0,0.0,0.0,0.0,0.0,0.0,0.0,0.0,0.0,0.0,0.0,0.0,0.0,0.0,0.0,0.0,0.0,0.0,0.0,0.0,0.0,0.0,0.0,0.0,0.0,0.0,4.2855,4.322,4.3344,0.0,0.0,0.0,0.0,0.0,0.0,0.0,0.0,0.0,0.0,4.6699,4.7812,4.8302,0.0,0.0,4.9703,4.8968,4.9289,5.0569,5.0079,4.5937,4.5717,0.0,0.0,0.0,0.0,0.0,0.0,0.0,0.0,0.0,0.0,0.0,0.0,0.0,0.0,0.0,0.0,0.0,0.0,0.0,0.0,0.0,0.0,0.0,0.0,0.0,0.0,0.0,0.0,0.0,0.0,0.0,0.0,0.0,0.0,0.0,0.0,0.0,0.0,0.0,0.0,0.0,0.0,0.0,0.0,0.0,0.0,0.0,0.0,0.0,0.0,0.0,0.0,5.2931,5.3382,5.7286,5.9178,5.8905,5.8124,5.7379,5.6678,5.5333,5.3628,0.0,0.0,0.0,0.0,0.0,0.0,0.0,0.0,0.0,0.0,0.0,0.0,0.0,0.0,0.0,0.0,0.0,0.0,0.0,0.0,0.0,0.0,0.0,0.0,0.0,0.0,0.0,0.0,4.4213,4.4507,4.4661,0.0,0.0,0.0,0.0,0.0,0.0,0.0,0.0,0.0,0.0,4.8449,4.8837,4.93,4.9748,5.0118,4.9485,4.8871,4.8522,4.9304,4.9055,4.6518,0.0,0.0,0.0,0.0,0.0,0.0,0.0,0.0,0.0,0.0,0.0,0.0,0.0,0.0,0.0,0.0,0.0,0.0,0.0,0.0,0.0,0.0,0.0,0.0,0.0,0.0,0.0,4.3949,0.0,0.0,4.382,0.0,0.0,0.0,0.0,0.0,0.0,0.0,0.0,0.0,0.0,0.0,0.0,0.0,0.0,0.0,0.0,0.0,0.0,0.0,0.0,0.0,0.0,5.3432,5.387,5.8548,6.062,5.9949,5.9855,5.9238,5.8006,5.7923,5.7127,5.5438,0.0,0.0,0.0,0.0,0.0,0.0,0.0,0.0,0.0,0.0,0.0,0.0,0.0,0.0,0.0,0.0,0.0,0.0,0.0,0.0,0.0,0.0,0.0,0.0,0.0,0.0,4.311,4.4354,4.5249,0.0,0.0,0.0,0.0,0.0,0.0,0.0,0.0,0.0,0.0,4.9836,5.1466,4.9209,4.892,4.8732,4.7897,4.6362,4.5993,4.8155,4.8535,4.8749,0.0,0.0,0.0,0.0,0.0,0.0,0.0,0.0,0.0,0.0,0.0,0.0,0.0,0.0,0.0,0.0,0.0,0.0,0.0,0.0,0.0,0.0,0.0,0.0,0.0,0.0,0.0,4.7792,4.7792,0.0,0.0,0.0,0.0,0.0,0.0,0.0,0.0,0.0,0.0,0.0,5.1931,5.2704,0.0,0.0,0.0,0.0,0.0,0.0,0.0,0.0,0.0,0.0,0.0,0.0,5.5425,5.6065,6.0356,6.2422,6.1891,6.1326,6.0572,5.9648,5.9575,5.8584,5.6455,0.0,0.0,0.0,0.0,0.0,0.0,0.0,0.0,0.0,0.0,0.0,0.0,0.0,0.0,0.0,0.0,0.0,0.0,0.0,0.0,0.0,0.0,0.0,0.0,0.0,4.3946,0.0,0.0,0.0,0.0,0.0,0.0,0.0,0.0,0.0,0.0,0.0,4.6892,4.7942,4.788,4.7989,4.8775,4.9365,5.0332,0.0,0.0,0.0,0.0,0.0,0.0,0.0,0.0,0.0,0.0,0.0,0.0,0.0,0.0,4.8087,4.5966,4.7105,4.839,4.8294,0.0,0.0,0.0,0.0,0.0,0.0,0.0,0.0,0.0,0.0,0.0,0.0,0.0,0.0,5.0957,0.0,5.102,0.0,0.0,0.0,0.0,0.0,0.0,0.0,0.0,5.4515,5.5394,5.5739,5.6458,5.6716,0.0,5.645,5.4274,0.0,0.0,0.0,0.0,0.0,0.0,0.0,0.0,5.6619,5.7239,6.1751,6.398,6.3559,6.2843,6.2156,6.1501,6.1311,6.0481,5.8939,5.6308,5.4142,0.0,0.0,0.0,0.0,0.0,0.0,0.0,0.0,0.0,0.0,0.0,0.0,0.0,0.0,0.0,0.0,0.0,0.0,0.0,0.0,0.0,0.0,0.0,4.5875,0.0,0.0,0.0,0.0,0.0,0.0,0.0,0.0,0.0,4.7471,4.8051,4.8967,5.0017,4.951,4.9003,4.892,0.0,0.0,0.0,0.0,0.0,0.0,0.0,4.8321,4.7648,4.8257,4.9291,5.0688,5.1551,5.1945,5.1834,0.0,0.0,4.9365,5.0402,5.1797,5.1733,5.128,5.1066,5.1613,5.128,5.1066,0.0,0.0,0.0,0.0,0.0,0.0,0.0,0.0,5.4714,5.3618,0.0,5.3891,0.0,0.0,0.0,0.0,5.3362,5.5155,0.0,0.0,6.1011,6.2013,6.0523,6.0485,6.0485,6.0415,5.8911,5.7984,5.7613,5.7305,0.0,0.0,0.0,0.0,0.0,0.0,5.7091,5.7711,6.2689,6.5188,6.4757,6.4274,6.385,6.3431,6.3026,6.2756,6.2646,5.9758,5.8107,5.7923,5.2821,0.0,0.0,0.0,0.0,0.0,0.0,0.0,0.0,0.0,0.0,0.0,0.0,0.0,0.0,0.0,0.0,0.0,0.0,0.0,0.0,4.8992,0.0,0.0,0.0,0.0,0.0,0.0,0.0,0.0,0.0,0.0,4.9199,5.0923,5.2371,5.2299,0.0,0.0,0.0,0.0,5.078,4.6416,4.5591,4.5668,4.5661,4.7522,4.9728,5.1955,0.0,0.0,5.5929,5.4061,5.2642,5.2474,5.5025,5.5917,5.2712,5.2281,5.2304,5.2269,5.2399,5.2077,5.2077,5.2613,5.2422,5.5395,0.0,0.0,0.0,0.0,5.5828,5.7092,5.8659,5.872,5.8397,5.7742,5.8473,0.0,0.0,0.0,0.0,0.0,0.0,5.8463,6.0415,6.148,6.2357,6.3128,6.3097,6.309,6.309,6.2631,6.2633,6.3093,6.3016,5.9646,5.3185,0.0,0.0,0.0,0.0,5.818,6.0088,6.3288,6.4757,6.4283,6.3898,6.3468,6.3002,6.288,6.2793,6.2793,6.1912,6.0627,5.8902,5.7288,0.0,0.0,0.0,0.0,0.0,0.0,0.0,0.0,0.0,0.0,0.0,0.0,0.0,0.0,0.0,0.0,0.0,0.0,0.0,4.8909,5.0441,5.0271,0.0,0.0,0.0,0.0,0.0,0.0,0.0,0.0,0.0,5.3156,5.1237,4.9934,0.0,0.0,4.8098,4.729,4.9257,5.1104,5.1963,5.2108,0.0,5.4315,5.3749,5.3374,5.4062,5.6075,5.7578,5.7552,5.8276,5.8903,5.8839,5.9631,5.9877,5.9067,5.8655,5.8514,5.8536,5.8488,5.8424,5.8508,5.8466,5.8345,5.9169,5.8093,5.6917,5.6977,5.7935,5.8706,6.0142,6.2028,6.2278,6.1829,6.0943,6.1944,6.0714,5.7886,5.7886,0.0,0.0,0.0,6.0714,6.3083,6.3121,6.3656,6.4619,6.4649,6.4657,6.4695,6.4695,6.4917,6.5375,6.4382,6.14,5.6572,0.0,0.0,5.5072,5.7582,5.9649,6.1317,6.3766,6.4888,6.4621,6.4053,6.3445,6.283,6.2793,6.2793,6.2793,6.2793,6.2132,6.0701,5.9662,5.7771,0.0,0.0,0.0,0.0,0.0,0.0,0.0,0.0,0.0,0.0,0.0,4.9257,0.0,0.0,0.0,0.0,5.1262,5.1273,5.1273,5.1719,0.0,0.0,0.0,0.0,0.0,0.0,0.0,4.9329,5.2516,5.4907,5.487,5.2794,5.1636,5.2541,5.1393,5.0343,4.9872,0.0,5.3759,5.4762,5.4907,5.5377,5.679,5.6609,5.6609,5.7574,5.8789,5.9663,5.9736,6.0855,6.1622,6.1658,6.1651,6.1595,6.1523,6.1386,6.1343,6.1401,6.1343,6.1328,6.1401,6.1285,6.1182,6.2106,6.1728,5.7939,5.7691,5.9842,6.0648,6.2275,6.4408,6.51,6.4076,6.2128,6.4344,6.2853,5.8536,5.8498,0.0,6.1898,6.1898,6.3159,6.5375,6.5413,6.5413,6.5413,6.5375,6.5413,6.5375,6.5413,6.5413,6.5299,6.3083,6.1784,6.1585,6.1279,6.0061,5.8127,5.9825,6.1088,6.1624,6.3878,6.5169,6.5329,6.4511,6.3685,6.2892,6.2818,6.2793,6.2793,6.2793,6.2793,6.2719,6.0543,5.9188,5.8872,0.0,0.0,0.0,0.0,0.0,0.0,0.0,0.0,0.0,0.0,0.0,0.0,0.0,0.0,0.0,5.4931,0.0,5.5184,5.3168,0.0,0.0,0.0,5.2444,5.4641,5.5075,5.5112,5.4943,0.0,0.0,5.5184,5.5196,5.6066,5.8383,5.8383,5.7321,5.5196,5.679,5.7732,5.5727,5.5546,5.5619,5.6391,5.7623,5.9312,6.1195,6.2028,6.1883,6.1833,6.1823,6.1812,6.1798,6.1736,6.1609,6.1401,6.1401,6.1415,6.1559,6.1544,6.1516,6.1516,6.1386,6.127,6.2957,6.2836,6.1856,6.2094,6.3194,6.3927,6.461,6.5138,6.5306,6.5031,6.4535,6.5146,6.4726,6.3618,6.3618,6.3962,6.4496,6.4496,6.484,6.5375,6.5413,6.5413,6.5413,6.5413,6.5413,6.5413,6.5413,6.5413,6.5375,6.4802,6.3503,6.1662,6.1535,6.0275,5.8001,5.8398,5.9619,6.1593,6.2204,6.3307,6.4867,6.4094,6.3557,6.3331,6.2965,6.2793,6.2793,6.2793,6.2793,6.2793,6.2117,6.0846,5.8921,5.5896,0.0,0.0,0.0,0.0,0.0,0.0,0.0,0.0,0.0,5.0524,4.8703,0.0,5.155,0.0,5.545,5.7587,5.755,5.7043,0.0,0.0,5.4399,5.4255,5.4858,5.65,5.6899,5.5088,5.6464,5.7587,5.7587,5.755,5.8443,6.0724,5.8009,5.5522,5.5015,5.7429,5.9144,5.8782,5.9977,6.1222,6.1077,6.11,6.1304,6.1919,6.2028,6.2028,6.2028,6.1964,6.1937,6.1937,6.1923,6.1868,6.1862,6.1826,6.182,6.1728,6.1458,6.1241,6.1343,6.1255,6.1152,6.4843,6.4848,6.5158,6.5523,6.5856,6.5206,6.51,6.5375,6.5413,6.5413,6.5413,6.5413,6.5413,6.5413,6.5413,6.5413,6.5413,6.5413,6.5413,6.5413,6.5413,6.5605,6.5987,6.5987,6.6178,6.6522,6.6529,6.6522,6.6522,6.6522,6.5803,6.442,6.4382,6.3159,6.0721,5.8842,5.8574,5.9911,6.0874,6.2344,6.4369,6.3835,6.2917,6.1664,6.1334,6.0664,5.9648,5.9575,5.9588,5.9492,5.9371,5.8665,5.7207,5.4783,5.279,0.0,0.0,0.0,0.0,0.0,0.0,0.0,0.0,0.0,0.0,0.0,5.2915,5.2915,5.6247,5.7985,5.6935,5.6826,5.6717,5.65,5.6451,5.6886,5.7936,5.9203,5.9493,5.8226,5.9203,6.0013,6.0,6.0339,6.0991,6.2367,6.0593,5.9144,5.9216,6.0412,6.1426,6.2223,6.3092,6.3722,6.3722,6.3345,6.3056,6.3092,6.3092,6.3056,6.3092,6.3078,6.3092,6.3092,6.3042,6.3064,6.2994,6.298,6.2938,6.2745,6.2529,6.2175,6.1645,6.1458,6.1401,6.6956,6.7018,6.7638,6.7913,6.7714,6.5641,6.5129,6.5719,6.5719,6.5719,6.5719,6.5719,6.5719,6.5719,6.5719,6.5719,6.5719,6.5719,6.5719,6.5719,6.5834,6.6292,6.7018,6.7125,6.7553,6.8211,6.8211,6.8211,6.8211,6.8211,6.8058,6.7752,6.7637,6.6338,6.3816,6.0102,5.8154,5.8077,6.009,6.2071,6.381,6.303,6.1382,5.8945,5.8754,5.7765,5.5695,5.5622,5.553,5.5429,5.5293,5.5335,5.5484,5.3164,5.1923,0.0,4.9945,0.0,0.0,0.0,0.0,0.0,0.0,0.0,0.0,5.4907,5.5003,5.5305,5.7188,5.7695,5.5981,5.58,5.6669,5.8746,5.8999,5.9905,6.1992,6.2317,6.2317,6.2317,6.2317,6.2317,6.2317,6.2947,6.3359,6.3382,6.3685,6.3925,6.4468,6.3903,6.3889,6.5446,6.5026,6.4504,6.4374,6.4323,6.4301,6.4323,6.4287,6.4396,6.4287,6.4323,6.4359,6.4323,6.4287,6.4281,6.4246,6.4195,6.4116,6.3876,6.3847,6.348,6.2465,6.2126,6.2039,6.7881,6.7776,6.7921,6.7959,6.7867,6.7424,6.7301,6.74,6.7408,6.7408,6.7446,6.7446,6.7439,6.7446,6.7446,6.7446,6.7446,6.7446,6.7446,6.7446,6.8165,6.8547,6.8776,6.9387,6.9761,6.9922,6.9922,6.9914,6.9914,6.9914,6.889,6.6942,6.6216,6.4611,6.2128,0.0,0.0,0.0,6.1012,6.2324,6.258,5.9336,5.7344,5.6759,5.6455,0.0,5.5622,5.5622,5.5574,5.5552,5.5418,0.0,0.0,0.0,0.0,0.0,0.0,0.0,0.0,0.0,0.0,0.0,5.4472,5.4424,5.4834,5.4907,5.5703,5.755,5.813,5.9035,6.0507,6.0652,6.1086,6.2128,6.2273,6.273,6.3816,6.3925,6.3925,6.3925,6.3925,6.3925,6.3889,6.4084,6.4156,6.4192,6.4287,6.4939,6.6134,6.5555,6.5265,6.5555,6.5482,6.512,6.4519,6.4468,6.4541,6.4396,6.4396,6.4432,6.4482,6.4468,6.4432,6.4468,6.4396,6.4432,6.444,6.4353,6.4419,6.4188,6.426,6.4101,6.3498,6.3352,6.3287,7.0515,7.0475,7.0475,7.0451,0.0,6.9968,6.9777,6.9701,6.844,6.7905,6.7905,6.7905,6.7905,6.7905,6.7905,6.7905,6.7905,6.8363,6.8555,6.8585,6.9425,7.0037,7.0465,7.0839,7.1259,7.168,7.168,7.168,7.168,7.1718,7.1068,6.9807,6.9387,6.8508,6.7247,6.6827,6.5001,6.1631,6.2479,6.3575,6.4658,6.2363,6.0471,5.9281,5.8795,0.0,0.0,0.0,0.0,0.0,0.0,0.0,0.0,5.6237,0.0,5.6573,5.5558,5.5401,5.6536,5.6645,5.7152,5.8298,5.8782,5.8492,5.7333,5.8311,5.9651,6.1172,6.1353,6.186,6.3019,6.32,6.3345,6.3758,6.3794,6.3975,6.4323,6.4396,6.4396,6.4396,6.4396,6.4396,6.4396,6.4758,6.4975,6.5011,6.5337,6.5881,6.6533,6.6098,6.57,6.6098,6.6207,6.6062,6.57,6.5591,6.5555,6.5591,6.5591,6.5591,6.5591,6.5591,6.5591,6.5591,6.5591,6.5591,6.5591,6.5591,6.5562,6.5504,6.5533,6.5504,6.5122,6.4567,6.402,7.2979,7.2979,7.2979,7.2979,7.2941,7.2223,7.1917,7.1764,6.9357,0.0,0.0,6.8356,6.8363,6.8356,6.8516,6.8555,6.8631,6.9464,6.9846,6.9922,7.0678,7.145,7.2138,7.2299,7.272,7.3408,7.3437,7.3446,7.3437,7.3437,7.3446,7.3399,7.3284,7.3132,7.3017,7.2979,7.0618,6.5941,6.4706,6.5209,6.7181,6.5753,6.3967,6.1943,6.1315,6.0027,5.807,5.7997,5.7962,5.7832,5.7703,5.7486,5.7194,5.6974,5.6815,5.6609,5.6573,5.7442,5.9325,5.947,6.0303,6.2281,6.3019,6.2526,6.0375,6.2186,6.3685,6.4323,6.4396,6.4359,6.4396,6.4396,6.4482,6.4591,6.4627,6.4649,6.4808,6.4845,6.4903,6.483,6.4903,6.483,6.4903,6.5446,6.5881,6.6062,6.6569,6.7112,6.7076,6.6496,6.6062,6.6605,6.6714,6.675,6.6786,6.6714,6.6822,6.6677,6.6714,6.6822,6.6822,6.6822,6.6822,6.6677,6.6786,6.675,6.6786,6.6714,6.6822,6.6822,6.6822,6.6742,6.6515,6.5634,6.4896,7.3017,7.2979,7.2979,7.2979,7.2979,7.2864,7.2834,7.2682,7.0877,7.0067,7.0075,7.0067,7.0029,7.0105,7.0847,7.1153,7.1229,7.207,7.2444,7.2529,7.3284,7.3734,7.3896,7.463,7.5013,7.5165,7.5127,7.5165,7.5165,7.5127,7.5165,7.5051,7.4431,7.3705,7.3055,7.2979,7.2605,7.1718,6.8502,6.7014,6.7309,6.3108,6.072,6.03,5.9309,5.8364,5.8045,5.8118,5.7997,5.7973,5.7845,5.8616,6.0377,6.0417,6.1121,6.2888,6.3069,6.32,6.349,6.3577,6.3708,6.4033,6.4178,6.378,6.2852,6.3649,6.4265,6.4396,6.4468,6.4396,6.4396,6.4468,6.4758,6.5374,6.5446,6.57,6.6351,6.646,6.646,6.646,6.646,6.646,6.6496,6.6605,6.6931,6.7474,6.7713,6.8054,6.8358,6.7583,6.675,6.6786,6.6822,6.6822,6.6967,6.6822,6.6931,6.6822,6.6895,6.7003,6.7003,6.7003,6.7003,6.6858,6.6967,6.6931,6.6931,6.6822,6.6931,6.6931,6.6895,6.6844,6.6763,6.6467,6.6278,7.4363,7.4363,7.4363,7.4363,7.4363,7.4363,7.4363,7.4287,7.3514,7.2635,7.1833,7.1794,7.2053,7.2474,7.2864,7.3323,7.379,7.463,7.5004,7.508,7.5883,7.6256,7.6303,7.6685,7.6838,7.6838,7.6838,7.6838,7.6838,7.6876,7.6876,7.68,7.5997,7.5386,7.5004,7.4554,7.4363,7.4287,7.1761,7.0433,7.0378,6.7696,6.6239,6.6229,6.5126,6.4695,6.4929,6.4708,6.4695,6.4929,6.4581,6.4649,6.5217,6.5141,6.5294,6.5771,6.5394,6.5097,6.5048,6.4613,6.4591,6.5011,6.5446,6.5736,6.5808,6.5352,6.5229,6.5663,6.57,6.57,6.57,6.57,6.6025,6.6822,6.6895,6.7221,6.7924,6.8105,6.8105,6.8105,6.8105,6.8105,6.809,6.809,6.8199,6.8597,6.8633,6.8829,6.9155,6.8612,6.8105,6.8105,6.809,6.809,6.8069,6.8105,6.8105,6.809,6.8105,6.809,6.8105,6.8105,6.8069,6.809,6.8105,6.809,6.8054,6.809,6.7909,6.751,6.7438,6.7314,6.6967,6.6822,6.6763,7.6197,7.635,7.635,7.635,7.635,7.6121,7.6083,7.6044,7.6044,7.5318,7.4163,7.3743,7.3896,7.4469,7.466,7.5157,7.5815,7.6609,7.6991,7.7067,7.7678,7.8022,7.8022,7.8022,7.8022,7.8022,7.8022,7.8022,7.8022,7.8022,7.8022,7.7946,7.7335,7.6991,7.6991,7.6388,7.6044,7.5959,7.4649,7.3765,7.3366,7.2329,7.1749,7.1539,7.0576,7.0256,7.0593,7.0283,7.0243,7.0541,7.0106,6.9535,6.8921,6.8742,6.832,6.7535,6.6939,6.6519,6.6402,6.5859,6.5736,6.6351,6.6967,6.7619,6.809,6.7148,6.6656,6.7221,6.7329,6.7329,6.7329,6.7329,6.7583,6.8199,6.8271,6.8452,6.9047,6.9192,6.9192,6.9192,6.9192,6.9155,6.9192,6.9192,6.9228,6.9409,6.959,6.9735,6.9735,6.9735,6.9699,6.9626,6.9445,6.9119,6.9192,6.9119,6.9083,6.9192,6.9119,6.9047,6.9047,6.9119,6.9155,6.9047,6.9119,6.9047,6.9119,6.9119,6.8866,6.838,6.8271,6.809,6.7619,6.7474,6.7184,7.8222,7.8872,7.8872,7.8949,7.8834,7.8137,7.7831,7.7831,7.7793,7.7717,7.7411,7.5968,7.5395,7.5471,7.615,7.6532,7.6723,7.7526,7.7908,7.7899,7.7975,7.8022,7.8099,7.8061,7.8022,7.8061,7.809,7.8175,7.8175,7.8099,7.8061,7.8022,7.7908,7.787,7.787,7.7793,7.7717,7.7746,7.712,7.6083,7.4594,7.3323,7.2461,7.1962,7.0746,7.0101,7.0335,7.0138,7.0082,6.9961,6.9827,6.9573,6.9404,6.9219,6.9092,6.9005,6.8932,6.8881,6.8829,6.8793,6.8685,6.8866,6.8866,6.8974,6.9119,6.8974,6.8866,6.8974,6.8974,6.8866,6.8974,6.8902,6.8902,6.9047,6.9083,6.9119,6.9264,6.9192,6.9192,6.9192,6.9373,6.9192,6.9373,6.9373,6.959,7.0206,7.0677,7.1024,7.1024,7.1024,7.106,7.0915,7.0206,6.9409,6.9337,6.9228,6.9409,6.9337,6.9264,6.9373,6.9445,6.9409,6.9228,6.9626,6.9373,6.9409,6.9373,6.9192,6.9264,6.9155,6.9047,6.8974,6.8938,6.8829,6.8358,7.9254,8.0018,8.0018,8.0315,8.0659,8.0391,8.0544,8.0926,8.0964,8.0964,8.0897,8.0248,7.914,7.7802,7.8108,7.849,7.8939,7.9321,7.9474,7.9474,7.9474,7.9474,7.9474,7.9474,7.9474,7.9474,7.9474,7.9474,7.9474,7.9474,7.9474,7.9398,7.9016,7.8748,7.8719,7.8252,7.8022,7.8013,7.778,7.7206,7.619,7.4624,7.3454,7.2789,7.1973,7.1645,7.1765,7.1539,7.1462,7.1558,7.1216,7.0988,7.095,7.0853,7.0814,7.0707,7.0216,6.9699,6.9228,6.9192,6.9409,6.9844,6.9916,7.0097,7.0517,7.0553,7.0553,7.046,6.9735,6.9192,6.9192,6.9192,6.9388,6.9771,6.9916,7.0061,7.0517,7.0553,7.0553,7.0553,7.0553,7.0553,7.0553,7.0553,7.0698,7.1024,7.135,7.1494,7.1494,7.1494,7.1494,7.1406,7.0915,7.0625,7.0517,7.0568,7.0517,7.0568,7.0568,7.0568,7.048,7.0568,7.0568,7.0517,7.0444,7.046,7.0625,7.0517,7.048,7.0097,6.9409,6.9192,6.9192,6.9192,6.8829,8.0783,8.1461,8.1538,8.192,8.2455,8.2225,8.2455,8.2961,8.2999,8.2999,8.2999,8.2999,8.2044,8.0477,8.0324,8.0668,8.1117,8.1194,8.1041,8.0888,8.085,8.0735,8.0544,8.0506,8.0506,8.0506,8.0468,8.0468,8.0506,8.0506,8.0506,8.0391,7.9904,7.9636,7.956,7.8939,7.871,7.8692,7.857,7.8206,7.7505,7.6141,7.4917,7.4041,7.3577,7.3351,7.3194,7.2876,7.2687,7.2613,7.2263,7.2054,7.1927,7.1927,7.1888,7.1682,7.1102,7.046,6.988,6.9844,7.0097,7.0604,7.0713,7.0915,7.1386,7.1494,7.1494,7.1386,7.048,6.988,6.9844,6.9844,7.0097,7.0641,7.0713,7.0915,7.1386,7.1494,7.1458,7.1494,7.135,7.1494,7.1494,7.1458,7.1422,7.1458,7.1494,7.1494,7.1494,7.1494,7.1494,7.1494,7.1494,7.1458,7.1494,7.1386,7.1494,7.1494,7.1386,7.135,7.1494,7.1494,7.1494,7.106,7.1386,7.1458,7.1205,7.1277,7.135,7.0806,7.0242,6.9808,7.0009,6.988,6.9771,8.3343,8.4059,8.4136,8.4059,8.4098,8.3343,8.2999,8.319,8.3114,8.3076,8.3114,8.3114,8.2961,8.2808,8.277,8.2846,8.2846,8.277,8.2388,8.1805,8.1729,8.1308,8.0544,8.0506,8.0544,8.0735,8.0735,8.0697,8.0621,8.0582,8.0506,8.0544,8.0544,8.0515,8.0506,8.0468,8.0353,8.0287,7.987,7.928,7.8506,7.7861,7.6918,7.5811,7.554,7.4926,7.391,7.3677,7.3289,7.2409,7.2446,7.2232,7.193,7.1905,7.1827,7.1609,7.151,7.1438,7.1345,7.1329,7.1386,7.1458,7.1531,7.1531,7.1712,7.1748,7.1748,7.1567,7.1567,7.1422,7.1386,7.1205,7.1241,7.135,7.1422,7.1458,7.1494,7.1494,7.1494,7.1494,7.1494,7.1494,7.1494,7.1494,7.1494,7.1494,7.1494,7.1494,7.1494,7.1494,7.1494,7.1494,7.1494,7.1494,7.1494,7.1494,7.1494,7.1494,7.1494,7.1494,7.1494,7.1494,7.1494,7.1494,7.1494,7.1494,7.1494,7.1494,7.1494,7.1277,7.1241,7.106,7.0806,7.1205,7.106,8.4327,8.5053,8.5091,8.5053,8.5053,8.4747,8.4594,8.4594,8.4594,8.4594,8.4594,8.4594,8.4594,8.4594,8.4594,8.3983,8.3076,8.2999,8.2846,8.2579,8.2569,8.2378,8.2149,8.212,8.212,8.212,8.212,8.212,8.212,8.212,8.212,8.212,8.212,8.212,8.2082,8.2111,8.1881,8.1375,8.1106,8.0638,7.9866,7.9574,7.9091,7.8241,7.6941,7.5932,7.5388,7.5283,7.5028,7.4633,7.4538,7.4245,7.3735,7.3333,7.3031,7.2836,7.2491,7.2227,7.2127,7.2201,7.2255,7.2311,7.2746,7.2963,7.3036,7.3036,7.3036,7.2999,7.3016,7.3036,7.2834,7.2146,7.1494,7.1494,7.1531,7.1567,7.1494,7.1494,7.1494,7.1494,7.1494,7.1494,7.1603,7.1531,7.1494,7.1494,7.1531,7.1531,7.1531,7.1531,7.1494,7.1494,7.1494,7.1494,7.1494,7.1494,7.1494,7.1494,7.1494,7.1494,7.1494,7.1494,7.1494,7.1494,7.1494,7.1494,7.1494,7.1494,7.1494,7.1494,7.1494,7.1494,7.1494,7.1494,7.1386,8.5015,8.5473,8.5511,8.5511,8.5511,8.5511,8.5511,8.5511,8.5511,8.5511,8.5511,8.5511,8.5511,8.5511,8.5511,8.4938,8.3878,8.3802,8.3687,8.341,8.3419,8.3267,8.3037,8.2999,8.2999,8.2999,8.2999,8.2999,8.2999,8.2999,8.2999,8.2999,8.2999,8.2999,8.2999,8.2999,8.2693,8.2264,8.2187,8.1881,8.1347,8.1318,8.1029,8.0369,7.8987,7.7707,7.6815,7.6643,7.6419,7.6144,7.6018,7.5708,7.524,7.4757,7.4417,7.4227,7.3681,7.3316,7.3193,7.3141,7.3072,7.3108,7.3543,7.3905,7.3905,7.3905,7.3905,7.3905,7.3905,7.3905,7.3687,7.2891,7.2275,7.2275,7.2275,7.2291,7.2291,7.2291,7.2327,7.2348,7.2384,7.2327,7.2255,7.2311,7.2311,7.2275,7.211,7.1893,7.1893,7.1639,7.1494,7.1494,7.1494,7.1494,7.1494,7.1494,7.1494,7.1494,7.1494,7.1494,7.1494,7.1494,7.1494,7.1494,7.1494,7.1494,7.1494,7.1494,7.1494,7.1494,7.1494,7.1494,7.1494,7.1494,7.1422,8.5473,8.5511,8.5511,8.5511,8.5511,8.5511,8.5511,8.5511,8.5511,8.5511,8.5511,8.5511,8.5511,8.5511,8.5511,8.5435,8.5282,8.5244,8.49,8.4327,8.4289,8.3907,8.3267,8.3305,8.3305,8.3267,8.3114,8.3114,8.3228,8.3267,8.3267,8.3152,8.3267,8.3343,8.3114,8.3267,8.3152,8.3037,8.3037,8.2961,8.299,8.277,8.2437,8.206,8.159,8.0222,7.7926,7.7787,7.7473,7.6786,7.6698,7.6453,7.6255,7.5888,7.5672,7.5527,7.5056,7.4786,7.4653,7.416,7.3905,7.3941,7.3977,7.4158,7.4231,7.4158,7.4158,7.4194,7.4158,7.405,7.4122,7.3977,7.3832,7.3832,7.3615,7.3615,7.3687,7.3796,7.3832,7.3724,7.3615,7.3832,7.3832,7.3615,7.3543,7.347,7.3108,7.271,7.2674,7.2255,7.1712,7.1567,7.1675,7.1784,7.1639,7.1494,7.1494,7.1494,7.1494,7.1494,7.1494,7.1494,7.1494,7.1494,7.1494,7.1494,7.1494,7.1494,7.1494,7.1494,7.1494,7.1494,7.1494,7.1494,7.1494,8.5511,8.5511,8.5511,8.5511,8.5511,8.5511,8.5511,8.5511,8.5511,8.5511,8.5511,8.5511,8.5511,8.5511,8.5511,8.5511,8.5511,8.5511,8.5358,8.5129,8.5091,8.4976,8.4747,8.4709,8.4709,8.4709,8.4709,8.4709,8.4709,8.4671,8.4709,8.4747,8.4709,8.4747,8.4632,8.4709,8.448,8.3954,8.3878,8.3649,8.3037,8.2662,8.238,8.2149,8.1714,8.0965,8.023,7.9808,7.9237,7.8525,7.8857,7.8786,7.8152,7.7269,7.6659,7.6366,7.5525,7.4952,7.482,7.4779,7.4701,7.481,7.5225,7.5515,7.5551,7.5515,7.5478,7.5515,7.5551,7.5551,7.5551,7.5551,7.508,7.4013,7.3905,7.3977,7.405,7.3977,7.3905,7.3905,7.3905,7.3905,7.3905,7.3941,7.405,7.4013,7.3724,7.3543,7.347,7.3217,7.2907,7.2509,7.24,7.2183,7.2038,7.1965,7.1893,7.1748,7.1603,7.1531,7.1494,7.1494,7.1494,7.1494,7.1494,7.1494,7.1494,7.1494,7.1494,7.1494,7.1494,7.1494,7.1494,7.1494,7.1494,8.5511,8.5511,8.5511,8.5511,8.5511,8.5511,8.5511,8.5511,8.5511,8.5511,8.5511,8.5511,8.5511,8.5511,8.5511,8.5511,8.5511,8.5511,8.5511,8.5511,8.5511,8.5511,8.5511,8.5511,8.5511,8.5511,8.5511,8.5511,8.5511,8.5511,8.5511,8.5511,8.5511,8.5473,8.5511,8.5511,8.5206,8.4785,8.4747,8.448,8.3972,8.3597,8.3324,8.3081,8.2679,8.223,8.1859,8.1534,8.1098,8.0529,8.0428,8.0079,7.9538,7.8298,7.7458,7.7137,7.6499,7.5859,7.57,7.5637,7.5534,7.5659,7.6022,7.6256,7.6292,7.6292,7.6292,7.6292,7.6256,7.6292,7.6292,7.6292,7.5804,7.4971,7.4863,7.479,7.479,7.479,7.4826,7.4882,7.4863,7.479,7.479,7.479,7.479,7.479,7.452,7.4339,7.4267,7.405,7.3615,7.3289,7.3181,7.2891,7.2581,7.2436,7.2327,7.2038,7.1748,7.1603,7.1494,7.1494,7.1494,7.1494,7.1494,7.1494,7.1494,7.1494,7.1494,7.1494,7.1494,7.1494,7.1494,7.1494,7.1494,8.5511,8.5511,8.5511,8.5511,8.5511,8.5511,8.5511,8.5511,8.5511,8.5511,8.5511,8.5511,8.5511,8.5511,8.5511,8.5511,8.5511,8.5511,8.5511,8.5511,8.5511,8.5511,8.5511,8.5511,8.5511,8.5511,8.5511,8.5511,8.5511,8.5511,8.5511,8.5511,8.5511,8.5511,8.5511,8.5511,8.5473,8.5397,8.5425,8.5397,8.53,8.5268,8.5055,8.4556,8.4198,8.3593,8.2899,8.289,8.2721,8.2096,8.1054,8.0465,8.013,7.8989,7.8219,7.8168,7.7614,7.7306,7.716,7.6821,7.6529,7.6565,7.6637,7.642,7.6637,7.6746,7.6746,7.671,7.669,7.6546,7.6509,7.6473,7.6348,7.6292,7.5985,7.6038,7.622,7.6167,7.5985,7.6094,7.6256,7.6256,7.6058,7.6058,7.6094,7.5985,7.5515,7.5244,7.5063,7.479,7.4194,7.4013,7.3941,7.3651,7.3289,7.3108,7.3036,7.2818,7.2384,7.2074,7.1639,7.1531,7.1494,7.1494,7.1494,7.1494,7.1494,7.1494,7.1494,7.1494,7.1494,7.1494,7.1494,7.1494,7.1494,8.5511,8.5511,8.5511,8.5511,8.5511,8.5511,8.5511,8.5511,8.5511,8.5511,8.5511,8.5511,8.5511,8.5511,8.5511,8.5511,8.5511,8.5511,8.5511,8.5511,8.5511,8.5511,8.5511,8.5511,8.5511,8.5511,8.5511,8.5511,8.5511,8.5511,8.5511,8.5511,8.5511,8.5511,8.5511,8.5511,8.5511,8.5511,8.5511,8.5511,8.5461,8.5126,8.4859,8.4696,8.4283,8.394,8.3638,8.4041,8.3486,8.2028,8.1053,8.0532,8.0522,7.9667,7.9072,7.897,7.8622,7.8266,7.8249,7.8097,7.8031,7.805,7.7905,7.805,7.805,7.805,7.805,7.805,7.805,7.7796,7.7326,7.7181,7.6963,7.6401,7.6473,7.6401,7.6292,7.6292,7.6292,7.6292,7.6292,7.6292,7.6292,7.6292,7.6292,7.6256,7.6111,7.5877,7.5732,7.5696,7.5225,7.4882,7.4701,7.4375,7.4086,7.3905,7.376,7.3615,7.3253,7.2746,7.2183,7.1603,7.1567,7.1494,7.1494,7.1494,7.1494,7.1494,7.1494,7.1494,7.1494,7.1494,7.1494,7.1494,7.1494,8.5511,8.5511,8.5511,8.5511,8.5511,8.5511,8.5511,8.5511,8.5511,8.5511,8.5511,8.5511,8.5511,8.5511,8.5511,8.5511,8.5511,8.5511,8.5511,8.5511,8.5511,8.5511,8.5511,8.5511,8.5511,8.5511,8.5511,8.5511,8.5511,8.5511,8.5511,8.5511,8.5511,8.5511,8.5511,8.5511,8.5511,8.5511,8.5511,8.5511,8.5481,8.519,8.5094,8.498,8.4723,8.4557,8.4592,8.4615,8.4004,8.2996,8.2107,8.1459,8.1022,8.0093,7.9526,7.9234,7.8872,7.8719,7.8702,7.8702,7.8702,7.8702,7.8702,7.8702,7.8666,7.8702,7.8702,7.8629,7.8702,7.8484,7.8159,7.8014,7.7796,7.747,7.7326,7.7016,7.642,7.6292,7.6292,7.6292,7.6292,7.6292,7.6292,7.6292,7.6292,7.6292,7.6292,7.622,7.622,7.6292,7.6203,7.5732,7.5515,7.5261,7.5116,7.5008,7.4629,7.4484,7.4086,7.3579,7.2818,7.2058,7.1841,7.182,7.1639,7.1567,7.1712,7.1675,7.1494,7.1494,7.1494,7.1494,7.1494,7.1494,7.1494,8.5511,8.5511,8.5511,8.5511,8.5511,8.5511,8.5511,8.5511,8.5511,8.5511,8.5511,8.5511,8.5511,8.5511,8.5511,8.5511,8.5511,8.5511,8.5511,8.5511,8.5511,8.5511,8.5511,8.5511,8.5511,8.5511,8.5511,8.5511,8.5511,8.5511,8.5511,8.5511,8.5511,8.5511,8.5511,8.5511,8.5511,8.5511,8.5511,8.5511,8.5511,8.5413,8.5393,8.5373,8.5363,8.5332,8.5211,8.492,8.4467,8.4477,8.3587,8.2654,8.1855,8.0634,7.9984,7.9553,7.9548,7.9344,7.9149,7.9294,7.9064,7.9173,7.91,7.8955,7.9173,7.9245,7.9245,7.9245,7.8955,7.9028,7.8847,7.8774,7.8557,7.8412,7.8557,7.7941,7.6963,7.6492,7.642,7.6384,7.6401,7.6292,7.6292,7.6292,7.6292,7.6292,7.6292,7.6292,7.6292,7.6292,7.6292,7.6167,7.6094,7.622,7.6147,7.6147,7.5696,7.5334,7.4882,7.4339,7.3651,7.2963,7.2493,7.2275,7.2456,7.2384,7.2219,7.2074,7.182,7.1639,7.1748,7.1639,7.1494,7.1494,7.1494,8.5511,8.5511,8.5511,8.5511,8.5511,8.5511,8.5511,8.5511,8.5511,8.5511,8.5511,8.5511,8.5511,8.5511,8.5511,8.5511,8.5511,8.5511,8.5511,8.5511,8.5511,8.5511,8.5511,8.5511,8.5511,8.5511,8.5511,8.5511,8.5511,8.5511,8.5511,8.5511,8.5511,8.5511,8.5511,8.5511,8.5511,8.5511,8.5511,8.5511,8.5511,8.5511,8.5511,8.5511,8.5511,8.5511,8.5501,8.5363,8.5196,8.4803,8.4017,8.3263,8.2897,8.2479,8.2067,8.1781,8.139,8.1223,8.1177,8.0786,8.0567,8.0545,8.0525,8.0567,8.0567,8.0512,8.053,8.0585,8.0567,8.0169,7.9716,7.9064,7.8919,7.8919,7.8847,7.8702,7.8195,7.7615,7.7253,7.7144,7.6763,7.6328,7.6328,7.6401,7.6364,7.6328,7.6292,7.6292,7.6292,7.6292,7.6292,7.6292,7.6292,7.6292,7.6292,7.6292,7.6094,7.5841,7.5515,7.5261,7.452,7.4013,7.3631,7.347,7.3506,7.3289,7.2855,7.2674,7.2493,7.2239,7.2022,7.1893,7.182,7.1712,7.1531,8.5511,8.5511,8.5511,8.5511,8.5511,8.5511,8.5511,8.5511,8.5511,8.5511,8.5511,8.5511,8.5511,8.5511,8.5511,8.5511,8.5511,8.5511,8.5511,8.5511,8.5511,8.5511,8.5511,8.5511,8.5511,8.5511,8.5511,8.5511,8.5511,8.5511,8.5511,8.5511,8.5511,8.5511,8.5511,8.5511,8.5511,8.5511,8.5511,8.5511,8.5511,8.5511,8.5511,8.5511,8.5511,8.5511,8.5501,8.5451,8.5408,8.516,8.4606,8.399,8.3637,8.3488,8.335,8.303,8.2749,8.248,8.2339,8.2201,8.197,8.1961,8.1994,8.1779,8.1647,8.1527,8.1356,8.1181,8.1038,8.0893,8.0495,8.0205,7.9861,7.9825,7.9788,7.9788,7.9643,7.881,7.805,7.8014,7.7777,7.7289,7.7072,7.6908,7.6546,7.6546,7.6348,7.6348,7.6292,7.6292,7.6292,7.6292,7.6292,7.6292,7.6292,7.6292,7.6292,7.6167,7.6022,7.5877,7.5551,7.5152,7.479,7.45,7.4122,7.3868,7.3506,7.3325,7.3253,7.3144,7.2927,7.2493,7.2239,7.2275,7.1913,8.5511,8.5511,8.5511,8.5511,8.5511,8.5511,8.5511,8.5511,8.5511,8.5511,8.5511,8.5511,8.5511,8.5511,8.5511,8.5511,8.5511,8.5511,8.5511,8.5511,8.5511,8.5511,8.5511,8.5511,8.5511,8.5511,8.5511,8.5511,8.5511,8.5511,8.5511,8.5511,8.5511,8.5511,8.5511,8.5511,8.5511,8.5511,8.5511,8.5511,8.5511,8.5511,8.5511,8.5511,8.5511,8.5511,8.5491,8.5479,8.5408,8.5388,8.5283,8.481,8.433,8.404,8.3896,8.3368,8.3269,8.314,8.3082,8.2965,8.2898,8.3017,8.2972,8.271,8.2276,8.199,8.1729,8.1407,8.1198,8.1074,8.1074,8.0893,8.0929,8.0966,8.1038,8.1074,8.0857,7.9843,7.9245,7.8847,7.8484,7.805,7.7833,7.7651,7.7144,7.671,7.6565,7.6384,7.6348,7.6292,7.6292,7.6292,7.6292,7.6292,7.6292,7.6292,7.6292,7.6292,7.6292,7.6256,7.6203,7.5877,7.5406,7.4899,7.4556,7.4412,7.4339,7.4231,7.4158,7.4122,7.376,7.3217,7.2999,7.2891,7.2529,8.5511,8.5511,8.5511,8.5511,8.5511,8.5511,8.5511,8.5511,8.5511,8.5511,8.5511,8.5511,8.5511,8.5511,8.5511,8.5511,8.5511,8.5511,8.5511,8.5511,8.5511,8.5511,8.5511,8.5511,8.5511,8.5511,8.5511,8.5511,8.5511,8.5511,8.5511,8.5511,8.5511,8.5511,8.5511,8.5511,8.5511,8.5511,8.5511,8.5511,8.5511,8.5511,8.5511,8.5511,8.5511,8.5501,8.5501,8.5481,8.5441,8.5398,8.5283,8.5051,8.4798,8.4741,8.467,8.4441,8.4014,8.3777,8.3736,8.3326,8.3105,8.3017,8.3148,8.309,8.2756,8.2402,8.2148,8.1829,8.1426,8.1092,8.1074,8.1217,8.1128,8.111,8.1234,8.1163,8.1055,8.0801,8.0329,7.9909,7.9313,7.8738,7.8593,7.8412,7.8014,7.7507,7.7144,7.6818,7.6565,7.642,7.6292,7.6292,7.6292,7.6292,7.6292,7.6292,7.6292,7.6292,7.6292,7.6292,7.6256,7.6292,7.5949,7.5478,7.5442,7.5587,7.5478,7.5172,7.5027,7.4919,7.4448,7.3941,7.3796,7.3687,7.3579,8.5511,8.5511,8.5511,8.5511,8.5511,8.5511,8.5511,8.5511,8.5511,8.5511,8.5511,8.5511,8.5511,8.5511,8.5511,8.5511,8.5511,8.5511,8.5511,8.5511,8.5511,8.5511,8.5511,8.5511,8.5511,8.5511,8.5511,8.5511,8.5511,8.5511,8.5511,8.5511,8.5511,8.5511,8.5511,8.5511,8.5511,8.5511,8.5511,8.5511,8.5511,8.5511,8.5511,8.5511,8.5501,8.5481,8.5421,8.536,8.5287,8.517,8.51,8.5011,8.4966,8.4954,8.4943,8.4886,8.4575,8.4393,8.4405,8.4103,8.4025,8.4012,8.396,8.3777,8.3508,8.3198,8.2831,8.2371,8.163,8.1391,8.2007,8.1745,8.1576,8.1627,8.1812,8.1715,8.1391,8.1424,8.1202,8.091,8.052,7.9982,7.939,7.9136,7.8847,7.8376,7.7833,7.7398,7.6963,7.6637,7.6473,7.6292,7.6292,7.6292,7.6292,7.6292,7.6292,7.6292,7.6292,7.6292,7.6292,7.6292,7.6292,7.6111,7.6256,7.6292,7.6183,7.5768,7.5732,7.5696,7.5406,7.5044,7.4701,7.4484,7.4375,8.5511,8.5511,8.5511,8.5511,8.5511,8.5511,8.5511,8.5511,8.5511,8.5511,8.5511,8.5511,8.5511,8.5511,8.5511,8.5511,8.5511,8.5511,8.5511,8.5511,8.5511,8.5511,8.5511,8.5511,8.5511,8.5511,8.5511,8.5511,8.5511,8.5511,8.5511,8.5511,8.5511,8.5511,8.5511,8.5511,8.5511,8.5511,8.5511,8.5511,8.5511,8.5511,8.5511,8.5501,8.5491,8.5469,8.5408,8.5304,8.517,8.5073,8.4999,8.4947,8.4935,8.4912,8.4889,8.4889,8.4889,8.4889,8.4866,8.4843,8.4687,8.4675,8.4843,8.4565,8.4205,8.3857,8.3549,8.295,8.2265,8.1895,8.261,8.248,8.2244,8.2276,8.2557,8.2665,8.2072,8.1912,8.2023,8.1782,8.1613,8.1202,8.0565,8.03,8.0114,7.9263,7.8702,7.8267,7.7796,7.7036,7.6727,7.6401,7.6292,7.6292,7.6292,7.6292,7.6292,7.6292,7.6292,7.6292,7.6292,7.6292,7.6292,7.6292,7.6292,7.6292,7.6292,7.6292,7.6094,7.6058,7.622,7.6058,7.5551,7.5334,7.5261,8.5511,8.5511,8.5511,8.5511,8.5511,8.5511,8.5511,8.5511,8.5511,8.5511,8.5511,8.5511,8.5511,8.5511,8.5511,8.5511,8.5511,8.5511,8.5511,8.5511,8.5511,8.5511,8.5511,8.5511,8.5511,8.5511,8.5511,8.5511,8.5511,8.5511,8.5511,8.5511,8.5511,8.5511,8.5511,8.5511,8.5511,8.5511,8.5511,8.5511,8.5511,8.5511,8.5511,8.5491,8.5441,8.5429,8.5388,8.5283,8.516,8.5127,8.5028,8.4984,8.4973,8.4947,8.4901,8.4889,8.4889,8.4889,8.4889,8.4889,8.4889,8.4889,8.4889,8.4854,8.4589,8.4154,8.3658,8.309,8.2763,8.2868,8.3119,8.2921,8.2861,8.2861,8.2935,8.2921,8.2573,8.2588,8.268,8.2527,8.2313,8.2153,8.1778,8.1578,8.1323,8.0409,7.9553,7.9136,7.8593,7.7833,7.7089,7.6763,7.6582,7.6546,7.6292,7.6292,7.6292,7.6292,7.6292,7.6292,7.6292,7.6292,7.6292,7.6292,7.6292,7.6292,7.6292,7.6292,7.6292,7.6292,7.6292,7.6292,7.622,7.6094,7.5913,8.5511,8.5511,8.5511,8.5511,8.5511,8.5511,8.5511,8.5511,8.5511,8.5511,8.5511,8.5511,8.5511,8.5511,8.5511,8.5511,8.5511,8.5511,8.5511,8.5511,8.5511,8.5511,8.5511,8.5511,8.5511,8.5511,8.5511,8.5511,8.5511,8.5511,8.5511,8.5511,8.5511,8.5511,8.5511,8.5511,8.5511,8.5511,8.5511,8.5511,8.5511,8.5511,8.5511,8.5511,8.5461,8.5449,8.5377,8.5283,8.5138,8.5084,8.4961,8.4943,8.4932,8.4924,8.4889,8.4889,8.4889,8.4889,8.4889,8.4889,8.4889,8.4889,8.4889,8.4878,8.4758,8.4343,8.4077,8.409,8.3392,8.3363,8.3669,8.3392,8.3119,8.309,8.3312,8.2726,8.2726,8.334,8.3396,8.3198,8.295,8.2634,8.2371,8.2107,8.1679,8.0831,8.0114,7.968,7.9209,7.8666,7.7905,7.7144,7.7,7.6891,7.6546,7.6292,7.6311,7.6311,7.6292,7.6292,7.6292,7.6292,7.6292,7.6292,7.6292,7.6292,7.6292,7.6292,7.6292,7.6292,7.6292,7.6292,7.6292,7.6292,7.613,8.6161,8.6123,8.5692,8.5511,8.5511,8.5511,8.5511,8.5511,8.5511,8.5511,8.5511,8.5511,8.5511,8.5511,8.5511,8.5511,8.5511,8.5511,8.5511,8.5511,8.5511,8.5511,8.5511,8.5511,8.5511,8.5511,8.5511,8.5511,8.5511,8.5511,8.5511,8.5511,8.5511,8.5511,8.5511,8.5511,8.5511,8.5511,8.5511,8.5511,8.5511,8.5511,8.5511,8.5501,8.5471,8.5459,8.5356,8.523,8.5084,8.4999,8.492,8.4912,8.4901,8.4901,8.4889,8.4889,8.4889,8.4889,8.4889,8.4889,8.4889,8.4889,8.4889,8.4889,8.4854,8.4405,8.4255,8.4711,8.4179,8.4179,8.443,8.3973,8.3827,8.3723,8.3736,8.2876,8.2276,8.2994,8.3255,8.2846,8.2634,8.271,8.2496,8.2371,8.1905,8.1213,8.0658,8.0204,7.9752,7.9354,7.8702,7.7941,7.776,7.7543,7.7,7.6637,7.6565,7.6384,7.6364,7.6292,7.6292,7.6292,7.6292,7.6292,7.6292,7.6292,7.6292,7.6292,7.6292,7.6292,7.6292,7.6292,7.6292,7.6292,7.6292,8.7918,8.7804,8.6199,8.5588,8.5626,8.5511,8.555,8.5741,8.5626,8.5616,8.5626,8.5511,8.5511,8.5511,8.5511,8.5511,8.5511,8.5511,8.5511,8.5511,8.5511,8.5511,8.5511,8.5511,8.5511,8.5511,8.5511,8.5511,8.5511,8.5511,8.5511,8.5511,8.5511,8.5511,8.5511,8.5511,8.5511,8.5511,8.5511,8.5511,8.5501,8.5501,8.5491,8.5471,8.5449,8.5356,8.523,8.5094,8.5006,8.492,8.4912,8.4889,8.4889,8.4889,8.4889,8.4889,8.4889,8.4889,8.4889,8.4889,8.4889,8.4889,8.4889,8.4889,8.4878,8.4878,8.4878,8.4878,8.4516,8.4627,8.4831,8.4734,8.4166,8.3947,8.3563,8.3024,8.2557,8.2771,8.2921,8.2433,8.2355,8.2557,8.2418,8.226,8.2137,8.1474,8.1283,8.0828,8.0331,7.9897,7.9426,7.8883,7.8666,7.8303,7.7651,7.7362,7.7217,7.6891,7.6654,7.6473,7.6328,7.6328,7.6292,7.6292,7.6292,7.6292,7.6292,7.6292,7.6292,7.6292,7.6292,7.6292,7.6292,7.6292,7.6292,8.811,8.8033,8.7345,8.7116,8.7116,8.7116,8.7078,8.7078,8.7078,8.6772,8.6265,8.5779,8.5511,8.5511,8.5511,8.5511,8.5511,8.5511,8.5511,8.5511,8.5511,8.5511,8.5511,8.5511,8.5511,8.5511,8.5511,8.5511,8.5511,8.5511,8.5511,8.5511,8.5511,8.5511,8.5511,8.5511,8.5511,8.5511,8.5511,8.5511,8.5491,8.5441,8.5449,8.5449,8.5308,8.5272,8.5198,8.5062,8.4995,8.4966,8.4897,8.4901,8.4889,8.4889,8.4889,8.4889,8.4889,8.4889,8.4889,8.4889,8.4889,8.4889,8.4889,8.4889,8.4889,8.4889,8.4889,8.4889,8.4889,8.4889,8.4866,8.423,8.3531,8.3531,8.3269,8.2831,8.265,8.268,8.2542,8.2056,8.2308,8.265,8.2386,8.2084,8.1974,8.1742,8.1641,8.1435,8.0869,8.0476,8.0042,7.9716,7.9499,7.9064,7.8412,7.8122,7.7941,7.747,7.7016,7.6799,7.6582,7.6328,7.6292,7.6292,7.6292,7.6292,7.6292,7.6292,7.6292,7.6292,7.6292,7.6292,7.6292,7.6292,7.6292,8.8835,8.8835,8.8835,8.853,8.8158,8.811,8.811,8.811,8.8071,8.7804,8.7154,8.6505,8.6123,8.597,8.5893,8.5702,8.5588,8.5511,8.5511,8.5511,8.5511,8.5511,8.5511,8.5511,8.5511,8.5511,8.5511,8.5511,8.5511,8.5511,8.5511,8.5511,8.5511,8.5511,8.5511,8.5511,8.5511,8.5511,8.5511,8.5481,8.5451,8.5439,8.5367,8.5346,8.5262,8.5198,8.5154,8.5039,8.4984,8.4954,8.4935,8.4901,8.4889,8.4889,8.4889,8.4889,8.4889,8.4889,8.4889,8.4889,8.4889,8.4889,8.4889,8.4889,8.4889,8.4889,8.4889,8.4889,8.4889,8.4889,8.4843,8.4103,8.3628,8.3641,8.2756,8.2244,8.2088,8.2039,8.1908,8.1712,8.199,8.2104,8.2121,8.1812,8.1762,8.1593,8.1424,8.1302,8.1089,8.0785,8.073,8.0476,8.0295,7.9752,7.9209,7.9028,7.8774,7.805,7.7579,7.7198,7.6944,7.6618,7.6364,7.6292,7.6292,7.6292,7.6292,7.6292,7.6292,7.6292,7.6292,7.6292,7.6292,7.6292,7.6292,9.0468,9.0544,9.0468,8.9561,8.8339,8.811,8.8186,8.8377,8.8224,8.8148,8.8071,8.788,8.7422,8.6925,8.6772,8.6467,8.597,8.5741,8.5664,8.5692,8.555,8.555,8.5511,8.5511,8.5511,8.5511,8.5511,8.5511,8.5511,8.5511,8.5511,8.5511,8.5511,8.5511,8.5511,8.5511,8.5511,8.5511,8.5511,8.5479,8.5429,8.5377,8.5294,8.523,8.5176,8.5111,8.5055,8.4995,8.4966,8.4897,8.4912,8.4889,8.4889,8.4889,8.4889,8.4889,8.4889,8.4889,8.4889,8.4889,8.4889,8.4889,8.4889,8.4889,8.4889,8.4889,8.4889,8.4889,8.4889,8.4889,8.4675,8.423,8.3843,8.3326,8.2449,8.1776,8.1627,8.1562,8.1459,8.1424,8.1251,8.1199,8.1408,8.1476,8.1493,8.1391,8.1199,8.1128,8.1092,8.1038,8.0966,8.0893,8.0712,8.0476,8.0006,7.9933,7.9571,7.881,7.8231,7.7905,7.7379,7.6908,7.6654,7.6401,7.6292,7.6292,7.6292,7.6292,7.6292,7.6292,7.6292,7.6292,7.6292,7.6292,7.6292,9.0621,9.0621,9.0621,9.0287,8.9791,8.9752,8.9752,8.9627,8.9179,8.8874,8.8759,8.8377,8.7995,8.7727,8.7651,8.746,8.7154,8.6456,8.6342,8.6304,8.5893,8.555,8.555,8.5664,8.5588,8.5511,8.5511,8.5511,8.5511,8.5511,8.5511,8.5511,8.5511,8.5511,8.5511,8.5511,8.5511,8.5491,8.5451,8.5418,8.5377,8.5224,8.5116,8.5062,8.5033,8.4977,8.4943,8.4943,8.4947,8.4901,8.4889,8.4889,8.4889,8.4889,8.4889,8.4889,8.4889,8.4889,8.4889,8.4889,8.4889,8.4889,8.4889,8.4889,8.4889,8.4889,8.4889,8.4889,8.4889,8.4889,8.477,8.3817,8.3269,8.2965,8.2265,8.1579,8.1251,8.1234,8.1181,8.1199,8.1092,8.1074,8.1217,8.1286,8.1304,8.1389,8.1269,8.1181,8.1163,8.111,8.1038,8.1038,8.0966,8.0893,8.0748,8.0549,8.0259,7.9643,7.9136,7.8738,7.8159,7.747,7.6908,7.6654,7.6473,7.6292,7.6292,7.6292,7.6292,7.6292,7.6292,7.6292,7.6292,7.6292,7.6292,9.0621,9.0621,9.0621,9.0621,9.0621,9.0621,9.0621,9.0506,9.0009,8.9752,8.9638,8.9179,8.8759,8.8606,8.853,8.8224,8.8071,8.7536,8.7221,8.7192,8.6734,8.6581,8.6467,8.6074,8.6074,8.5893,8.5626,8.5511,8.5511,8.5511,8.5511,8.5511,8.5511,8.5511,8.5511,8.5511,8.5511,8.5481,8.5431,8.5377,8.5294,8.5138,8.5006,8.4977,8.492,8.4901,8.4889,8.4889,8.4889,8.4889,8.4889,8.4889,8.4889,8.4889,8.4889,8.4889,8.4889,8.4889,8.4889,8.4889,8.4889,8.4889,8.4889,8.4889,8.4889,8.4889,8.4889,8.4889,8.4889,8.4889,8.4711,8.3655,8.3038,8.2741,8.2088,8.1426,8.111,8.1074,8.1074,8.1074,8.1074,8.1074,8.1074,8.1092,8.1146,8.1269,8.1372,8.1286,8.1199,8.1128,8.1074,8.1074,8.1074,8.1002,8.1002,8.0966,8.0676,8.0368,7.9933,7.9445,7.8992,7.834,7.7615,7.698,7.6944,7.6799,7.6401,7.6292,7.6364,7.6328,7.6292,7.6292,7.6292,7.6292,7.6292,9.0621,9.0621,9.0621,9.0621,9.0621,9.0621,9.0621,9.0621,9.0583,9.0544,9.0544,9.043,8.9971,8.9409,8.9332,8.9027,8.8453,8.8224,8.811,8.8033,8.7766,8.7804,8.7575,8.7154,8.6925,8.6533,8.6189,8.5845,8.5626,8.5511,8.5511,8.5511,8.5511,8.5511,8.5511,8.5511,8.5511,8.5481,8.5411,8.5346,8.5241,8.5084,8.4961,8.492,8.4901,8.4889,8.4889,8.4889,8.4889,8.4889,8.4889,8.4889,8.4889,8.4889,8.4889,8.4889,8.4889,8.4889,8.4889,8.4889,8.4889,8.4889,8.4889,8.4889,8.4889,8.4889,8.4889,8.4889,8.4889,8.4889,8.4722,8.3921,8.3111,8.2579,8.1912,8.1478,8.1181,8.1074,8.1074,8.1074,8.1074,8.1074,8.1074,8.1074,8.1074,8.1146,8.1233,8.1234,8.1128,8.1128,8.1074,8.1074,8.1074,8.1074,8.1074,8.1074,8.1002,8.0676,8.0386,7.9952,7.9571,7.9136,7.8448,7.7869,7.7615,7.7326,7.6908,7.6601,7.642,7.6384,7.6328,7.6292,7.6292,7.6292,7.6292,9.0621,9.0621,9.0621,9.0621,9.0621,9.0621,9.0621,9.0621,9.0621,9.0621,9.0621,9.0621,9.0392,9.0239,9.0239,9.002,8.9714,8.9294,8.9027,8.8835,8.8568,8.8262,8.8033,8.7918,8.7727,8.7422,8.6953,8.6418,8.6265,8.597,8.555,8.5511,8.5511,8.5511,8.5511,8.5511,8.5511,8.5481,8.5439,8.5325,8.5208,8.5062,8.4977,8.4924,8.4889,8.4889,8.4889,8.4889,8.4889,8.4889,8.4889,8.4889,8.4889,8.4889,8.4889,8.4889,8.4889,8.4889,8.4889,8.4889,8.4889,8.4889,8.4889,8.4889,8.4889,8.4889,8.4889,8.4889,8.4889,8.4889,8.4734,8.409,8.3406,8.2726,8.2072,8.1596,8.1304,8.1074,8.1074,8.1074,8.1074,8.1074,8.1074,8.1074,8.1074,8.1074,8.1074,8.1074,8.1074,8.1074,8.1074,8.1074,8.1074,8.1074,8.1074,8.1074,8.1074,8.1002,8.0712,8.0423,8.0024,7.9571,7.9136,7.8702,7.8303,7.7833,7.7326,7.7144,7.7072,7.6492,7.6364,7.6328,7.6292,7.6292,7.6292,9.0621,9.0621,9.0621,9.0621,9.0621,9.0621,9.0621,9.0621,9.0621,9.0621,9.0621,9.0621,9.0621,9.0583,9.0544,9.0506,9.0468,9.0086,8.9818,8.9676,8.9256,8.9256,8.9065,8.8721,8.8568,8.8262,8.7842,8.7307,8.7078,8.6467,8.596,8.5511,8.5511,8.5511,8.5511,8.5511,8.5511,8.5451,8.5408,8.5294,8.5187,8.5028,8.4943,8.4912,8.4889,8.4889,8.4889,8.4889,8.4889,8.4889,8.4889,8.4889,8.4889,8.4889,8.4889,8.4889,8.4889,8.4889,8.4889,8.4889,8.4889,8.4889,8.4889,8.4889,8.4889,8.4889,8.4889,8.4889,8.4889,8.4854,8.4639,8.4306,8.3669,8.3024,8.2386,8.1762,8.1424,8.1146,8.1074,8.1074,8.1074,8.1074,8.1074,8.1074,8.1074,8.1074,8.1074,8.1074,8.1074,8.1074,8.1074,8.1074,8.1074,8.1074,8.1074,8.1074,8.1074,8.1074,8.1002,8.0712,8.0386,8.0205,7.9933,7.9426,7.8883,7.8448,7.805,7.7941,7.7796,7.7217,7.6674,7.6637,7.6529,7.6292,7.6292,9.0621,9.0621,9.0621,9.0621,9.0621,9.0621,9.0621,9.0621,9.0621,9.0621,9.0621,9.0621,9.0621,9.0621,9.0621,9.0621,9.0583,9.043,9.0353,9.0544,9.0326,9.0211,9.002,8.9829,8.9485,8.9141,8.8644,8.8071,8.7804,8.7116,8.6227,8.5626,8.5511,8.5511,8.5511,8.5511,8.5491,8.5431,8.5356,8.5219,8.5165,8.5022,8.4901,8.4889,8.4889,8.4889,8.4889,8.4889,8.4889,8.4889,8.4889,8.4889,8.4889,8.4889,8.4889,8.4889,8.4889,8.4889,8.4889,8.4889,8.4889,8.4889,8.4889,8.4889,8.4889,8.4889,8.4889,8.4889,8.4889,8.4889,8.4722,8.4516,8.4025,8.3368,8.2756,8.2084,8.161,8.1304,8.1074,8.1074,8.1074,8.1074,8.1074,8.1074,8.1074,8.1074,8.1074,8.1074,8.1074,8.1074,8.1074,8.1074,8.1074,8.1074,8.1074,8.1074,8.1074,8.1074,8.1074,8.1038,8.0785,8.0748,8.0785,8.0259,7.9752,7.9245,7.8883,7.881,7.8521,7.7905,7.7434,7.7144,7.6891,7.6601,7.6364,9.0621,9.0621,9.0621,9.0621,9.0621,9.0621,9.0621,9.0621,9.0621,9.0621,9.0621,9.0621,9.0621,9.0621,9.0621,9.0621,9.0621,9.0621,9.0621,9.0583,9.0621,9.0621,9.0621,9.0315,9.0201,9.0009,8.9485,8.8721,8.8148,8.7384,8.6762,8.6456,8.6036,8.5654,8.5626,8.5626,8.5471,8.5411,8.5277,8.5208,8.5127,8.5051,8.4977,8.4935,8.4889,8.4889,8.4889,8.4889,8.4889,8.4889,8.4889,8.4889,8.4889,8.4889,8.4889,8.4889,8.4889,8.4889,8.4889,8.4889,8.4889,8.4889,8.4889,8.4889,8.4889,8.4889,8.4889,8.4889,8.4889,8.4889,8.4854,8.4613,8.4343,8.3709,8.3068,8.2433,8.1776,8.1424,8.111,8.1074,8.1074,8.1074,8.1074,8.1074,8.1074,8.1074,8.1074,8.1074,8.1074,8.1074,8.1074,8.1074,8.1074,8.1074,8.1074,8.1074,8.1074,8.1074,8.1074,8.1074,8.1074,8.1002,8.0929,8.0929,8.0621,8.0114,7.9716,7.9643,7.9281,7.8666,7.8303,7.805,7.7615,7.7289,7.6818,9.0621,9.0621,9.0621,9.0621,9.0621,9.0621,9.0621,9.0621,9.0621,9.0621,9.0621,9.0621,9.0621,9.0621,9.0621,9.0621,9.0621,9.0621,9.0621,9.0621,9.0621,9.0621,9.0621,9.0621,9.0544,9.0392,9.0124,8.9485,8.8644,8.8301,8.787,8.7345,8.6581,8.6074,8.6046,8.5807,8.5528,8.5398,8.5311,8.5225,8.5143,8.5022,8.4943,8.4901,8.4889,8.4889,8.4889,8.4889,8.4889,8.4889,8.4889,8.4889,8.4889,8.4889,8.4889,8.4889,8.4889,8.4889,8.4889,8.4889,8.4889,8.4889,8.4889,8.4889,8.4889,8.4889,8.4889,8.4889,8.4889,8.4889,8.4889,8.4734,8.438,8.3857,8.3183,8.2511,8.1829,8.1233,8.1092,8.1074,8.1074,8.1074,8.1074,8.1074,8.1074,8.1128,8.1128,8.1074,8.1074,8.1074,8.1074,8.1074,8.1074,8.1074,8.1074,8.1074,8.1074,8.1074,8.1074,8.1074,8.1074,8.1074,8.1074,8.1038,8.1002,8.0857,8.0531,8.035,8.0006,7.9426,7.9173,7.8992,7.8484,7.7977,7.7579,9.0621,9.0621,9.0621,9.0621,9.0621,9.0621,9.0621,9.0621,9.0621,9.0621,9.0621,9.0621,9.0621,9.0621,9.0621,9.0621,9.0621,9.0621,9.0621,9.0621,9.0621,9.0621,9.0621,9.0621,9.0621,9.0621,9.0468,9.0048,8.9475,8.9093,8.8606,8.8148,8.7575,8.6953,8.6724,8.635,8.5994,8.5918,8.5763,8.5388,8.5174,8.4958,8.4912,8.4901,8.4889,8.4889,8.4889,8.4889,8.4889,8.4889,8.4889,8.4889,8.4889,8.4889,8.4889,8.4889,8.4889,8.4889,8.4889,8.4889,8.4889,8.4889,8.4889,8.4889,8.4889,8.4889,8.4889,8.4889,8.4889,8.4889,8.4889,8.4831,8.4442,8.4078,8.3396,8.265,8.1945,8.1356,8.1374,8.1339,8.1321,8.1339,8.1356,8.1339,8.1234,8.1217,8.111,8.1092,8.1074,8.1074,8.1074,8.1074,8.1074,8.1074,8.1074,8.1074,8.1074,8.1074,8.1074,8.1074,8.1074,8.1074,8.1074,8.1074,8.1038,8.1002,8.1002,8.0857,8.0459,8.0078,8.0024,7.9825,7.9209,7.8738,7.8412,9.0621,9.0621,9.0621,9.0621,9.0621,9.0621,9.0621,9.0621,9.0621,9.0621,9.0621,9.0621,9.0621,9.0621,9.0621,9.0621,9.0621,9.0621,9.0621,9.0621,9.0621,9.0621,9.0621,9.0621,9.0621,9.0621,9.0621,9.0468,9.0048,8.96,8.9294,8.9027,8.8262,8.787,8.7783,8.7388,8.7104,8.6834,8.6371,8.6032,8.574,8.5443,8.4939,8.4889,8.4889,8.4889,8.4889,8.4889,8.4889,8.4889,8.4889,8.4889,8.4889,8.4889,8.4889,8.4889,8.4889,8.4889,8.4889,8.4889,8.4889,8.4889,8.4889,8.4889,8.4889,8.4889,8.4889,8.4889,8.4889,8.4889,8.4889,8.4889,8.4663,8.4405,8.3896,8.3038,8.2212,8.2233,8.2313,8.2265,8.2217,8.2297,8.2407,8.2201,8.1812,8.1661,8.1339,8.1286,8.1092,8.1074,8.1092,8.1092,8.1092,8.1074,8.1074,8.1074,8.1074,8.1074,8.1074,8.1074,8.1074,8.1074,8.1074,8.1074,8.1074,8.1038,8.1074,8.1074,8.1038,8.0729,8.0839,8.064,8.0042,7.9571,7.9245]}]]